GFSNW_500_spd_000.txt.gz
Wind_Speed
89 90 90 88 83 79 77 74 70 70 73 73 74 73 70 70 66 65 59 57 56 55 52 47 44 45 40 42 37 36 30 33 36 41 48 55 49 60 57 59 59 47 45 36
94 93 91 89 83 74 68 68 71 73 73 72 71 70 72 71 70 66 61 59 59 55 55 48 47 47 42 40 37 36 30 33 31 37 38 50 55 55 52 56 49 52 47 42
88 85 81 76 68 62 61 62 66 70 72 71 70 69 71 71 70 68 61 59 60 59 57 53 48 48 42 41 39 41 38 32 36 33 34 37 52 64 60 53 63 59 56 40
80 72 65 61 59 58 60 61 63 65 62 64 66 66 68 69 71 75 66 64 61 61 58 53 48 48 47 43 42 41 40 38 32 35 36 30 38 43 57 70 67 60 53 51
63 57 55 54 54 52 54 55 56 57 54 55 60 60 63 67 69 71 66 63 62 62 61 54 49 51 49 47 45 45 42 38 38 35 33 34 36 40 44 47 72 69 60 56
51 51 47 43 42 41 42 44 50 51 52 51 51 54 58 62 68 67 63 68 67 67 65 64 58 55 51 54 53 50 46 41 42 31 24 30 37 39 39 48 49 56 64 68
48 42 39 37 34 33 34 33 34 39 43 43 49 47 53 56 58 62 60 63 65 64 61 56 52 53 51 54 51 47 46 45 44 36 36 33 32 31 35 39 47 52 56 47
37 34 31 28 27 26 25 27 28 29 30 35 35 43 46 48 50 51 51 55 58 60 57 56 52 52 52 52 53 52 51 47 42 45 37 32 28 25 30 35 40 41 47 49
31 30 26 25 24 23 22 22 23 25 26 27 28 29 27 33 39 44 46 49 54 52 51 52 53 51 50 50 52 52 54 52 52 40 42 38 36 30 35 36 48 49 42 53
27 22 20 20 21 21 21 18 18 20 20 20 22 24 26 25 27 29 30 42 44 50 48 50 51 47 38 43 52 56 54 53 54 47 48 46 47 38 37 30 39 38 49 46
22 19 17 18 18 19 20 17 16 18 16 20 20 25 24 23 20 21 23 27 41 44 46 48 39 30 36 38 38 53 53 50 53 52 53 43 41 34 35 29 32 36 39 45
17 15 15 15 15 12 11 13 12 13 13 18 19 22 26 25 22 19 19 21 38 41 49 43 45 43 36 44 37 44 48 50 46 47 48 51 47 37 34 28 31 32 29 34
13 11 11 10 8 8 9 9 9 11 10 15 18 19 24 25 23 21 20 24 37 42 46 45 39 34 43 42 39 41 48 44 44 39 39 38 37 42 47 36 34 33 34 33
9 7 5 5 4 3 3 5 7 9 11 16 19 22 22 21 20 27 27 31 38 42 41 43 40 37 34 39 45 42 49 39 38 36 33 33 29 34 37 40 34 36 36 38
7 5 4 2 3 4 4 7 12 12 14 15 15 17 18 19 27 31 32 36 41 38 39 37 38 38 36 34 33 37 37 39 36 32 29 29 37 40 40 43 37 38 43 47
7 5 5 5 7 9 9 7 11 10 15 17 18 16 21 28 25 25 31 39 39 35 40 35 28 35 37 37 35 34 30 30 31 28 28 28 18 40 42 46 48 46 47 45
11 11 11 9 8 7 12 8 16 17 18 17 16 22 22 19 20 27 31 40 24 43 44 43 12 35 35 32 32 27 26 30 29 25 23 25 19 32 43 42 43 46 51 50
13 11 10 11 14 11 15 20 19 18 18 23 23 21 18 14 17 26 27 40 39 44 46 32 15 18 38 33 30 32 30 31 31 33 22 24 29 39 41 46 41 42 53 58
14 12 13 23 18 18 22 18 20 23 21 19 18 20 17 15 19 28 30 30 30 39 40 14 16 30 30 29 29 30 31 30 28 32 30 29 31 17 28 33 35 45 36 23
18 16 16 19 23 20 20 22 26 21 12 16 16 13 15 15 22 24 25 26 25 22 33 24 24 16 25 28 29 32 35 34 29 25 19 15 40 31 32 24 22 34 26 24
20 22 22 23 24 23 25 27 22 18 21 19 19 18 16 20 20 21 22 22 29 28 27 13 30 17 22 23 23 24 35 34 30 27 28 28 31 30 23 27 30 25 24 22
24 24 22 21 19 18 17 19 25 20 20 20 23 20 15 18 20 19 17 24 25 21 25 14 17 27 10 23 34 32 30 30 25 32 40 31 26 14 17 16 17 19 15 18
21 21 21 20 19 14 14 17 25 17 9 10 16 18 19 16 21 20 21 20 16 16 21 23 11 12 17 6 16 30 33 37 32 28 18 13 13 11 8 8 8 11 14 15
26 22 22 20 15 13 13 11 12 13 10 13 11 13 15 13 20 22 21 17 15 12 17 17 13 10 6 9 12 16 11 8 13 21 18 15 11 12 13 13 13 14 15 17
20 21 22 18 13 10 10 12 10 9 9 13 13 15 12 14 15 14 15 19 14 9 10 13 11 11 11 7 11 10 8 13 12 11 9 11 14 15 14 14 15 18 19 20
18 24 21 21 19 18 14 9 9 13 17 16 14 17 12 11 11 13 17 11 16 13 5 11 10 12 10 8 7 9 11 11 11 10 11 12 13 15 17 19 21 20 19 20
21 19 17 14 15 15 13 15 17 17 16 14 10 15 14 20 15 16 7 14 11 16 16 16 10 14 13 10 9 11 13 11 12 12 13 15 16 15 16 18 19 19 21 23

GFSNW_500_spd_003.txt.gz
Wind_Speed
91 90 91 90 92 92 91 82 80 76 61 62 64 64 67 69 71 67 68 67 66 58 48 51 46 52 40 29 45 43 41 38 41 36 33 35 39 44 54 47 51 47 42 36
89 89 89 88 90 88 82 80 75 60 65 64 63 65 71 75 77 76 72 75 70 64 58 59 58 55 47 43 41 38 39 41 38 38 32 36 42 42 47 54 44 50 48 45
89 89 89 85 84 80 76 68 65 57 61 61 64 68 75 81 80 80 81 80 77 67 64 63 62 56 52 42 51 44 44 36 41 37 36 30 33 40 44 47 57 53 52 41
85 78 72 68 64 60 57 54 54 59 61 54 61 72 73 73 82 82 81 82 76 73 66 64 64 58 47 55 53 46 46 44 37 40 33 25 32 34 40 48 49 55 48 44
60 55 50 50 48 46 43 40 40 47 52 56 55 44 51 63 68 70 82 74 74 67 69 60 57 50 50 51 42 50 47 44 38 39 31 34 31 32 37 38 47 51 50 49
44 43 40 42 41 37 34 32 35 37 36 41 47 52 53 45 52 65 68 63 60 72 57 58 62 54 43 51 43 41 48 41 37 38 34 31 34 39 37 38 40 42 52 55
38 35 35 33 31 29 28 26 27 27 26 31 35 40 47 46 50 49 57 63 56 58 65 76 69 63 66 65 62 53 44 46 40 36 32 35 39 32 32 36 38 39 42 39
29 27 27 26 26 26 25 23 22 22 25 25 27 31 35 40 46 43 46 51 55 56 65 70 69 67 69 65 60 59 58 54 43 36 37 36 34 28 34 37 38 37 37 39
25 23 22 23 22 20 21 18 20 19 20 20 22 25 20 26 39 44 40 41 38 52 56 60 65 65 62 58 53 53 57 53 47 35 41 41 31 40 28 36 45 41 40 33
20 21 21 21 20 19 19 19 11 20 19 16 22 24 23 20 18 29 21 32 33 37 51 60 56 52 52 54 57 58 59 57 55 50 38 33 41 40 33 37 31 31 39 41
17 18 17 15 14 15 16 16 16 17 15 14 18 25 27 26 25 23 17 25 27 32 28 35 53 39 48 43 41 56 57 58 56 45 42 41 42 40 39 40 38 34 31 29
16 14 13 13 18 15 12 11 16 14 16 14 15 26 25 22 21 22 26 26 26 36 22 31 41 31 38 41 36 38 54 58 52 35 36 45 47 46 36 33 33 28 27 34
12 11 8 10 8 6 5 6 8 10 10 13 14 22 24 23 22 19 19 25 26 40 35 40 41 38 32 50 34 34 48 41 42 39 48 49 48 40 35 34 32 30 33 34
8 6 5 4 5 3 2 4 5 5 6 11 14 18 22 23 22 20 18 18 24 39 37 44 48 42 20 55 38 44 38 50 45 58 60 53 51 39 29 31 33 33 34 36
8 6 4 3 3 5 3 3 5 4 3 11 12 15 17 17 22 23 22 20 22 38 36 48 51 46 29 51 33 61 31 43 30 37 49 47 39 33 30 30 34 39 40 34
9 8 7 8 9 9 10 6 6 5 10 14 16 16 17 21 22 23 22 20 24 37 35 47 44 44 27 41 38 57 36 37 51 51 31 29 32 31 29 27 30 35 40 39
14 13 11 11 11 10 7 8 6 9 13 17 16 15 13 14 15 18 21 20 33 33 24 33 32 30 34 37 27 45 44 35 32 29 33 32 27 26 31 30 30 36 44 45
15 16 18 14 8 11 11 10 11 12 12 12 12 18 13 10 6 14 16 21 33 16 33 31 10 8 28 35 32 31 31 33 28 31 31 28 29 33 34 33 34 37 51 42
18 18 15 13 17 16 12 17 19 15 13 14 18 13 9 22 5 7 16 21 18 29 31 23 8 6 22 31 30 28 28 29 28 30 31 32 30 24 28 37 39 49 53 50
16 15 16 15 16 20 27 23 18 14 10 6 7 12 11 19 14 18 25 18 16 22 31 13 5 5 10 32 27 30 32 30 29 29 27 32 26 25 25 44 33 23 45 47
20 19 21 22 24 21 21 21 19 17 15 16 9 11 18 22 23 27 20 12 10 28 11 6 7 3 12 29 29 28 30 30 29 24 19 17 20 23 24 29 24 18 18 31
23 22 22 21 18 23 22 19 19 18 10 9 6 16 20 25 31 20 20 21 19 19 13 13 15 8 6 18 22 26 28 29 27 20 22 16 23 27 25 23 29 33 30 28
22 20 19 22 28 23 23 23 20 9 10 10 15 19 24 29 16 16 12 4 13 26 10 19 20 15 13 15 15 23 24 19 27 33 29 28 31 22 21 25 30 25 20 17
19 19 19 20 19 17 16 14 12 6 7 10 13 13 11 16 15 19 25 17 19 12 18 20 13 12 6 6 11 6 9 15 26 27 27 32 33 21 18 16 20 25 22 16
19 21 17 17 14 10 8 10 10 12 14 21 19 15 14 15 24 11 14 14 11 11 13 10 10 11 10 6 4 4 2 10 12 22 26 26 21 18 13 11 13 15 18 22
14 17 13 11 10 8 8 10 12 14 17 16 11 13 14 12 11 13 15 14 16 18 15 13 8 10 9 5 5 1 2 4 9 10 8 17 15 17 17 17 16 15 17 20
15 12 11 10 10 11 12 15 14 12 15 13 12 14 16 12 15 16 18 17 13 11 16 17 14 9 8 6 4 2 1 1 2 5 7 6 8 10 14 16 15 17 19 20

GFSNW_500_spd_006.txt.gz
Wind_Speed
88 90 91 91 92 91 90 88 84 72 75 69 67 68 63 59 57 65 69 68 67 67 61 48 45 44 43 44 34 39 43 39 45 41 33 34 38 39 43 52 49 51 47 43
96 97 96 96 95 92 88 83 81 62 70 78 69 63 60 62 63 69 72 75 76 69 66 67 61 47 42 37 41 42 39 45 41 44 40 35 42 40 39 47 50 47 52 53
98 94 91 87 83 77 73 70 65 58 55 63 65 61 61 66 69 75 77 74 77 77 76 69 67 62 52 47 39 39 46 44 49 50 47 35 37 41 40 43 47 57 51 43
85 77 69 65 62 55 51 51 52 50 56 49 40 48 61 70 76 76 71 82 81 76 78 76 75 70 59 54 47 46 49 55 46 46 40 30 35 36 40 43 45 50 52 47
67 56 48 48 49 43 39 38 40 41 42 41 47 50 35 50 71 63 64 73 78 77 88 76 84 80 64 58 52 45 54 58 54 47 39 40 34 35 38 39 43 42 51 45
45 38 35 33 34 33 29 27 31 33 28 30 35 43 56 34 38 48 63 68 66 72 81 84 84 85 84 78 62 51 45 56 58 57 47 35 40 45 35 36 36 38 39 54
30 26 24 23 22 23 22 22 22 21 21 25 26 30 37 51 61 53 45 54 63 52 69 80 81 81 85 77 64 55 51 56 54 53 38 42 53 36 36 36 34 33 35 38
24 20 17 19 19 19 20 20 20 20 22 23 22 25 26 30 36 43 59 44 52 52 52 64 75 75 67 65 63 56 46 50 52 47 41 45 39 32 33 37 42 39 35 37
22 20 17 18 19 19 19 21 19 21 16 15 21 18 21 25 27 30 35 36 37 46 50 53 64 69 65 65 68 63 55 52 53 50 50 50 42 36 47 50 46 45 47 45
20 17 17 18 18 17 18 18 18 22 17 14 20 17 18 19 22 22 26 35 37 32 40 53 38 63 64 61 59 64 60 56 61 57 54 47 38 45 43 46 42 41 43 44
21 19 18 16 14 12 14 15 17 20 21 14 17 18 17 25 21 19 13 17 27 30 35 46 40 56 60 56 59 54 62 62 62 51 43 41 46 41 24 43 45 37 40 42
19 16 14 14 13 15 15 14 13 17 16 12 19 14 15 22 23 23 17 16 25 24 29 37 49 49 59 52 44 50 67 65 60 54 55 40 35 50 47 49 45 39 38 37
16 13 11 9 7 6 4 5 7 9 12 16 16 12 13 25 27 27 36 21 20 20 26 27 48 41 48 62 53 60 61 49 42 45 47 39 54 52 49 45 45 44 44 45
15 12 10 8 6 2 2 1 2 5 6 6 6 6 13 20 22 21 20 23 27 27 31 32 35 43 34 40 57 50 58 45 38 34 46 55 51 54 55 53 41 40 38 35
14 13 12 10 7 4 4 6 7 5 7 1 1 5 12 17 17 13 13 20 25 37 36 35 35 41 30 29 42 48 49 49 46 45 52 55 54 52 48 40 38 34 33 38
19 17 15 15 13 12 10 6 6 5 8 8 10 12 13 14 12 9 9 10 21 39 37 38 41 27 22 34 48 43 47 46 43 53 59 64 57 50 45 37 38 35 31 38
16 14 13 15 13 11 12 10 11 10 9 8 10 12 11 10 6 2 5 6 12 32 27 28 31 17 20 33 25 35 37 54 53 49 26 38 47 43 39 38 37 29 31 36
24 21 20 17 15 15 18 18 15 13 11 10 10 11 15 19 19 12 4 12 21 19 15 18 27 4 20 22 27 17 21 37 18 26 24 24 40 44 34 28 29 31 32 31
20 19 17 16 20 23 24 24 23 19 15 15 13 7 22 5 15 5 16 27 19 23 20 24 16 15 13 24 22 27 32 12 27 14 15 24 29 33 32 31 29 31 31 32
22 22 21 20 24 25 19 18 21 22 20 16 11 12 22 20 12 25 21 18 21 24 32 14 9 3 4 19 22 23 21 20 19 21 22 24 26 25 24 23 23 23 23 27
25 23 26 25 23 21 23 27 25 22 28 24 10 8 18 11 16 18 16 14 17 16 14 8 6 12 12 18 22 24 24 24 24 21 21 23 22 23 19 19 28 30 32 32
31 29 29 33 28 31 30 29 26 32 16 12 14 18 31 24 25 22 15 10 12 10 14 4 7 13 20 20 21 24 23 23 23 16 21 17 17 17 12 13 13 21 28 29
26 22 21 36 33 31 29 33 24 21 19 18 21 22 18 19 25 22 16 15 11 6 17 24 25 25 23 15 17 10 9 17 17 20 15 12 8 11 15 14 13 17 14 23
13 13 14 22 24 22 25 28 29 24 16 10 6 7 30 13 15 20 17 18 20 28 26 26 23 22 17 17 12 8 13 12 15 14 18 22 17 15 18 18 16 21 24 26
10 8 13 15 16 18 18 26 26 17 22 14 13 14 17 19 16 21 29 25 24 22 22 20 22 20 17 14 11 11 10 9 13 16 15 15 18 18 18 19 19 20 19 15
9 10 8 10 12 15 14 17 20 13 24 20 17 15 20 27 23 28 29 24 20 19 19 17 20 14 14 18 14 11 7 8 11 13 16 26 24 19 17 14 11 11 14 15
13 7 6 9 11 13 11 13 18 16 20 22 19 20 29 33 30 23 27 29 22 17 13 15 12 12 9 9 8 11 7 6 5 4 6 7 16 21 16 18 19 20 19 20

GFSNW_500_spd_009.txt.gz
Wind_Speed
87 88 88 88 88 85 86 84 81 66 64 66 68 67 64 65 64 63 66 69 70 68 67 67 66 64 50 35 32 38 41 41 46 46 43 42 39 40 40 47 41 46 45 41
92 94 94 94 94 93 91 87 81 62 64 68 63 64 63 67 68 70 73 75 76 73 73 75 73 69 57 49 49 42 37 48 45 48 49 50 47 41 42 43 44 45 44 37
90 90 88 85 83 81 78 77 69 56 54 59 63 66 71 72 74 77 80 84 83 83 82 83 79 78 70 62 62 60 52 52 57 56 54 50 53 48 42 44 48 44 48 40
74 71 67 64 63 59 55 51 51 47 40 42 52 56 62 66 69 75 79 87 90 90 92 89 88 85 83 74 69 64 64 63 59 60 52 47 52 48 43 46 45 47 40 46
61 56 51 47 36 29 29 29 28 29 26 29 42 43 49 54 51 62 72 71 78 85 93 94 94 93 90 85 78 72 63 64 59 62 58 51 51 49 43 42 40 42 41 42
48 42 32 25 21 21 19 18 19 20 19 25 30 37 44 43 50 41 54 60 71 66 76 86 97 96 96 92 83 75 70 68 63 70 62 52 50 59 51 40 38 36 44 40
36 32 24 20 18 18 15 17 17 17 14 21 26 28 36 52 49 53 39 50 53 67 64 71 82 95 97 96 86 73 75 67 64 69 63 57 59 54 50 45 41 40 40 37
34 29 24 19 18 16 16 18 18 20 16 17 21 24 28 27 33 44 57 50 43 46 66 66 62 72 91 91 89 75 74 62 61 64 66 65 60 55 49 45 44 41 44 41
30 27 23 18 18 17 18 20 20 20 17 14 15 19 20 22 20 24 37 49 55 51 35 57 60 56 71 91 89 75 70 57 49 60 59 66 63 50 48 52 49 47 50 49
27 24 23 21 19 16 16 18 17 18 20 13 14 14 16 18 17 14 22 22 23 33 42 34 53 48 59 70 89 67 57 51 50 54 56 60 64 54 45 49 53 56 57 55
25 23 22 18 17 14 13 15 16 16 18 14 19 18 13 15 17 16 17 17 19 24 26 30 45 44 48 56 79 68 66 61 51 42 46 53 57 50 55 57 57 57 54 49
23 22 20 17 16 13 13 13 10 12 14 13 19 15 12 14 16 20 15 14 15 23 19 20 25 44 41 45 67 77 59 58 50 52 51 53 58 51 53 62 61 57 52 54
24 21 19 16 12 10 7 5 7 8 6 9 13 13 12 11 12 17 12 13 10 21 20 14 24 30 36 41 57 63 71 62 50 63 64 47 56 56 65 61 55 51 45 53
26 23 20 18 13 11 9 9 9 9 9 6 5 2 3 8 9 9 13 10 10 22 5 23 30 29 31 40 42 62 63 64 49 54 65 48 34 46 60 60 65 40 46 39
26 24 22 20 17 13 12 12 13 13 11 5 5 6 7 9 8 10 5 9 17 12 9 24 27 30 32 35 37 62 54 60 54 55 42 39 50 66 31 44 33 51 52 43
28 26 25 22 19 17 17 17 18 17 16 13 12 12 10 9 11 10 9 14 13 16 16 21 28 34 32 29 40 48 61 66 57 55 57 64 64 61 62 60 51 43 39 40
29 25 22 21 22 21 20 19 18 16 14 11 13 9 10 17 12 9 6 9 5 7 16 24 21 26 41 21 28 51 58 54 57 62 63 61 57 55 58 59 53 43 42 36
28 27 26 26 23 18 17 17 17 19 14 13 12 19 18 22 25 14 12 6 6 8 10 19 28 15 20 10 22 18 29 28 43 49 58 55 44 33 46 52 44 45 40 31
30 25 26 25 27 23 22 23 28 28 24 20 14 12 11 7 11 19 19 23 19 8 25 31 16 15 4 9 18 15 18 29 44 29 40 50 33 23 40 50 43 34 26 27
37 37 36 34 39 40 40 32 38 27 26 17 23 31 26 25 23 18 16 21 22 21 21 16 9 5 10 11 12 15 21 25 27 17 10 27 36 27 28 39 42 34 26 28
32 34 39 37 31 32 44 44 37 27 21 14 15 13 17 14 11 15 19 20 21 22 11 10 13 18 18 13 11 10 14 18 20 19 15 15 25 27 18 17 20 27 31 32
27 29 32 33 27 33 40 44 33 25 20 12 18 22 14 10 15 18 17 19 19 12 12 16 26 21 21 20 15 16 10 13 13 14 16 18 20 19 21 23 25 30 27 23
21 22 25 23 20 30 36 50 33 15 13 14 25 25 13 21 19 14 16 19 15 23 33 38 34 24 22 25 15 13 11 6 10 14 10 12 14 16 21 13 15 18 15 17
18 19 20 20 23 39 43 32 38 20 19 17 21 13 15 18 20 22 27 28 32 29 35 36 28 24 22 21 17 19 15 13 10 10 4 7 19 9 9 11 12 13 10 10
15 16 19 20 22 32 33 30 28 25 24 26 24 17 17 21 31 37 36 36 35 32 30 27 20 21 23 17 13 13 13 10 9 10 8 7 11 9 8 10 9 11 11 13
10 14 18 19 18 23 29 28 28 28 26 29 23 22 25 26 29 27 27 28 26 27 22 22 21 19 22 21 18 13 7 7 9 11 19 14 12 13 11 12 12 12 12 15
20 17 18 17 19 22 27 25 24 24 21 28 31 35 39 33 25 29 24 24 22 20 17 18 14 16 13 10 23 14 16 14 11 8 7 9 7 14 17 19 17 15 15 14

GFSNW_500_spd_012.txt.gz
Wind_Speed
82 83 84 84 82 82 80 78 74 71 71 66 68 67 67 70 71 69 72 73 72 70 70 69 69 63 59 59 60 63 52 43 50 49 44 44 47 44 42 44 40 38 34 26
84 83 83 84 84 84 83 80 73 71 67 67 64 65 70 74 76 78 77 79 79 79 76 76 75 72 69 68 67 68 61 62 54 56 56 55 57 50 46 45 44 45 44 31
77 70 66 66 68 67 68 66 59 51 52 55 60 61 67 75 79 84 85 82 85 85 83 81 82 82 75 72 70 72 65 68 68 66 56 54 57 53 51 50 52 47 43 42
56 52 48 45 45 44 42 38 35 32 30 39 51 57 62 71 78 83 85 87 86 89 90 87 88 88 83 79 76 74 73 74 73 71 64 53 56 55 55 55 52 54 39 44
41 38 38 41 39 36 31 26 21 15 11 25 37 42 44 54 60 69 72 82 81 88 90 93 93 95 89 86 80 76 75 78 77 76 70 64 59 60 60 57 54 52 48 45
36 34 34 33 32 28 24 22 18 12 7 13 24 34 41 41 39 43 52 55 68 75 79 88 94 98 99 90 86 83 80 82 79 76 70 61 56 67 65 61 58 54 53 44
38 34 32 29 28 23 20 20 17 15 11 11 15 24 33 39 46 31 43 49 53 54 61 73 88 92 101 99 90 85 86 80 79 77 68 66 71 63 63 63 59 55 56 48
36 31 28 24 22 21 21 21 19 17 15 13 16 17 23 29 35 40 48 40 35 46 44 54 67 78 93 102 98 92 80 74 75 79 75 71 69 68 61 62 58 52 56 55
31 26 23 22 21 21 21 21 19 18 16 12 14 14 18 20 22 25 29 32 40 45 51 33 39 59 68 87 97 96 86 74 65 53 73 73 74 68 61 53 59 57 58 57
29 25 24 21 18 17 17 19 17 15 13 13 15 14 11 15 16 19 22 26 27 25 35 51 35 34 43 65 81 92 83 78 62 58 53 65 77 72 54 52 58 62 60 56
32 28 25 22 19 17 15 15 15 18 12 13 14 15 15 13 16 16 15 14 14 13 16 23 40 31 35 46 70 81 75 76 64 66 44 53 63 62 63 55 53 59 59 56
34 32 29 24 19 18 16 15 13 12 9 12 12 13 13 16 15 12 11 13 14 19 22 18 25 33 32 30 57 56 61 69 72 53 35 55 60 57 51 59 53 58 60 58
35 32 29 27 22 20 17 15 14 11 8 10 9 9 9 11 8 2 10 13 11 10 11 7 13 17 25 26 45 50 51 60 68 64 44 46 67 69 56 66 62 61 62 60
38 35 33 27 24 21 21 20 18 16 10 11 9 4 2 8 5 3 2 9 9 10 10 16 7 19 24 14 37 41 41 41 62 66 51 45 69 68 65 65 66 64 62 62
34 33 31 27 25 25 23 24 23 21 18 12 13 16 12 9 5 4 3 2 5 9 9 12 5 9 18 2 31 28 39 38 38 61 50 49 58 66 70 61 59 66 63 56
34 31 28 25 24 23 22 22 21 19 17 14 12 18 14 10 9 8 5 6 2 7 2 13 10 10 18 15 24 26 30 40 40 60 38 48 52 53 58 45 55 61 51 58
33 31 35 33 30 27 24 24 21 20 15 10 8 9 17 13 9 8 1 2 4 6 14 19 13 11 17 13 35 18 32 42 38 62 48 40 50 52 40 54 33 64 57 56
45 42 39 35 31 28 31 29 28 23 16 12 15 16 13 12 6 6 1 3 8 15 17 26 17 8 16 21 28 29 28 34 43 47 51 39 50 50 30 29 40 37 41 45
39 44 28 40 51 37 37 37 29 24 23 22 26 19 12 13 17 11 13 18 18 20 24 20 18 19 15 10 11 21 25 33 38 37 57 48 39 47 39 36 34 40 47 46
34 38 28 40 50 40 35 29 32 23 21 26 31 23 19 23 26 27 25 23 21 17 13 15 9 9 12 19 12 20 22 34 34 35 45 51 50 46 39 33 35 33 42 39
31 33 35 32 41 53 46 32 32 25 31 28 21 19 16 16 17 20 21 21 19 13 9 10 13 13 14 18 21 26 25 27 28 26 28 39 44 45 40 53 50 35 35 28
24 30 24 28 40 51 49 30 30 31 26 29 20 17 14 18 24 25 23 21 16 15 15 19 19 18 16 20 19 25 25 25 26 21 20 22 19 28 38 43 55 37 35 35
23 24 23 32 38 44 36 27 29 28 29 24 22 20 17 17 23 25 28 31 35 36 30 30 27 23 23 21 19 23 19 18 19 18 18 17 10 12 14 19 20 18 20 28
18 21 33 35 42 39 32 27 29 22 20 19 18 17 18 22 31 44 43 40 37 34 31 32 29 26 23 22 23 20 12 15 13 11 20 17 14 11 13 17 14 14 16 17
13 19 32 34 34 31 25 28 29 25 23 19 21 24 30 35 38 36 34 33 36 29 26 22 22 20 21 29 31 28 20 17 16 10 13 11 8 6 8 10 12 10 12 15
18 19 24 25 24 24 22 28 31 33 30 24 26 27 30 34 33 31 31 30 28 24 17 25 24 23 20 15 10 9 9 13 21 19 11 9 5 6 6 5 5 6 10 9
19 20 19 21 24 24 25 25 31 25 32 25 22 33 29 28 29 27 24 23 19 16 19 14 19 21 20 19 20 18 17 11 8 11 7 5 5 8 10 13 13 14 15 15

GFSNW_500_spd_015.txt.gz
Wind_Speed
86 87 86 84 82 78 79 78 77 77 74 71 70 70 72 75 77 78 79 78 74 73 72 71 69 66 68 65 63 62 59 61 55 54 46 42 47 45 47 49 40 36 36 34
79 72 67 62 59 57 56 57 61 67 66 63 65 67 68 71 75 78 83 84 82 79 78 76 76 74 72 70 69 68 65 65 60 57 56 58 58 54 51 45 44 46 42 31
56 52 47 42 39 38 37 38 40 37 41 42 51 56 62 67 73 79 82 86 88 87 85 84 83 82 79 76 75 74 72 71 67 64 60 58 60 59 54 50 55 44 44 34
52 48 46 43 38 37 35 33 31 29 22 27 37 46 54 62 68 73 79 84 89 90 88 87 89 90 87 82 81 81 79 77 75 70 67 66 64 62 56 58 54 55 38 42
48 45 42 40 36 33 31 29 26 23 19 17 26 34 39 47 55 61 59 70 80 86 88 88 86 92 93 88 84 83 84 82 80 78 74 69 71 68 63 61 57 56 48 49
46 42 37 33 30 26 25 24 24 20 12 16 17 21 28 33 31 36 42 50 61 62 81 86 87 88 93 92 86 86 86 86 85 84 79 76 74 70 67 62 61 59 56 46
45 39 33 29 24 21 21 22 22 21 15 15 14 17 18 22 30 33 18 29 41 51 62 72 82 88 92 95 93 86 88 89 88 87 81 81 72 67 67 66 65 62 60 52
43 41 34 29 26 22 22 23 22 22 18 15 17 18 16 16 22 24 38 43 28 22 34 48 56 72 85 93 98 95 88 90 90 88 85 84 80 74 70 65 65 64 64 59
39 38 38 31 27 22 23 22 19 20 16 13 14 16 16 12 14 18 21 27 36 44 43 40 46 56 63 79 91 98 94 88 89 87 87 86 83 77 75 68 67 61 63 62
43 38 36 32 28 24 23 21 16 15 13 14 14 12 13 13 9 10 14 18 22 25 29 30 32 41 44 58 69 85 89 98 92 92 89 85 81 74 72 64 70 66 62 62
46 42 37 32 27 24 22 19 17 15 10 13 12 10 11 11 10 7 11 16 21 21 17 17 19 20 34 37 42 55 70 81 90 89 87 78 75 69 55 48 60 67 61 58
46 43 41 37 33 30 26 23 20 16 14 15 11 9 7 9 13 8 9 12 15 9 11 11 7 16 30 24 23 30 50 66 80 76 85 81 62 58 60 49 40 47 59 59
42 38 40 38 34 29 25 22 19 15 13 15 11 9 2 3 3 5 4 2 5 7 5 9 8 12 14 25 28 23 32 46 53 51 62 80 57 55 55 56 52 46 44 56
49 45 38 34 31 31 28 26 22 22 16 14 13 14 14 14 11 5 5 1 2 6 5 3 8 12 15 18 24 18 29 38 47 49 41 58 59 54 54 60 61 59 57 51
44 36 41 38 34 29 28 27 26 24 19 15 17 18 16 13 12 9 6 6 12 7 1 3 5 10 18 21 16 17 30 25 38 38 52 39 60 48 59 63 60 62 64 65
56 36 49 34 33 28 25 20 20 16 16 14 13 13 11 7 6 14 14 12 5 2 1 11 9 9 11 12 8 14 16 27 27 43 47 50 52 35 31 54 51 63 64 66
46 46 44 33 36 33 29 27 23 20 16 20 17 12 11 11 12 9 6 3 3 2 9 7 4 3 5 7 10 12 27 36 35 44 49 55 58 34 53 61 60 56 63 65
42 38 43 31 31 30 30 27 25 23 22 25 23 18 16 14 16 11 7 8 7 5 14 10 8 10 7 14 19 9 24 27 25 36 61 59 52 24 28 44 55 58 58 59
36 35 36 27 27 31 34 33 33 37 28 29 26 17 20 22 16 16 15 14 13 11 13 15 14 6 6 11 10 19 17 28 29 29 57 62 62 28 31 36 37 41 45 51
31 31 28 23 23 25 26 32 32 30 33 26 21 21 20 18 22 23 18 11 14 16 14 14 12 5 10 16 10 15 25 23 20 12 44 66 70 34 40 30 34 38 33 42
25 29 25 19 28 34 35 32 32 34 31 31 26 23 23 25 25 24 24 21 17 15 13 14 15 19 13 10 27 24 24 24 21 15 16 54 46 34 34 40 44 38 29 28
25 23 18 24 33 39 37 36 29 25 24 24 21 20 18 22 21 20 20 20 22 24 22 25 26 21 25 23 34 22 23 18 20 15 17 20 33 41 39 32 31 34 34 34
21 20 23 29 39 38 34 30 25 23 27 23 25 25 31 34 37 41 38 36 31 37 38 37 29 26 23 24 26 24 20 22 23 20 17 13 11 12 19 23 29 32 40 42
12 18 27 34 38 35 30 24 24 24 22 26 35 36 35 34 35 37 36 35 38 36 35 35 30 24 23 26 22 21 25 29 22 20 19 16 16 12 11 15 19 25 31 24
11 20 27 30 32 27 33 26 26 24 21 26 28 29 31 29 32 32 36 39 37 33 32 23 27 25 26 23 21 16 16 19 15 18 15 13 13 11 9 12 12 14 16 16
15 26 26 27 23 31 29 28 26 24 21 24 22 22 25 27 29 30 35 29 29 27 22 23 19 28 23 16 18 18 11 12 17 13 8 9 12 12 15 14 15 12 10 12
16 19 20 25 27 25 24 29 33 33 26 17 13 12 17 20 23 23 25 23 18 17 16 16 17 16 20 20 18 14 10 7 7 6 6 5 5 3 7 8 9 8 8 9

GFSNW_500_spd_021.txt.gz
Wind_Speed
54 54 57 61 63 58 51 42 38 33 31 30 32 34 44 53 61 70 73 76 77 75 72 66 63 64 64 64 60 57 57 54 53 53 51 47 45 44 43 45 36 31 31 28
59 59 59 62 61 56 53 37 33 29 25 23 24 25 28 32 46 62 71 76 79 77 76 70 68 66 67 67 66 62 61 61 57 54 56 54 53 52 52 48 47 45 37 26
57 60 60 61 59 56 50 43 29 27 23 20 18 18 22 25 30 49 62 69 76 77 78 75 72 70 71 70 70 68 67 65 61 59 58 56 55 55 54 50 53 43 39 31
64 62 61 56 56 52 47 43 36 26 24 22 21 16 17 18 20 30 45 55 66 72 74 76 76 76 76 75 75 73 70 69 67 64 63 62 61 59 58 57 53 52 38 37
67 62 58 56 53 47 46 41 38 32 23 20 19 17 13 12 11 12 30 33 32 53 69 77 77 78 80 80 80 78 77 74 72 70 67 66 65 62 63 60 56 53 44 43
66 64 57 55 52 51 44 42 36 33 24 18 14 16 14 12 9 10 7 31 41 30 31 63 78 78 81 82 83 82 80 79 77 74 72 70 70 65 63 60 58 55 48 44
65 61 58 55 53 51 49 42 40 31 25 21 18 14 13 12 12 9 11 14 28 41 44 37 59 76 79 83 84 83 83 82 80 78 76 76 71 70 67 65 61 59 53 49
64 58 53 56 51 49 48 47 42 35 26 26 22 16 13 11 10 8 9 10 20 23 30 43 45 47 72 80 85 86 85 84 83 82 80 77 76 73 71 67 62 62 58 52
58 53 52 48 50 48 44 44 44 39 29 24 17 15 13 10 7 9 8 8 14 19 20 19 27 42 53 64 78 86 90 88 87 87 84 83 76 73 73 70 67 64 60 55
54 53 53 51 46 46 43 41 39 37 34 25 21 15 10 7 5 6 5 3 7 19 21 17 16 18 27 45 60 73 85 94 93 89 90 88 82 78 76 73 70 65 64 60
49 53 53 50 50 43 42 37 37 32 29 28 23 18 11 8 6 5 3 2 1 4 11 14 18 19 25 34 42 54 72 86 95 96 96 94 85 80 79 76 73 68 64 61
48 51 48 46 44 44 41 37 32 30 25 20 20 19 16 9 5 1 4 4 3 2 4 7 9 12 17 20 26 43 57 72 83 96 101 95 92 86 81 79 75 70 67 63
45 50 45 45 42 42 38 37 33 27 24 22 19 18 17 12 10 7 6 4 3 3 2 4 7 7 8 9 15 26 37 48 69 82 95 96 98 93 90 84 78 74 70 66
41 48 47 43 38 41 36 31 33 31 29 27 24 20 20 16 13 10 9 6 7 7 5 5 4 5 6 7 7 8 21 33 47 64 74 85 92 94 94 88 83 77 72 69
38 45 43 42 41 37 33 27 28 31 30 27 26 19 17 15 15 16 15 12 11 10 6 2 1 4 5 3 3 3 11 19 35 44 54 70 73 89 94 89 85 81 76 74
35 39 40 39 40 33 31 30 34 36 30 27 26 25 19 15 14 13 15 17 16 15 13 10 8 11 11 6 1 7 18 19 21 29 42 52 58 68 75 79 80 76 77 71
32 36 37 34 34 28 28 29 30 34 33 29 26 22 18 19 20 20 20 17 16 14 13 13 15 17 22 11 5 11 11 14 18 23 34 41 46 45 48 47 48 52 54 49
28 33 34 33 29 24 22 24 23 27 31 28 28 24 21 19 18 18 17 17 19 18 17 17 19 20 19 16 18 9 10 10 11 19 32 45 45 43 35 30 41 50 50 49
26 30 34 30 23 17 16 17 22 26 29 27 25 25 25 24 22 20 20 20 22 23 22 24 20 20 17 16 13 8 3 6 0 11 32 48 51 44 42 45 47 51 50 58
29 34 29 14 18 15 15 17 26 30 31 28 26 27 28 27 25 29 36 38 30 33 31 25 14 15 23 22 21 21 7 5 7 26 40 51 40 37 24 49 38 47 51 55
30 34 28 13 15 19 27 34 34 35 32 34 32 30 28 30 33 31 33 37 42 39 37 39 30 25 24 30 30 28 28 16 16 23 38 27 28 45 30 54 42 40 54 56
30 27 16 18 20 26 27 29 29 30 30 26 30 30 33 34 43 48 46 47 49 52 40 32 31 25 24 16 21 22 28 20 29 31 24 33 28 21 22 15 39 22 40 50
27 18 13 21 22 23 28 25 26 26 28 24 28 28 28 31 37 39 41 44 45 46 46 46 46 26 22 18 28 13 20 16 23 26 16 23 9 13 12 21 26 21 29 40
21 13 22 29 24 23 19 23 24 23 19 22 26 26 24 26 30 36 40 39 40 38 38 36 32 33 17 15 19 19 26 27 34 19 28 16 10 5 20 23 23 19 15 16
22 18 22 26 30 20 18 18 19 22 22 24 23 23 22 18 20 26 29 34 35 36 28 23 29 28 27 22 18 20 23 23 32 30 31 18 19 21 14 7 15 13 15 18
16 23 25 25 24 22 18 16 16 19 23 24 26 22 19 18 20 20 23 24 26 24 20 19 20 24 25 24 22 22 18 12 13 15 12 11 16 17 16 12 10 13 18 19
20 24 22 22 21 22 21 20 19 20 19 16 19 18 20 24 21 17 18 19 16 14 15 18 19 18 18 18 18 18 18 17 15 14 11 9 7 6 8 5 3 3 4 7

GFSNW_500_spd_024.txt.gz
Wind_Speed
51 56 64 57 55 54 52 54 54 52 43 27 17 18 21 27 33 49 61 68 69 69 70 64 63 64 64 63 63 54 54 56 58 54 51 52 47 42 41 41 35 31 24 18
54 60 67 60 57 54 52 51 48 43 40 26 18 15 17 22 26 31 47 61 71 70 68 67 68 68 65 64 64 62 62 58 56 56 57 58 55 49 49 45 38 35 32 29
50 58 67 59 58 54 51 50 46 42 36 34 19 15 14 15 19 22 30 48 62 67 65 69 72 72 70 69 67 66 62 62 60 57 50 53 56 54 54 50 46 42 39 36
48 57 66 60 63 53 49 48 47 41 36 33 24 17 13 14 14 17 22 24 38 60 63 70 70 76 75 74 71 69 68 64 64 62 64 61 59 58 56 55 49 47 41 38
48 53 61 61 57 50 46 45 46 42 36 30 23 18 13 11 9 10 12 21 21 22 57 67 71 77 78 79 76 74 71 70 69 65 62 63 64 61 61 56 52 48 43 40
47 52 58 57 56 49 43 40 42 44 41 27 21 16 15 13 9 10 9 15 35 27 29 54 71 75 72 80 78 78 75 75 73 68 65 64 68 64 62 57 54 50 43 41
43 50 56 56 55 50 42 38 38 39 41 31 23 17 13 12 9 9 10 7 30 32 29 33 59 73 78 76 80 80 79 76 75 73 74 71 66 65 65 60 54 51 49 48
39 48 55 53 53 52 44 38 34 35 36 37 29 24 16 11 9 8 11 10 10 33 34 28 35 52 75 79 79 80 81 79 77 76 78 69 72 72 70 66 62 59 55 52
39 45 53 52 48 50 48 40 35 32 30 33 35 26 19 13 11 10 7 9 7 13 24 21 31 21 37 72 80 81 79 82 80 79 78 77 71 73 75 74 65 61 60 53
38 44 51 48 46 48 50 45 43 32 31 26 30 29 20 13 10 9 7 3 2 7 13 16 15 25 41 43 63 77 83 83 84 82 83 80 78 81 78 73 62 67 63 59
35 43 48 44 46 40 44 48 43 37 32 32 27 30 22 14 10 8 5 3 3 6 12 15 15 13 17 38 46 53 78 90 86 86 87 87 83 81 79 74 76 68 68 63
32 41 43 41 43 42 40 37 30 30 32 29 25 24 21 19 15 10 9 4 0 5 7 9 11 13 15 18 31 45 62 79 88 89 94 88 87 84 82 77 79 70 67 60
30 38 40 41 39 37 36 35 27 26 29 25 20 20 21 20 17 14 11 10 5 4 2 4 5 8 10 11 19 32 49 60 80 90 92 94 89 84 84 82 77 75 71 65
28 35 36 37 36 33 31 35 31 25 22 26 24 20 20 16 17 17 14 12 10 9 7 4 3 3 3 8 12 18 28 44 59 77 87 91 93 91 87 83 82 77 74 69
25 31 34 33 33 30 30 30 32 29 27 24 22 23 21 20 20 20 17 15 15 11 6 3 2 2 3 4 7 9 17 24 42 56 65 80 87 90 89 85 84 78 75 71
24 32 33 32 28 28 30 28 30 29 29 28 25 23 21 23 23 21 19 19 18 18 16 14 13 14 10 5 6 5 3 4 20 35 52 66 74 84 86 87 85 82 79 75
26 29 31 27 26 29 30 28 24 27 27 29 28 27 24 22 22 23 20 19 19 20 18 15 16 16 16 5 3 10 10 7 6 14 39 49 57 65 77 81 79 79 77 73
26 26 26 26 28 30 27 25 20 21 25 25 28 28 28 28 29 30 27 27 27 25 23 23 20 12 14 10 8 10 13 15 13 14 14 33 53 58 65 66 69 68 66 65
31 27 22 24 24 22 23 22 26 27 26 27 28 26 26 29 29 27 30 32 34 32 38 38 39 37 29 26 26 16 18 15 14 14 17 28 49 54 50 48 46 46 46 46
28 27 19 15 19 21 19 16 26 29 34 32 31 33 37 44 46 48 56 55 53 49 44 39 37 33 27 33 29 20 3 7 5 4 17 22 38 45 44 44 39 42 30 33
36 30 12 14 18 15 16 24 30 32 30 32 36 35 34 36 41 41 46 50 47 49 51 49 42 36 33 33 37 34 26 23 19 13 12 33 44 49 38 38 35 46 48 53
38 35 10 12 11 19 20 25 27 30 28 26 32 33 31 31 32 40 40 42 45 44 48 52 50 44 38 27 26 26 19 19 39 29 27 32 19 29 33 43 35 34 48 53
25 27 10 4 16 20 21 20 24 27 26 26 26 27 27 27 31 31 34 36 39 37 41 44 41 40 44 32 19 19 20 21 20 21 20 14 18 26 25 20 13 28 29 35
22 14 16 21 19 17 16 14 15 19 23 24 25 24 20 23 20 21 27 31 34 38 39 38 32 32 33 36 43 37 27 19 18 19 23 18 20 21 22 19 28 24 28 36
13 11 15 17 17 18 16 14 11 15 17 20 23 22 21 25 22 22 23 24 27 30 31 29 28 30 29 29 27 30 32 32 35 31 23 21 30 34 32 29 26 23 21 23
19 20 21 21 23 22 20 17 16 16 14 14 18 20 19 21 21 23 23 19 20 21 20 19 21 22 23 24 22 21 16 15 15 20 26 21 16 18 18 14 10 12 15 16
17 17 14 14 16 15 15 15 15 14 15 16 15 14 17 19 21 22 21 21 21 19 18 18 18 18 18 17 17 16 17 17 16 14 13 10 13 15 11 9 7 7 8 10

GFSNW_500_spd_027.txt.gz
Wind_Speed
40 40 45 54 61 59 60 59 47 44 45 39 28 17 24 20 33 38 46 61 58 56 57 70 69 40 55 66 61 63 58 66 52 50 50 49 44 47 43 41 36 33 19 15
40 39 45 51 56 58 60 54 44 44 41 37 27 22 13 16 21 28 28 37 60 62 52 60 74 64 75 71 66 62 60 67 60 41 43 52 56 51 47 39 34 34 32 17
38 40 47 49 56 55 58 51 42 40 39 38 29 23 12 13 20 18 23 23 39 68 52 54 52 67 80 74 70 69 68 65 64 53 49 46 54 55 50 45 46 35 33 26
40 42 45 49 54 53 54 53 42 37 34 33 26 24 11 11 18 18 18 17 24 42 69 45 51 65 80 71 69 67 67 62 60 55 31 35 46 53 53 53 46 43 26 30
44 45 44 51 51 49 52 50 42 36 33 33 28 22 18 17 17 15 15 13 22 22 44 66 45 62 77 74 76 69 69 67 60 65 45 52 53 43 51 50 50 44 38 27
43 41 44 51 49 48 49 52 41 37 36 33 31 23 20 17 14 13 12 14 18 24 29 52 68 57 66 76 77 75 73 68 66 67 67 64 65 61 52 43 48 48 49 40
41 36 41 49 47 45 48 51 46 37 35 38 32 29 20 15 14 10 13 11 13 31 30 34 63 70 67 72 74 73 73 73 72 70 68 64 62 56 58 54 48 49 47 48
36 33 40 46 46 44 47 49 49 43 37 38 34 31 24 15 14 12 11 12 12 14 31 27 37 66 70 67 70 72 72 71 71 69 64 56 63 60 58 60 56 50 49 46
31 31 38 42 44 42 42 47 41 37 33 32 34 28 28 19 14 12 9 13 7 9 28 29 20 17 41 65 60 65 70 71 74 72 63 44 27 46 67 67 61 59 55 49
26 30 37 42 43 39 40 43 40 32 29 28 28 28 26 25 18 13 9 11 5 8 15 29 19 20 25 35 42 58 59 69 73 73 69 52 40 40 62 64 44 58 61 60
22 30 36 41 39 36 38 39 39 27 27 26 23 23 23 22 21 12 8 7 7 10 12 18 20 23 27 40 37 30 57 66 70 73 72 62 41 55 52 54 67 64 66 63
21 28 35 41 38 33 35 35 37 29 23 23 22 21 19 20 17 14 14 9 4 5 10 13 15 16 22 32 35 39 46 56 62 67 75 72 65 61 68 80 69 67 70 64
20 28 35 39 34 31 33 33 35 29 23 22 21 18 16 16 16 16 13 11 9 6 4 5 11 15 21 19 28 41 52 65 70 78 80 81 80 83 85 80 78 78 65 60
20 29 36 32 29 31 31 31 31 30 29 27 23 23 24 23 21 19 16 12 9 8 7 5 4 8 14 18 21 34 47 61 70 82 82 86 89 89 87 83 80 76 72 69
24 30 31 27 29 28 29 30 31 33 30 29 26 25 25 25 23 21 21 21 19 18 12 8 3 1 2 7 12 18 30 41 58 68 76 85 86 85 85 81 79 78 74 72
28 29 28 27 25 26 28 29 23 25 30 27 28 27 25 26 26 24 24 26 29 28 25 19 10 11 12 1 7 15 19 29 42 53 62 74 87 92 90 86 87 80 76 73
29 26 23 21 23 29 30 28 25 23 24 22 25 25 21 22 23 23 27 29 28 26 23 22 12 6 10 5 12 22 20 22 32 40 52 64 75 81 89 90 86 81 79 76
25 21 17 21 24 28 29 30 27 24 20 20 24 27 29 31 35 39 38 36 36 35 32 26 20 19 22 26 20 18 24 18 14 19 34 42 56 70 78 81 84 82 77 73
18 16 13 22 27 26 23 25 28 28 29 31 35 35 37 37 41 44 49 51 47 38 37 37 32 25 23 22 29 18 12 17 13 10 16 22 41 53 63 75 77 76 75 72
19 14 16 13 18 22 25 21 21 27 29 31 30 32 37 36 38 39 43 47 50 52 43 39 33 28 24 27 26 29 21 14 12 15 16 21 23 34 51 55 59 66 62 60
26 12 11 14 13 14 16 19 20 24 27 30 31 34 34 34 32 33 36 39 44 47 49 47 47 41 27 26 29 27 29 20 14 1 15 17 22 23 38 47 46 46 43 39
28 20 15 11 6 8 11 16 19 21 25 27 28 32 34 31 27 29 31 35 37 39 40 48 53 55 39 21 21 23 24 21 18 22 12 20 14 19 25 38 43 40 44 44
27 18 22 7 12 13 13 16 18 16 15 18 20 23 27 30 29 25 26 28 32 31 31 37 36 35 40 41 32 28 26 15 20 22 14 14 28 40 44 42 25 31 34 44
22 19 12 11 14 15 13 14 17 15 13 14 15 14 20 25 23 21 22 23 23 24 27 32 30 28 27 29 33 36 35 31 27 21 13 11 18 17 21 26 33 34 40 53
12 12 11 12 13 15 17 17 17 17 19 19 16 14 14 16 17 19 19 19 19 20 22 22 23 25 29 29 26 24 22 28 30 25 26 21 15 17 22 19 23 31 33 32
11 9 11 12 13 14 15 15 16 16 17 16 17 16 14 15 17 19 20 21 21 21 20 19 19 19 19 19 22 26 23 15 15 17 17 17 17 20 24 25 25 24 25 26
17 17 15 14 15 15 15 15 16 16 15 15 17 17 16 16 17 17 18 19 20 22 20 19 19 18 17 16 15 12 13 17 20 17 15 10 5 3 6 13 20 22 23 25

GFSNW_500_spd_030.txt.gz
Wind_Speed
42 43 42 42 41 46 52 51 49 53 45 41 36 28 33 24 17 17 38 47 49 49 54 61 59 64 63 54 55 56 61 61 47 36 42 43 48 46 43 42 38 34 21 16
43 41 44 41 43 50 52 51 49 53 47 42 37 34 27 16 13 20 23 42 49 60 43 57 58 59 63 66 62 61 57 69 56 42 35 39 49 50 48 38 35 37 33 18
42 42 44 35 42 51 50 45 49 47 41 39 41 36 23 10 17 21 17 24 30 56 63 40 57 59 49 66 69 70 68 70 68 60 52 40 47 45 44 42 40 36 36 23
42 42 42 32 40 48 49 46 50 44 38 32 37 34 20 16 18 22 21 24 16 31 56 56 44 46 56 63 75 70 67 65 71 55 41 29 43 45 45 47 40 40 26 31
41 40 34 35 41 45 45 45 49 39 39 34 35 33 28 21 22 20 14 13 19 21 34 44 50 42 50 47 68 72 70 64 68 63 52 43 42 38 41 42 43 32 31 23
39 37 29 36 42 45 44 42 47 37 41 35 34 29 28 22 21 15 12 14 14 22 26 40 63 37 34 45 63 70 69 68 74 69 60 50 44 43 40 40 41 38 41 29
38 32 32 35 42 45 45 42 45 35 36 36 32 31 25 23 18 15 12 10 13 18 30 36 65 35 29 44 56 68 70 74 72 64 61 51 44 47 45 37 40 39 40 38
36 29 32 35 41 46 42 40 43 36 32 36 32 31 28 24 20 15 14 10 15 15 18 28 41 60 34 39 50 68 72 73 72 68 64 58 45 59 51 46 35 33 37 48
34 26 31 35 41 45 38 37 40 37 30 31 32 29 29 20 21 16 14 12 12 8 9 21 20 36 32 35 38 56 68 70 70 67 57 51 43 36 56 48 49 48 53 53
29 26 28 36 42 40 34 36 38 35 34 27 28 28 26 25 19 17 12 11 7 7 6 20 20 37 31 23 29 49 58 65 66 60 65 45 47 35 48 52 57 63 63 62
26 24 29 38 38 32 31 31 31 31 31 28 27 28 25 24 23 17 12 7 4 7 7 21 25 20 33 36 24 30 48 53 64 62 54 48 43 49 47 55 58 70 69 67
22 23 32 35 32 30 26 29 35 32 33 29 25 27 29 28 25 19 15 11 3 6 11 22 23 20 26 42 34 25 32 45 49 62 60 43 36 51 57 58 62 57 66 69
20 28 32 30 30 28 23 27 29 30 32 31 25 23 25 25 25 25 19 13 13 6 11 12 18 17 21 45 44 29 35 34 56 57 69 56 45 48 54 62 62 67 72 68
28 31 29 25 24 22 25 26 27 29 30 30 26 23 22 20 17 17 19 17 16 12 12 9 11 13 19 35 56 53 35 47 53 69 65 76 59 58 64 58 59 66 67 69
29 28 22 21 24 23 26 26 28 30 29 29 26 22 20 17 17 19 23 25 24 22 21 16 13 5 1 7 21 39 59 62 65 64 71 76 82 75 81 80 69 73 71 67
28 19 18 20 24 29 29 25 29 30 29 25 23 24 22 22 22 23 25 23 22 19 14 11 6 3 1 7 13 24 43 56 66 74 77 85 86 86 86 85 80 75 70 64
20 16 20 19 21 26 27 33 34 33 29 25 28 31 29 29 30 32 32 31 33 30 28 21 12 14 18 11 8 16 15 23 46 64 77 81 84 87 85 87 85 81 80 76
18 13 17 20 22 24 28 27 28 31 31 36 36 37 38 39 42 43 43 42 39 37 35 31 28 20 20 11 13 13 12 19 19 15 39 62 74 86 87 87 86 84 82 79
19 12 14 17 23 21 25 27 27 28 31 37 34 28 32 35 38 40 44 45 46 40 37 39 38 31 28 19 26 24 10 10 13 15 14 24 51 62 77 83 83 84 81 78
11 15 17 13 15 17 19 18 20 19 24 29 32 32 29 30 30 30 35 39 44 45 41 38 39 41 34 25 20 21 17 8 4 12 17 18 24 34 57 66 73 81 82 81
17 18 12 10 10 14 15 13 15 18 19 22 25 27 28 29 25 26 26 29 31 35 38 40 40 42 40 36 29 18 16 14 8 13 21 20 21 20 27 47 62 67 74 76
17 23 21 11 7 9 11 13 15 17 19 21 18 18 20 22 22 21 23 25 27 29 31 31 34 33 34 35 37 28 22 14 21 19 16 4 10 12 18 25 41 56 58 58
15 21 15 13 12 14 14 15 15 15 17 18 20 22 12 14 16 15 17 23 23 23 24 28 32 33 31 27 31 36 30 21 18 16 5 10 6 2 10 13 21 36 49 49
14 14 14 15 15 14 14 14 15 17 17 17 19 19 18 18 18 18 17 18 19 21 22 23 24 27 28 30 25 24 28 25 17 13 10 10 10 7 7 15 24 29 32 43
12 13 13 13 14 15 18 19 20 20 20 20 19 19 19 18 18 17 17 19 20 21 22 20 19 20 21 21 23 24 20 19 21 23 22 24 23 20 20 14 31 37 29 39
16 16 17 17 19 20 20 21 22 22 22 21 20 19 18 17 17 17 17 17 19 20 21 22 22 19 16 15 16 17 18 19 16 10 11 13 15 18 23 24 24 27 29 28
15 15 14 15 17 19 19 18 18 19 20 21 23 23 23 23 23 22 22 21 19 18 18 19 21 22 21 19 15 13 14 15 14 15 15 13 10 9 6 9 18 27 30 33

GFSNW_500_spd_033.txt.gz
Wind_Speed
47 46 46 44 41 31 36 43 49 45 47 39 39 31 35 39 34 22 18 21 17 28 53 49 52 61 52 60 60 62 54 60 54 56 43 45 42 49 43 43 37 31 19 20
47 46 44 43 35 31 39 45 47 44 45 36 35 32 36 32 17 17 17 18 22 33 48 50 54 62 50 59 65 65 61 66 58 58 51 45 40 46 47 41 35 37 32 25
47 47 43 39 33 34 40 46 47 42 43 35 38 34 34 26 20 20 21 23 27 18 40 61 52 50 44 56 67 69 72 72 70 61 58 52 46 39 42 46 43 35 36 19
46 47 40 35 34 36 40 47 45 42 42 34 35 34 34 29 18 22 26 22 26 29 26 47 65 49 39 56 64 68 72 74 74 64 58 53 42 46 36 48 43 41 39 28
46 43 39 35 32 37 42 47 43 40 43 33 34 35 32 27 26 21 18 19 14 16 20 35 57 52 40 47 64 65 73 71 77 68 57 44 39 41 34 38 45 38 43 32
44 41 37 35 33 38 43 45 40 39 37 33 34 35 30 25 27 20 19 15 14 15 19 24 48 63 33 47 55 67 71 68 73 67 58 49 45 46 32 30 36 44 48 34
42 38 35 32 35 41 44 39 38 36 32 36 32 33 33 29 22 22 18 16 10 14 18 24 52 55 27 44 53 60 73 72 71 71 59 59 43 47 49 34 28 41 42 29
40 36 32 31 36 41 36 35 35 33 33 36 34 32 33 31 23 22 17 14 12 15 17 20 41 51 29 27 49 59 66 69 67 73 65 62 44 40 38 46 41 44 46 31
35 30 29 31 38 37 33 29 35 34 34 33 32 31 34 33 29 21 16 15 8 8 9 2 22 41 27 18 46 59 64 68 68 73 65 60 54 51 47 47 50 50 51 42
25 24 27 34 37 35 28 25 31 32 33 30 29 29 30 33 34 24 6 6 12 19 7 14 10 30 27 20 8 47 65 70 65 72 56 67 56 59 55 51 54 57 56 49
22 26 31 33 32 30 29 26 27 30 30 30 26 25 26 26 29 27 20 5 8 11 16 16 17 25 26 19 10 34 44 62 64 54 67 64 61 63 62 61 60 64 64 51
27 29 30 28 28 26 27 26 28 30 32 35 28 24 22 19 20 20 18 13 7 8 10 6 15 21 33 30 14 26 32 53 68 62 42 67 52 62 69 71 68 71 70 62
29 27 24 28 28 26 26 30 30 33 36 38 30 26 22 17 13 16 20 21 15 5 5 5 15 17 25 31 27 22 33 46 60 70 48 64 50 46 77 74 69 71 73 75
24 22 20 26 31 28 32 35 37 37 39 37 32 31 27 19 14 15 17 18 21 21 17 10 8 14 13 21 33 31 29 36 55 59 60 68 62 52 55 81 69 70 74 76
21 22 23 23 26 28 33 39 40 42 39 37 37 36 32 26 18 17 17 18 17 17 18 17 13 8 13 28 29 40 45 45 52 65 63 69 72 65 51 62 79 71 73 77
16 19 22 22 24 25 30 38 40 37 37 38 40 39 36 33 26 21 22 26 25 20 19 20 18 13 10 7 27 46 52 57 60 62 66 67 64 65 66 52 65 68 73 76
17 14 16 22 22 25 25 32 36 30 29 33 38 40 39 40 38 34 32 30 33 30 29 30 26 22 17 14 8 3 12 31 61 74 71 73 71 67 61 66 58 63 69 71
11 10 14 16 18 20 22 23 27 29 26 26 33 32 31 35 37 34 32 34 35 34 34 33 32 32 32 28 13 5 8 14 22 35 57 67 74 77 73 67 57 64 63 63
12 12 11 13 17 18 18 19 20 22 22 26 28 24 25 26 26 29 30 31 32 33 34 35 38 41 40 34 26 16 11 4 15 22 30 37 63 78 80 83 78 68 61 61
15 12 12 9 10 15 16 18 19 18 21 23 23 25 24 23 23 27 26 27 28 28 30 32 32 35 34 32 27 20 20 14 15 12 23 23 43 65 78 86 84 91 88 80
13 15 9 8 9 14 16 16 15 16 17 17 18 25 22 19 20 19 21 22 26 27 24 26 28 28 32 33 32 24 12 22 22 2 17 15 16 36 55 67 81 89 90 90
10 11 14 14 12 12 11 12 13 15 16 17 19 18 21 21 22 19 17 21 23 25 24 23 24 25 24 27 31 29 23 16 18 22 7 4 9 10 12 18 31 57 76 82
16 16 16 15 16 14 14 15 16 16 17 18 19 18 18 18 18 18 16 21 20 19 18 21 22 20 20 21 24 24 22 20 17 16 11 9 11 6 8 16 21 25 39 62
15 14 16 13 14 17 19 20 19 18 17 16 16 17 19 20 19 18 18 18 20 20 20 19 18 18 17 16 16 13 16 19 19 14 14 15 13 7 1 3 3 12 19 28
17 14 14 17 19 18 17 18 19 20 20 20 22 21 21 19 17 17 18 20 21 20 20 20 19 18 17 15 12 10 9 10 11 12 14 14 13 8 11 10 13 3 3 14
18 17 17 17 17 16 16 16 16 17 19 21 21 20 21 21 21 20 19 21 23 22 21 19 18 16 17 16 16 13 12 9 7 10 13 8 6 8 11 14 9 11 19 17
20 19 18 18 17 17 16 16 16 17 18 20 20 21 22 22 23 23 24 24 24 24 22 21 22 21 18 17 18 16 14 13 13 11 5 8 11 8 7 11 18 18 17 19

GFSNW_500_spd_036.txt.gz
Wind_Speed
45 44 47 46 44 34 35 34 36 39 41 36 36 33 31 35 34 38 36 29 24 28 25 27 57 67 55 58 67 70 74 77 69 63 53 53 48 51 46 45 45 37 28 24
43 43 46 45 41 35 28 34 37 42 38 34 35 32 30 33 32 34 26 26 27 27 29 31 30 62 56 47 56 66 69 78 67 66 56 57 51 49 48 46 38 39 32 35
41 43 44 43 39 35 31 35 41 39 37 35 33 32 30 30 31 30 23 25 30 31 28 32 24 58 56 40 60 64 70 78 73 71 64 54 58 54 51 49 45 39 36 31
42 42 44 40 38 33 31 38 41 38 35 35 33 33 31 31 28 26 23 22 25 26 27 27 28 57 49 42 64 61 71 73 74 73 68 63 59 54 50 53 48 41 33 36
42 42 41 36 32 32 35 40 38 33 36 34 32 32 32 31 29 21 21 23 22 20 16 19 19 54 50 34 33 59 64 68 73 70 66 60 56 55 50 41 44 41 36 37
43 39 36 31 28 32 38 36 30 31 32 36 33 32 30 30 30 19 25 22 20 16 19 15 14 41 48 32 36 59 67 64 68 69 65 60 55 50 48 35 31 36 39 37
37 31 28 26 31 36 37 34 27 31 32 35 34 30 28 29 28 25 18 20 20 15 17 16 21 51 52 28 31 53 62 67 69 57 67 63 56 47 48 41 34 32 43 44
27 25 26 30 34 33 34 31 30 33 33 34 31 28 27 27 28 24 11 11 13 11 12 9 9 40 55 34 20 53 61 66 66 55 69 64 59 49 52 53 46 40 48 44
27 29 31 32 30 30 31 32 32 32 34 32 32 27 27 24 26 26 19 10 18 15 6 17 16 28 30 26 29 47 59 66 65 65 64 69 64 53 55 54 50 43 43 49
28 28 29 31 33 31 29 30 30 28 31 30 29 29 26 20 21 25 21 9 12 8 17 23 21 13 22 16 27 45 62 70 66 72 66 67 67 66 61 49 57 52 46 53
25 24 28 34 33 28 27 27 28 34 35 32 30 30 27 20 20 21 18 10 12 12 13 19 24 25 32 7 26 45 62 65 69 71 70 66 65 55 56 60 64 57 55 58
25 25 29 30 28 28 29 31 38 43 41 39 34 35 32 25 19 19 22 10 14 7 8 26 24 28 30 11 16 30 45 61 71 69 81 66 69 63 52 64 67 58 57 65
24 26 26 24 26 27 28 34 40 43 45 42 42 38 38 33 28 23 21 21 11 13 10 17 25 28 29 16 11 22 17 52 64 68 78 73 70 66 47 65 72 65 64 73
21 24 23 21 20 27 28 33 37 43 45 47 50 47 42 41 40 33 27 25 23 16 15 13 16 12 12 24 15 12 16 36 57 69 70 81 53 61 53 57 63 71 69 80
17 19 20 18 17 26 30 29 34 39 42 43 46 49 49 46 45 42 38 34 29 23 20 17 10 7 7 11 19 21 19 28 51 65 69 77 66 56 58 56 64 68 68 74
16 14 16 16 21 24 28 28 29 31 33 33 38 42 45 44 43 39 37 34 31 31 27 29 8 9 9 16 26 29 29 30 45 55 66 66 58 59 51 57 51 58 79 75
17 12 11 13 16 19 22 27 30 31 30 27 31 35 37 37 36 36 35 35 35 36 30 18 14 14 5 12 28 38 39 39 36 38 48 75 69 57 56 48 54 67 66 85
15 14 9 9 14 15 19 21 22 23 22 25 31 29 27 28 28 30 30 31 29 29 30 31 32 26 11 6 6 9 23 44 50 48 51 64 76 74 64 55 57 49 73 82
16 15 7 6 12 15 15 16 17 18 18 26 26 23 23 23 23 23 24 24 24 26 26 27 31 32 32 21 13 8 3 11 31 49 67 65 66 76 76 73 75 70 67 61
14 14 8 9 11 14 15 17 15 16 16 18 20 23 22 22 23 21 19 21 21 19 21 21 24 25 27 23 18 9 8 1 11 23 31 41 66 79 78 76 73 79 76 67
15 13 13 10 11 13 15 16 16 17 16 15 15 17 19 20 19 20 15 18 21 18 17 15 15 17 20 21 19 14 10 7 14 11 3 9 20 34 57 88 86 81 78 72
15 14 13 14 15 14 14 14 15 15 16 16 15 16 17 18 18 17 17 19 19 19 19 14 10 11 12 14 16 17 14 8 9 10 11 4 11 16 20 32 62 94 97 90
17 17 16 16 14 11 13 16 19 20 20 19 21 19 17 18 18 19 19 19 19 19 16 16 14 11 10 8 4 8 13 16 19 16 10 8 8 10 11 17 21 38 77 97
15 14 15 14 14 15 16 17 17 18 19 20 20 19 20 19 19 20 20 20 20 21 20 17 16 14 11 9 8 9 11 11 12 13 17 13 10 4 9 4 10 22 29 38
18 18 18 18 18 18 18 17 17 17 17 19 19 19 19 19 19 18 19 21 21 20 19 18 17 17 17 15 11 10 10 11 16 11 6 9 14 12 7 9 9 7 2 14
19 18 18 18 18 17 17 17 17 18 20 19 20 19 18 17 17 17 18 21 22 23 24 22 19 17 18 17 18 16 12 12 10 10 14 9 4 5 9 9 5 7 12 15
23 21 18 18 19 19 18 18 18 18 21 21 20 20 22 21 19 20 22 24 24 24 24 25 25 21 19 18 16 17 18 16 15 14 10 9 15 5 9 9 12 11 12 16

GFSNW_500_spd_039.txt.gz
Wind_Speed
47 37 38 41 41 42 38 34 31 29 36 41 39 35 34 32 31 32 33 34 37 37 36 33 27 26 37 58 61 55 74 85 73 68 66 63 59 60 54 54 53 51 47 37
40 36 39 41 42 37 31 25 27 34 37 35 33 33 32 33 32 33 32 32 33 35 34 33 32 32 31 50 64 42 60 82 71 61 63 69 64 61 56 52 49 49 44 21
37 40 43 41 39 30 24 28 33 35 35 32 33 30 31 32 32 30 31 30 31 32 30 30 32 31 31 41 62 44 52 74 76 70 68 72 65 58 57 52 51 48 43 27
44 45 38 30 26 24 28 33 33 34 31 33 35 35 33 31 28 29 30 29 28 29 27 27 30 26 25 46 70 38 52 65 77 73 67 67 67 61 59 59 50 47 36 36
34 28 26 22 22 29 32 31 32 28 32 38 36 36 34 31 28 27 28 26 30 28 28 24 12 16 23 28 70 26 56 52 74 70 70 62 62 61 59 57 53 44 38 43
26 27 27 28 27 28 27 28 29 28 31 33 35 33 33 30 28 25 25 25 27 28 26 21 20 15 17 42 53 26 53 66 69 71 69 62 59 67 61 57 54 46 42 47
27 28 28 27 26 27 28 30 31 29 29 29 28 29 30 28 26 25 23 21 10 18 19 20 20 17 13 49 34 25 49 64 69 59 63 59 61 63 61 59 56 50 46 50
28 25 27 30 30 28 29 31 32 30 28 27 25 25 27 26 22 24 22 23 16 23 23 18 12 8 18 49 33 19 46 57 62 55 64 56 60 60 59 59 54 53 49 50
24 21 29 30 30 27 28 29 30 28 28 28 26 25 25 24 23 22 18 14 19 17 9 10 13 22 16 33 31 38 48 52 52 58 69 57 59 61 54 57 52 53 52 48
23 24 25 28 27 27 28 31 31 31 33 33 33 29 27 22 23 22 14 16 12 13 21 12 20 21 20 14 25 24 51 51 57 60 69 59 60 57 57 54 58 55 53 51
24 22 22 25 23 26 28 31 37 39 39 38 41 39 33 27 24 23 16 11 5 23 10 23 31 31 30 23 20 41 52 57 58 60 70 56 57 56 56 61 60 58 57 55
21 19 19 21 23 23 27 32 36 41 44 46 47 45 40 33 25 20 19 11 11 13 17 22 26 32 25 23 32 41 49 57 60 60 60 58 63 57 55 61 62 57 57 60
18 19 17 17 21 23 27 29 31 38 43 43 46 48 46 46 41 27 18 13 12 9 16 24 26 29 23 21 28 27 34 42 60 63 68 47 64 65 50 60 62 60 57 63
15 17 15 15 19 23 27 29 32 34 37 41 44 46 48 50 50 45 31 23 19 15 12 14 18 20 13 12 12 14 26 40 50 57 60 67 48 64 56 56 59 60 60 62
16 16 13 17 17 22 25 27 28 32 36 36 39 40 44 46 48 46 38 34 32 19 16 17 20 15 8 4 3 16 16 32 53 58 57 57 68 54 63 54 64 66 67 66
16 16 14 14 15 18 21 23 25 29 34 33 35 35 37 39 40 40 42 40 33 26 23 21 11 9 5 7 8 9 10 6 19 47 60 60 62 68 68 73 49 74 73 73
16 17 15 11 13 15 17 18 19 21 25 29 31 33 34 35 35 37 37 36 35 34 31 21 16 3 19 22 17 15 13 12 17 52 57 55 57 66 73 50 74 69 78 80
18 20 16 14 13 13 16 16 17 19 20 19 30 27 31 29 28 28 29 30 29 27 27 25 17 12 5 9 18 24 25 28 26 21 48 61 58 58 68 59 58 53 57 76
17 19 19 15 14 17 17 17 18 19 19 20 19 20 23 23 23 22 21 23 22 21 20 18 18 10 0 3 4 4 4 13 31 37 31 56 61 63 66 70 77 67 54 63
15 16 15 15 17 18 20 21 20 19 19 19 20 18 19 21 21 20 19 21 20 18 16 18 17 16 13 7 3 2 2 3 1 15 34 50 52 62 69 70 70 70 74 86
17 16 15 15 15 15 17 17 17 18 19 20 20 19 19 20 19 20 20 18 17 16 15 13 15 16 14 11 8 4 1 4 7 10 17 24 35 55 62 68 77 78 74 72
18 17 19 18 14 13 12 14 14 16 18 18 20 21 21 22 22 21 21 21 20 19 19 14 12 13 13 13 11 9 6 2 4 7 9 11 16 22 45 69 71 72 74 74
19 19 18 17 16 15 15 14 14 17 19 19 20 21 22 22 22 22 22 23 23 22 19 19 16 11 10 13 14 14 16 16 15 11 9 8 8 12 18 27 41 60 75 80
22 23 21 20 18 17 16 17 18 17 18 20 22 21 21 21 19 19 19 21 22 23 23 21 19 19 16 12 13 16 19 18 19 21 20 17 13 12 13 20 26 36 43 50
22 22 22 21 19 19 18 18 19 19 18 20 21 19 19 20 20 19 20 21 22 23 22 21 20 20 19 18 15 12 15 15 15 18 19 17 19 16 8 16 15 14 17 32
22 20 19 18 18 19 18 16 16 18 20 20 18 17 17 19 19 19 21 22 21 21 24 23 21 20 21 19 18 16 14 15 15 14 16 19 18 17 20 17 12 15 16 19
21 19 19 19 19 20 18 18 18 19 19 18 18 19 19 20 20 21 23 24 25 23 23 24 22 21 22 22 18 18 17 16 16 17 15 15 19 19 17 15 19 17 18 17

GFSNW_500_spd_042.txt.gz
Wind_Speed
42 38 40 41 39 38 34 29 23 25 28 32 35 35 34 35 34 34 36 38 38 41 41 40 42 45 49 51 54 59 66 71 77 67 70 65 68 68 68 67 64 61 60 52
37 37 33 28 24 20 18 19 24 31 33 33 31 29 33 35 37 34 36 35 35 37 36 35 35 38 42 42 42 44 51 63 73 65 65 69 69 71 68 65 61 61 56 49
28 26 25 26 23 23 24 26 28 30 31 30 28 27 32 36 36 35 34 32 33 34 34 32 32 35 38 36 35 34 42 59 67 69 64 71 70 71 68 69 64 59 57 41
25 27 29 30 29 29 28 27 27 32 34 34 33 33 35 35 35 33 30 30 30 32 31 32 34 36 34 32 27 31 36 53 54 63 69 69 69 70 72 71 66 59 51 33
28 29 27 27 30 30 28 28 30 30 30 32 33 33 34 35 34 32 27 26 25 29 33 29 30 34 27 21 24 29 26 53 45 55 65 64 64 69 71 71 65 60 45 39
29 24 27 29 28 26 22 25 27 28 28 29 28 30 31 31 31 29 25 22 23 29 30 28 26 27 24 24 24 23 35 57 30 47 62 64 67 68 69 68 64 56 43 44
27 23 29 29 24 22 25 27 28 28 28 29 28 28 29 28 28 28 22 19 23 23 26 27 32 28 26 26 22 15 32 31 31 53 66 63 67 65 70 66 62 56 45 48
26 25 25 24 24 24 26 28 28 29 31 34 32 30 29 27 26 25 19 14 14 13 15 18 21 19 19 19 19 23 40 26 41 51 68 62 60 61 67 65 59 54 48 53
26 22 23 22 25 23 26 28 31 34 37 41 43 41 35 26 23 22 14 11 16 24 22 18 9 2 5 21 24 25 20 36 41 48 67 58 58 61 63 64 58 52 52 57
24 21 21 22 22 21 21 27 30 32 38 43 46 51 47 29 20 26 22 22 28 25 16 18 21 21 11 18 21 20 29 40 38 51 65 54 55 58 57 59 57 53 55 55
25 21 19 19 19 20 22 27 29 34 39 42 46 51 57 37 18 19 16 23 23 18 21 24 29 24 20 22 19 15 38 47 43 45 53 58 55 55 53 52 56 53 54 54
27 20 19 16 19 18 23 28 30 34 39 42 45 51 56 55 31 23 17 17 26 28 30 31 33 28 23 22 18 19 30 45 47 49 48 55 56 50 55 55 50 51 54 57
24 20 23 13 18 22 22 24 28 31 38 41 42 47 50 54 46 31 22 20 27 24 23 26 27 27 28 22 18 20 35 37 41 39 51 45 56 42 43 50 47 50 54 57
21 20 21 18 18 21 22 22 25 28 33 37 39 44 46 46 48 33 27 25 14 19 20 15 23 24 22 17 15 20 35 28 44 45 44 46 51 47 45 46 52 46 53 53
22 20 21 18 18 21 23 22 22 27 31 35 34 40 41 41 41 39 38 32 23 26 16 14 12 16 19 14 9 14 32 27 26 50 43 46 44 54 50 49 49 50 50 54
23 22 21 18 20 19 20 22 22 24 25 32 29 39 38 38 38 39 39 37 33 32 32 27 21 11 8 10 13 6 21 30 44 46 44 38 46 52 42 45 50 52 53 55
23 21 25 19 20 19 21 19 20 22 23 23 28 32 33 34 35 33 34 36 33 31 30 30 27 21 14 7 5 3 4 2 9 42 43 45 50 43 56 51 53 54 58 58
20 19 21 22 16 18 19 20 22 23 23 23 23 23 26 26 24 28 28 29 28 27 29 27 25 15 9 7 3 5 9 9 8 15 43 46 41 49 49 50 53 62 49 58
20 18 18 18 18 19 20 20 21 21 24 26 26 24 24 22 22 23 24 23 24 25 23 22 23 22 17 12 11 5 4 13 21 18 24 27 44 52 53 52 51 58 60 55
22 20 20 19 20 18 19 21 19 19 20 22 23 24 24 24 23 22 23 22 21 21 22 23 21 22 21 18 13 4 3 2 5 15 26 32 24 36 55 53 54 52 55 65
23 22 21 21 22 20 17 16 14 16 17 19 21 22 22 22 23 22 22 22 21 21 20 21 21 20 21 20 17 13 11 5 1 4 8 17 27 41 40 45 53 56 61 56
23 22 21 21 20 18 17 17 17 18 18 18 20 21 21 22 22 21 20 21 22 24 24 23 21 21 22 22 22 21 18 13 9 6 5 6 14 25 37 50 58 60 61 59
24 24 23 21 18 18 17 17 17 18 19 19 21 21 19 19 20 19 18 20 22 22 22 22 23 22 19 20 23 23 24 25 22 19 15 10 9 14 17 27 36 50 64 65
25 25 23 22 21 18 18 18 18 19 20 21 20 18 19 20 21 21 20 22 22 23 22 23 23 22 21 18 18 21 22 22 22 22 20 20 19 18 22 20 28 33 38 44
23 25 26 26 23 20 19 19 19 19 19 19 18 17 18 20 21 23 24 24 24 25 26 26 26 25 24 23 20 20 20 21 20 20 20 22 21 22 19 17 15 24 30 28
21 20 22 24 24 21 19 18 20 21 21 18 16 16 17 20 23 24 27 29 29 28 28 28 27 27 27 25 24 23 19 19 20 21 20 18 21 22 23 23 18 16 24 24
22 21 19 24 31 26 21 21 21 22 23 23 21 19 17 19 21 23 26 30 34 33 29 27 25 24 24 25 24 22 20 18 19 19 20 20 19 20 22 19 18 20 20 22

GFSNW_500_spd_045.txt.gz
Wind_Speed
32 26 22 24 25 25 24 23 23 22 24 25 26 28 30 30 30 32 34 36 38 39 40 41 43 45 46 48 50 52 54 58 59 54 49 49 51 69 69 69 70 68 67 67
25 25 26 27 26 25 23 24 25 23 24 25 26 29 30 31 33 34 37 39 39 39 40 41 41 42 41 41 44 47 51 57 61 62 55 54 56 58 70 71 68 73 69 67
26 28 26 29 30 27 25 21 24 25 25 23 23 25 27 30 32 34 36 38 36 35 35 36 35 36 34 33 38 39 44 49 58 61 61 63 66 62 65 73 73 75 75 61
28 27 25 32 30 27 20 22 27 25 25 26 27 28 30 32 34 35 34 30 27 28 29 30 29 30 31 33 38 41 43 49 60 64 67 67 70 71 66 78 77 75 69 67
29 29 27 28 25 23 23 24 24 25 26 28 28 30 25 25 36 34 27 22 20 21 24 25 26 28 34 37 38 41 43 46 51 58 60 62 69 74 72 81 78 75 68 65
28 28 25 24 27 25 20 21 24 26 27 30 34 38 37 31 35 26 25 22 20 20 24 23 28 33 36 37 36 36 32 33 36 39 38 54 72 75 73 80 78 73 68 58
27 26 25 24 23 22 23 25 24 26 30 35 41 46 40 31 26 24 16 11 13 13 15 17 24 31 34 41 38 33 28 28 32 25 34 53 64 64 68 78 78 71 67 55
29 24 23 21 20 19 24 24 26 31 33 38 45 50 40 27 22 18 16 23 21 16 16 19 20 21 20 18 23 28 23 28 30 28 23 35 54 57 69 73 74 67 62 51
32 23 23 17 19 20 21 22 27 32 36 42 48 50 36 26 23 27 27 25 20 17 14 12 13 12 13 5 13 21 25 29 33 19 31 29 54 56 65 69 65 64 59 54
29 25 23 15 17 18 20 23 27 32 37 43 48 49 34 32 33 31 32 33 21 13 13 15 21 23 18 15 18 19 18 15 16 19 48 16 56 53 60 61 62 60 56 55
24 24 23 10 14 20 24 24 26 31 35 42 46 45 34 34 29 34 32 29 21 20 20 21 21 19 20 18 13 16 16 12 16 39 22 18 56 55 57 57 54 56 54 56
23 22 23 11 16 20 23 24 25 29 31 37 41 42 36 27 25 24 26 28 22 23 20 21 22 20 15 11 8 4 3 10 17 30 9 36 59 56 54 54 49 51 54 54
26 22 22 21 22 23 23 25 27 27 28 30 37 37 36 37 30 21 24 23 23 19 16 17 15 18 17 19 14 6 6 10 21 48 21 45 48 51 49 46 40 47 55 51
25 22 24 23 21 25 26 24 24 26 26 27 31 32 33 34 35 33 34 34 35 26 21 12 10 13 14 18 8 8 7 16 21 22 30 27 51 45 45 46 43 43 54 48
26 22 23 22 21 23 22 22 23 25 27 28 28 29 30 32 35 34 31 32 35 36 32 24 16 12 10 11 11 11 9 23 28 26 33 36 37 32 36 37 35 38 45 48
23 23 21 21 16 20 21 23 24 24 25 26 25 27 31 25 31 30 29 29 29 30 32 32 27 18 10 5 7 11 10 12 23 33 30 32 30 32 39 43 43 42 40 41
24 22 22 21 20 20 21 21 21 24 25 25 26 25 22 25 20 27 27 27 28 27 25 28 27 24 16 5 2 4 6 2 10 36 34 35 35 32 37 34 32 37 44 40
24 24 24 22 20 18 17 20 22 22 23 24 25 25 25 25 25 26 27 26 28 26 26 26 23 23 17 14 13 7 5 5 5 24 37 41 32 35 39 40 40 36 39 40
24 24 24 21 19 18 18 19 20 21 23 24 24 23 23 22 24 25 26 27 28 27 26 24 23 20 19 18 13 13 12 2 12 7 27 32 35 33 39 36 39 47 46 47
25 25 24 22 21 20 21 20 19 20 20 20 21 22 22 20 20 21 23 25 27 27 28 27 25 23 20 18 17 15 12 13 9 11 14 24 41 40 43 49 36 46 49 46
25 25 24 22 20 18 19 18 17 17 17 18 20 21 20 20 20 19 20 21 23 24 25 23 23 24 24 21 18 14 11 8 6 4 4 15 25 30 33 40 38 41 38 41
25 24 22 22 20 18 18 19 19 18 19 20 20 19 18 18 19 19 19 20 23 24 25 25 24 24 22 21 21 19 16 10 6 5 6 9 10 18 29 33 31 29 34 46
22 22 23 24 22 20 18 17 17 18 20 20 19 19 20 19 19 19 20 21 22 24 26 27 28 27 26 24 22 19 18 16 14 9 8 10 13 12 13 21 26 28 39 39
21 18 20 27 28 23 21 18 17 18 18 18 18 19 18 17 19 20 21 23 26 29 31 30 29 28 28 28 27 25 23 20 17 16 13 9 11 15 15 15 17 22 27 32
22 23 20 22 29 24 20 21 22 25 25 25 22 20 20 20 21 23 23 26 27 30 34 34 30 26 26 27 28 29 28 26 24 21 18 16 12 12 15 14 13 15 23 27
20 22 23 25 24 24 21 21 23 25 26 27 29 30 27 25 29 30 31 31 32 32 35 32 29 24 23 23 25 28 29 29 27 24 24 23 21 16 12 14 18 17 14 18
19 21 23 26 27 22 20 21 25 27 31 35 37 30 31 33 29 27 29 30 30 39 33 30 28 26 23 23 25 26 27 29 29 26 24 23 24 23 21 17 13 16 20 20

GFSNW_500_spd_048.txt.gz
Wind_Speed
27 27 27 25 28 26 24 22 20 18 15 15 16 18 19 20 23 25 30 32 36 40 43 44 45 45 45 47 49 50 53 55 54 53 51 48 51 54 64 58 61 70 52 35
28 28 27 27 27 23 21 18 20 17 15 14 15 17 19 21 23 26 29 33 38 40 43 46 47 47 47 47 49 52 52 54 53 53 54 52 55 48 49 59 70 64 63 62
29 28 25 26 25 24 19 17 16 19 18 18 19 22 27 31 33 34 37 38 39 37 37 38 40 39 42 44 47 50 55 55 56 58 51 48 58 57 58 56 66 71 74 49
28 28 25 25 26 23 18 17 17 18 20 24 26 30 33 37 37 39 39 30 24 23 25 29 31 32 33 37 41 44 48 55 57 61 64 60 57 61 62 62 66 80 74 53
30 25 25 24 22 21 22 21 21 24 27 28 30 36 38 36 31 27 22 17 16 17 18 22 22 26 27 29 32 33 37 45 48 56 58 63 65 64 66 67 63 73 81 74
30 27 23 21 19 20 24 23 24 26 26 30 35 37 31 21 26 28 20 23 21 18 16 19 21 24 25 26 28 29 32 34 40 49 50 57 69 69 67 69 68 67 81 73
26 28 23 21 17 18 21 22 25 25 31 35 37 29 22 31 31 28 26 22 20 17 13 13 16 20 23 27 32 36 34 35 37 39 44 52 66 66 69 74 72 70 73 70
22 24 22 20 16 18 20 22 23 27 32 34 33 20 26 30 29 27 29 25 22 21 16 13 10 12 16 17 25 34 37 38 39 42 41 46 66 68 68 71 76 74 74 71
21 21 22 18 12 16 21 22 23 26 29 32 31 22 24 24 26 31 29 24 21 20 18 14 7 4 7 6 11 14 23 30 32 32 31 29 35 58 73 69 78 79 76 68
22 20 22 19 13 17 20 19 22 24 24 28 28 24 23 22 22 25 23 24 24 20 16 12 12 12 11 11 8 0 12 21 25 27 29 27 30 33 50 55 65 71 76 67
25 19 20 21 15 17 20 18 19 20 22 23 24 25 27 27 24 24 20 19 17 18 17 15 13 10 9 10 9 7 8 12 22 17 16 11 25 45 44 51 55 55 64 64
27 20 20 20 18 19 23 21 19 21 21 22 21 22 25 24 28 26 21 18 19 16 19 17 15 13 7 6 3 4 3 1 2 6 6 5 35 40 45 42 48 49 47 59
26 22 21 19 16 18 18 20 21 23 21 17 19 21 24 30 28 26 28 26 24 29 17 20 17 13 8 8 7 3 4 6 2 5 5 18 46 48 42 45 43 41 44 56
24 22 20 18 16 19 20 21 21 21 20 17 18 23 26 22 29 28 27 27 29 29 28 26 24 22 14 6 4 2 1 3 5 6 11 31 49 34 51 41 37 43 43 55
23 21 21 20 19 20 19 18 19 21 22 23 23 23 24 26 26 25 25 25 27 29 28 27 25 22 21 15 7 2 6 6 5 8 17 40 48 39 53 44 38 39 44 50
22 24 23 20 20 18 18 18 18 19 20 21 22 24 25 26 25 24 25 24 24 25 25 24 24 27 24 22 18 6 2 8 12 8 18 30 42 34 31 33 37 34 42 43
23 23 22 20 18 17 18 17 17 19 19 20 22 22 22 23 24 25 25 26 26 24 23 20 21 21 22 20 15 12 7 4 12 13 19 19 41 42 35 35 37 40 41 40
24 23 22 21 19 17 16 16 17 19 19 20 21 22 22 21 20 21 23 25 25 26 27 26 23 20 20 19 19 15 8 11 6 9 13 24 21 32 26 33 43 36 39 36
24 24 23 21 19 18 18 19 20 20 21 20 21 22 20 20 20 19 20 22 22 22 23 23 24 24 20 19 19 16 13 12 12 17 4 21 25 25 32 35 40 39 36 35
23 23 23 21 20 18 17 18 19 19 19 19 20 20 19 18 19 18 18 20 21 21 22 22 22 22 22 20 19 16 14 14 14 12 11 13 30 31 33 35 29 37 35 34
21 21 24 22 21 20 18 16 15 16 17 18 19 19 17 17 18 17 18 19 20 22 24 24 24 24 22 21 17 16 14 10 8 6 7 10 16 25 38 38 33 39 40 40
18 17 21 25 21 19 20 21 21 20 20 20 18 16 15 15 15 15 15 17 21 24 25 27 28 27 24 21 19 18 15 13 13 11 8 4 4 11 10 21 34 35 35 33
19 18 18 19 23 20 16 15 16 17 19 20 21 20 21 20 19 18 20 24 25 31 31 32 29 29 27 22 21 19 18 15 12 10 10 9 9 8 11 15 19 24 22 28
17 20 22 22 22 22 19 18 19 21 21 23 24 26 27 28 22 23 26 29 27 28 30 26 33 32 29 23 19 19 18 17 15 13 13 11 10 10 13 16 15 16 21 31
17 22 24 24 24 20 19 18 21 22 22 28 31 32 34 35 28 27 28 26 26 23 26 32 26 26 28 25 22 19 19 19 18 18 16 14 14 13 13 14 16 18 18 22
17 22 25 25 23 22 21 23 20 24 30 32 28 36 35 34 25 29 28 15 13 24 25 25 25 23 22 24 26 25 22 20 20 19 18 17 16 15 15 16 16 18 19 21
18 21 25 27 25 23 23 24 26 28 31 34 32 31 37 46 21 26 19 22 37 34 27 26 25 23 23 22 23 23 22 20 16 14 13 13 14 16 16 17 18 20 18 21

GFSNW_500_spd_051.txt.gz
Wind_Speed
31 28 29 26 26 24 15 12 14 10 10 11 10 9 9 9 11 13 18 22 27 34 39 42 47 42 45 51 46 45 49 52 52 51 44 45 47 35 44 56 53 46 46 40
32 27 27 27 25 21 16 15 15 16 15 15 15 16 18 21 23 26 27 29 33 36 41 45 47 47 45 53 51 45 50 51 52 53 54 51 51 54 50 48 47 45 42 45
29 29 25 25 19 20 17 16 16 16 17 18 19 23 24 25 25 24 26 26 29 32 34 38 42 42 45 50 51 51 52 53 53 52 31 45 50 55 52 46 45 51 47 39
27 26 25 21 17 19 19 16 16 17 18 21 25 25 20 18 19 18 17 24 28 25 21 24 29 33 36 40 42 46 47 50 53 56 56 53 57 67 62 62 61 50 53 49
24 22 26 21 19 18 18 17 17 17 22 26 23 19 19 20 16 17 19 22 28 25 22 22 21 24 27 32 35 39 42 47 52 58 59 58 61 63 66 66 66 65 68 69
20 19 24 21 18 16 14 15 16 20 24 23 20 18 19 16 16 22 21 21 24 25 25 20 19 23 31 34 30 29 33 37 41 51 54 57 67 67 67 66 70 70 68 70
22 19 21 20 16 14 15 15 17 22 22 20 19 17 13 14 16 22 19 19 20 20 22 21 18 16 25 27 29 29 31 33 37 36 41 44 53 63 68 70 70 71 73 71
24 21 19 20 12 14 11 13 16 19 17 20 18 19 18 15 21 21 23 19 18 16 14 14 15 13 11 13 21 28 29 35 43 43 45 45 51 43 63 79 81 82 75 74
27 23 20 21 11 13 16 16 14 14 17 18 17 19 23 23 23 23 22 21 18 17 15 14 10 5 8 10 12 15 26 26 34 40 48 51 46 38 53 70 82 75 71 70
27 24 20 19 15 16 20 17 14 14 17 14 16 19 23 25 24 25 20 19 16 16 19 19 15 11 10 9 9 9 12 17 27 32 41 46 43 49 57 66 71 71 70 69
26 23 19 20 16 15 17 18 16 17 16 11 12 16 21 24 20 24 22 16 14 16 21 19 17 14 13 13 11 8 6 11 15 17 28 28 25 35 52 57 58 62 70 66
25 21 19 20 17 16 17 18 18 18 15 11 13 20 22 20 21 21 22 16 16 14 21 23 17 13 11 13 14 9 3 4 11 17 16 16 6 14 27 37 35 53 62 65
24 21 18 17 16 17 17 15 16 18 18 11 14 21 22 22 22 20 21 23 22 22 25 25 24 18 10 9 9 9 6 7 6 7 6 8 3 8 29 35 41 40 59 66
22 22 21 18 15 14 13 14 15 17 18 19 20 20 21 24 25 24 21 21 21 23 25 24 23 21 16 13 7 3 4 3 6 9 9 2 5 10 29 28 25 41 31 45
22 21 20 20 17 14 15 15 15 18 20 21 20 19 21 23 23 25 26 23 21 21 23 24 23 21 17 17 15 15 10 4 5 7 3 10 4 12 37 27 42 32 34 33
22 22 20 18 18 17 16 15 15 17 18 19 20 17 18 20 21 22 24 25 25 25 26 23 23 25 27 26 22 19 18 16 15 13 6 5 7 10 29 35 33 34 37 35
21 22 21 19 17 16 15 15 16 17 17 18 19 18 18 19 20 20 20 22 23 24 25 27 29 29 27 26 25 23 21 19 17 15 12 10 11 14 16 35 37 37 36 40
19 21 20 19 18 16 15 15 15 16 16 18 20 19 17 17 18 18 18 19 20 22 22 23 24 26 27 27 26 24 24 22 18 14 15 11 12 23 21 23 31 48 38 39
17 20 22 20 20 18 15 15 15 16 17 18 17 15 13 15 15 17 17 17 18 21 23 24 24 23 24 26 25 24 24 22 21 18 15 10 9 15 19 21 29 35 44 34
17 17 21 21 19 17 15 15 17 16 17 16 14 15 16 16 15 16 16 16 16 19 25 25 25 23 25 28 27 25 22 22 22 22 20 16 2 15 17 29 29 29 39 38
17 19 20 19 20 17 17 17 17 19 18 19 18 18 19 18 19 18 17 18 19 21 27 27 26 24 25 26 26 26 24 20 18 18 15 13 9 7 19 23 23 25 30 35
16 19 21 20 20 18 17 18 19 20 22 23 23 24 23 26 28 26 21 20 24 24 28 25 22 25 29 31 28 21 21 21 18 16 15 12 10 9 5 12 21 25 34 38
15 20 21 20 22 20 18 16 17 22 22 22 28 29 26 29 36 33 16 18 20 27 20 16 22 22 28 26 24 19 17 16 18 16 14 13 11 8 9 9 6 18 31 30
14 18 21 22 23 23 22 22 23 21 22 29 29 31 30 30 31 31 14 18 20 15 13 16 20 15 22 21 20 19 17 17 15 17 16 15 14 14 12 12 10 10 15 27
13 16 21 24 22 21 24 22 21 23 26 31 31 36 35 34 26 19 14 16 11 13 18 24 18 18 19 18 20 20 20 20 20 18 18 15 17 17 18 16 17 17 16 17
16 17 19 24 22 21 22 23 26 25 25 29 32 35 32 23 27 18 24 16 21 24 30 25 22 22 20 19 20 20 19 18 17 17 17 17 16 17 19 20 18 16 20 21
16 14 19 21 22 23 24 26 27 27 29 31 32 34 35 31 27 23 28 29 23 25 29 30 26 23 21 21 21 22 22 19 15 13 12 13 13 13 17 20 20 20 19 21

GFSNW_500_spd_054.txt.gz
Wind_Speed
30 28 28 25 22 20 18 16 15 15 14 11 10 6 3 4 6 7 13 14 19 24 29 32 37 37 30 43 43 43 41 42 42 45 35 40 46 48 48 50 48 53 42 42
29 24 24 21 16 17 15 14 13 12 11 11 10 9 8 11 12 13 12 11 13 17 25 33 38 42 41 46 46 51 48 47 49 44 48 38 41 44 44 33 48 51 49 41
29 22 19 22 16 13 13 11 12 12 13 13 11 11 10 10 10 10 8 8 11 14 22 26 28 30 40 50 55 52 51 43 47 50 37 43 41 44 45 45 40 42 55 33
25 19 18 22 17 14 9 11 10 12 14 13 12 12 11 10 10 11 10 12 16 17 21 24 30 30 30 32 40 51 53 50 51 54 54 48 53 56 54 50 56 49 47 44
24 20 19 21 18 14 14 6 10 13 12 12 12 10 11 9 9 12 14 15 18 20 21 21 25 32 25 27 30 37 40 44 47 57 57 56 61 55 57 58 58 56 58 62
27 24 22 20 18 12 12 7 9 12 12 13 12 13 13 13 11 11 12 15 19 19 23 22 20 22 25 19 26 28 33 31 31 46 51 56 62 62 60 59 61 64 67 67
26 28 23 20 20 12 11 12 13 10 10 12 14 15 17 18 19 19 20 21 18 19 20 19 22 21 21 19 15 29 34 35 33 28 38 48 56 61 64 64 67 65 68 64
25 27 23 21 20 18 17 17 12 8 13 15 15 17 19 20 21 20 18 14 15 17 15 16 17 15 11 14 15 14 23 26 35 35 37 37 42 52 55 59 65 66 73 75
26 24 22 20 19 17 18 15 12 14 16 17 17 19 22 24 26 25 21 17 15 13 12 15 15 8 11 15 18 17 19 19 29 33 40 44 35 39 51 62 77 75 76 77
25 24 23 20 18 18 16 16 17 17 16 15 16 21 24 23 25 23 25 23 21 18 13 11 12 13 12 13 12 12 15 17 21 23 29 33 41 43 53 52 67 74 81 81
25 24 21 18 16 17 18 16 17 17 16 14 15 19 21 18 19 18 20 20 19 12 12 15 17 16 15 15 12 9 10 11 16 20 25 28 33 43 55 56 59 63 72 79
24 23 22 18 16 16 13 14 16 17 18 16 16 19 20 22 22 21 19 18 19 18 15 19 20 20 20 16 12 11 6 11 16 22 23 23 24 31 38 46 58 66 73 72
23 22 21 19 15 13 14 13 14 16 16 13 11 13 19 21 21 23 22 21 18 17 19 23 23 23 20 18 16 13 14 13 14 15 16 17 13 19 23 29 38 41 59 69
22 23 20 18 16 15 16 14 15 17 17 18 17 15 14 16 20 22 23 22 23 23 23 23 25 25 24 20 16 14 14 10 9 9 8 8 9 13 18 12 17 28 37 56
21 22 19 18 15 14 15 14 15 16 17 18 18 14 15 14 17 19 21 22 23 22 19 24 24 25 25 25 27 22 18 17 13 12 12 7 4 9 9 9 9 18 37 40
18 21 19 18 16 14 14 14 15 16 17 15 15 15 15 16 16 17 20 20 20 21 22 23 22 23 26 27 27 27 29 28 20 20 16 13 6 4 2 5 7 19 34 38
16 20 19 19 18 17 15 15 15 14 14 14 14 14 14 17 16 15 15 17 18 21 25 28 29 25 24 24 25 28 27 25 30 24 18 16 11 4 6 4 11 17 25 37
16 17 20 19 18 16 15 16 17 16 16 18 15 16 14 17 16 15 15 15 14 15 21 27 29 27 25 23 24 26 27 28 25 25 25 19 20 6 7 8 12 17 29 36
17 18 18 19 19 17 15 15 17 18 19 19 20 19 17 20 19 21 21 21 18 18 17 23 26 24 21 22 24 25 26 26 28 29 28 29 21 16 4 7 14 16 21 38
14 18 20 20 20 19 16 15 16 16 18 20 21 22 22 23 24 25 27 27 23 20 19 23 26 25 23 26 25 23 23 25 22 21 21 23 24 19 10 1 7 16 22 27
13 17 19 19 21 19 17 17 18 19 21 20 20 25 26 28 29 28 28 20 19 18 22 21 24 21 20 28 26 24 23 22 21 20 18 19 21 20 19 9 2 5 13 17
13 17 21 21 21 20 22 22 26 29 25 26 28 29 30 33 36 38 22 29 20 15 18 16 15 16 20 27 31 31 23 21 21 19 19 18 16 18 18 17 13 5 5 10
11 15 20 20 21 19 22 30 23 19 27 23 38 25 29 40 42 36 22 27 10 17 15 16 20 21 23 24 29 30 30 23 22 21 20 20 18 14 15 16 14 12 11 6
11 14 16 19 19 24 19 24 22 32 30 31 33 35 38 35 34 35 36 8 14 11 11 18 24 27 25 22 26 26 26 24 22 20 21 21 21 18 12 13 12 10 9 11
13 12 14 17 20 22 18 20 29 31 33 30 33 36 34 31 28 26 23 21 21 20 22 20 25 28 25 24 23 20 21 23 21 22 19 19 21 21 17 11 14 15 11 10
10 12 13 17 14 18 22 26 28 30 30 28 35 33 31 27 28 26 25 23 21 21 25 28 26 24 21 20 19 19 19 20 22 20 18 17 18 18 19 18 13 15 16 15
10 12 14 20 23 26 20 34 33 34 31 32 35 32 27 25 28 28 27 25 24 24 26 26 23 20 19 21 22 20 20 20 19 20 20 17 15 17 16 17 18 17 15 18

GFSNW_500_spd_057.txt.gz
Wind_Speed
32 28 20 18 16 15 14 11 11 10 9 7 3 1 2 4 1 11 12 17 17 20 24 27 28 29 32 28 29 37 40 41 41 45 46 49 48 46 51 54 51 54 51 44
30 26 18 17 20 14 12 10 9 7 7 8 7 8 4 9 9 6 11 17 16 11 9 11 20 27 32 37 37 36 34 35 39 43 41 37 48 48 49 54 57 57 54 50
29 26 21 18 20 15 10 10 6 5 10 10 8 5 5 3 2 2 2 6 6 4 7 8 10 13 15 19 33 39 45 40 41 42 53 49 48 48 44 52 58 60 56 53
26 27 25 18 18 14 11 6 7 10 11 10 9 9 8 8 8 7 7 5 7 6 8 14 17 17 16 16 24 33 40 51 50 48 51 55 58 54 51 51 59 64 62 58
26 26 27 19 17 17 10 8 8 8 8 9 12 11 12 11 11 11 7 9 9 9 10 16 19 21 20 23 26 32 34 41 46 56 54 56 59 62 61 60 55 63 65 67
26 27 24 20 17 18 10 10 13 14 11 12 13 13 14 15 16 15 16 17 19 19 17 16 15 17 24 27 27 27 25 28 28 40 47 56 63 59 61 62 60 60 63 64
26 27 24 19 17 18 14 15 13 10 7 11 13 16 17 18 18 16 14 15 17 17 16 15 14 16 20 23 24 22 16 18 25 27 30 40 54 59 62 63 66 61 66 64
26 25 25 19 18 17 18 16 11 13 13 14 14 14 18 17 16 18 16 13 14 10 9 13 16 20 21 16 18 20 20 16 20 33 32 33 36 51 58 67 67 64 69 69
25 25 24 21 18 18 18 16 16 15 15 13 13 17 19 19 21 13 15 17 10 9 10 11 15 13 12 12 17 20 21 24 23 22 25 30 23 30 39 54 72 69 71 73
24 24 24 22 19 18 15 16 17 18 16 14 16 19 19 20 20 16 16 17 15 13 10 10 9 8 10 10 11 13 17 17 20 23 25 19 33 36 43 49 66 69 77 79
23 24 22 20 17 15 15 15 18 18 18 17 16 19 18 17 18 19 17 15 16 15 12 11 11 10 10 11 10 11 12 15 18 19 20 24 25 32 44 46 51 64 69 76
22 22 21 20 16 15 17 16 17 18 17 18 17 19 18 18 19 22 22 22 18 17 15 15 16 17 17 16 14 13 14 16 15 19 21 27 25 26 34 42 48 55 63 69
20 20 20 19 17 15 15 15 16 17 17 16 14 11 13 14 15 16 18 19 21 18 19 19 20 20 22 22 22 16 14 15 16 16 20 19 23 26 34 37 39 41 51 64
18 18 19 19 17 15 15 16 16 16 16 15 13 12 14 14 14 15 17 19 21 21 22 21 20 20 21 21 22 25 25 18 14 16 19 18 20 21 27 33 34 36 39 46
15 17 17 18 17 16 14 15 16 16 15 14 12 11 10 12 11 12 13 15 16 17 19 23 23 22 21 21 20 21 23 25 25 19 14 12 14 17 22 26 25 27 33 36
15 16 16 16 17 16 15 15 14 15 15 16 16 14 15 11 19 16 15 14 15 16 19 20 21 20 21 23 22 21 22 24 27 27 26 17 12 10 14 19 20 18 21 28
16 17 18 17 16 15 15 15 14 15 15 15 15 18 20 20 22 21 19 21 22 21 18 21 24 23 20 19 24 23 22 22 23 26 27 30 18 14 10 14 14 11 12 11
13 18 19 18 19 18 16 16 16 15 16 18 19 20 17 20 21 24 24 21 27 26 22 22 21 23 23 22 22 25 27 25 23 25 26 27 31 22 14 8 13 13 10 12
12 17 20 19 21 19 18 17 17 17 17 19 20 15 19 19 20 16 22 30 26 26 27 18 20 22 25 21 21 28 29 31 29 26 25 24 24 30 21 11 10 16 15 11
10 15 17 19 19 20 19 19 20 22 21 20 16 17 11 39 22 25 35 33 22 20 21 17 18 20 19 18 21 28 30 30 31 30 26 24 23 22 27 18 9 10 18 17
8 13 16 15 17 19 18 18 29 30 21 21 35 31 36 38 36 43 44 37 27 20 20 13 13 15 19 21 25 29 28 29 28 30 27 24 21 21 21 23 22 7 3 19
8 12 14 14 17 20 22 18 31 20 33 31 32 30 34 40 43 38 33 33 28 22 19 10 11 17 20 26 28 30 30 29 25 25 25 25 20 18 19 19 21 21 6 5
8 12 12 15 17 21 24 26 30 26 35 33 31 28 34 32 31 28 27 25 17 12 12 14 18 14 29 29 29 29 31 29 23 21 23 24 24 20 17 16 16 17 20 9
8 12 12 16 18 16 21 22 32 28 31 34 35 29 42 32 26 26 26 21 17 18 17 21 21 26 27 27 27 29 27 26 21 23 20 23 25 20 18 15 14 13 14 18
9 12 13 17 20 20 16 21 27 32 33 30 32 35 29 26 25 27 27 25 22 21 21 22 25 25 25 26 25 26 28 25 26 23 22 21 23 22 16 16 14 13 12 11
10 12 14 16 21 28 28 29 23 32 32 30 35 31 30 28 27 27 26 26 23 23 25 23 21 25 27 24 24 26 27 26 24 23 23 22 22 23 20 13 14 11 10 10
10 13 13 17 21 19 28 17 26 30 33 31 32 30 30 30 27 25 24 24 21 23 27 26 18 19 25 27 27 26 26 26 26 26 26 25 22 22 23 16 12 13 8 10

GFSNW_500_spd_060.txt.gz
Wind_Speed
32 31 27 20 18 17 13 14 12 10 10 11 10 8 6 7 7 15 22 22 26 24 24 22 21 20 15 15 15 15 20 30 30 37 38 41 48 52 55 55 48 48 43 37
31 28 26 23 18 16 10 8 9 8 10 10 9 7 4 10 7 12 15 14 13 16 21 28 26 22 20 19 20 22 23 28 29 39 41 42 46 49 53 58 57 51 49 41
30 27 27 24 17 15 11 8 5 7 8 10 8 7 3 3 2 1 2 4 6 10 10 10 13 15 14 15 17 19 23 28 31 40 48 47 51 51 52 54 59 60 54 42
29 29 27 24 15 14 9 8 8 7 12 11 11 11 9 7 5 4 2 9 11 12 12 11 8 11 16 18 20 21 23 26 31 37 48 56 51 56 56 56 58 61 61 52
29 29 28 22 15 17 11 9 9 9 10 9 9 10 9 9 9 7 10 9 11 12 15 15 14 14 20 27 27 28 26 25 26 28 40 57 65 55 56 60 59 61 61 58
29 28 26 21 15 14 14 11 13 13 10 11 10 10 10 13 13 14 14 13 14 20 21 21 20 21 20 21 27 29 30 33 34 35 33 44 64 67 57 55 58 60 61 60
29 27 26 22 17 16 15 14 13 13 11 11 11 11 12 13 12 13 13 13 13 14 16 21 20 20 19 19 24 28 32 34 34 31 29 33 51 65 68 66 59 61 61 56
28 26 24 22 18 16 16 17 17 16 13 11 11 13 15 12 12 10 7 8 7 10 10 13 13 13 17 20 21 21 23 27 31 33 24 26 27 43 60 74 74 72 71 64
25 25 22 19 18 17 17 19 20 19 16 15 15 18 16 15 15 8 7 7 4 2 3 5 6 11 14 15 13 18 22 25 27 28 29 23 25 36 41 57 76 76 77 72
22 22 21 19 16 17 17 17 18 18 18 15 15 18 20 16 17 13 10 10 11 10 6 5 6 9 11 10 13 17 18 19 21 23 26 25 24 26 34 49 65 69 77 76
20 20 19 18 16 16 15 16 16 18 17 17 17 17 17 16 14 14 13 13 13 13 10 6 7 8 8 7 8 10 14 18 19 19 23 27 23 24 30 45 54 61 70 79
18 18 19 17 15 14 14 15 16 17 17 16 15 16 18 16 13 15 15 17 17 15 13 12 11 12 12 13 13 12 11 12 15 20 21 25 23 24 27 30 41 53 60 71
16 16 18 18 15 14 13 14 14 14 14 12 13 12 15 17 13 12 11 13 15 16 17 17 13 13 12 12 11 12 14 18 17 17 19 22 22 22 23 27 34 37 49 60
15 16 16 18 17 15 13 12 13 12 11 9 9 11 9 14 12 10 11 13 16 17 17 17 15 13 13 13 15 16 16 17 16 17 21 21 24 23 26 30 30 31 37 38
15 15 16 15 16 15 15 15 15 15 14 14 13 11 11 13 7 11 12 13 16 14 12 15 18 17 14 11 13 17 18 19 20 19 19 20 23 23 26 30 32 31 31 36
13 16 17 17 18 17 16 16 16 17 18 17 16 17 17 13 10 17 16 17 14 17 19 14 14 19 18 14 14 15 17 20 22 23 24 23 21 23 22 26 31 32 30 32
10 14 15 16 18 17 17 18 18 18 18 18 17 15 17 16 17 17 13 14 17 22 18 20 19 18 16 17 18 13 17 22 25 27 28 28 24 22 24 22 22 25 28 26
8 10 13 15 16 18 19 19 21 23 20 22 23 21 26 24 22 20 21 21 25 18 21 19 18 15 15 18 16 13 17 22 27 28 30 29 27 23 21 22 19 21 25 22
6 9 11 13 15 18 18 21 25 26 28 22 24 23 27 20 29 26 29 27 16 23 12 15 17 14 15 15 14 17 20 24 28 30 31 27 26 22 20 22 21 13 18 22
5 7 10 11 15 15 15 16 24 23 27 30 28 27 25 29 37 28 26 24 27 25 12 16 17 14 12 12 14 20 24 27 31 30 30 25 24 23 20 19 22 20 11 17
5 7 10 9 13 17 19 20 27 27 29 32 30 27 21 32 30 27 26 25 26 17 16 14 18 12 6 10 19 21 23 24 26 25 24 21 21 22 21 20 18 22 17 8
6 7 9 10 13 17 20 24 24 27 28 31 25 32 28 32 30 24 23 23 21 17 18 19 12 14 7 21 24 24 25 25 24 22 17 22 24 23 21 21 18 17 22 17
8 9 10 11 14 17 16 25 21 23 29 30 27 32 26 30 29 25 25 22 17 18 15 16 17 17 21 24 25 27 27 25 25 23 20 21 24 25 22 22 21 18 16 20
12 12 13 14 17 18 29 21 19 20 27 34 31 31 29 30 29 25 23 22 21 18 19 21 22 23 19 21 26 26 24 26 26 22 21 20 19 20 20 21 20 19 17 14
12 13 15 16 16 15 16 22 16 24 26 34 38 32 28 30 28 24 25 24 20 19 19 22 24 25 25 21 24 25 27 29 29 27 24 22 22 20 18 16 17 17 17 16
12 14 14 17 18 17 17 27 24 28 28 33 35 32 32 30 28 26 24 21 20 22 21 22 23 24 24 23 22 28 33 26 25 27 26 22 19 19 17 17 16 15 14 16
13 14 14 14 12 27 13 18 20 21 24 31 34 32 33 34 30 24 23 22 21 22 23 24 24 24 31 18 29 40 39 28 24 24 25 24 22 21 20 18 13 12 13 13

GFSNW_500_spd_063.txt.gz
Wind_Speed
32 32 31 29 25 17 13 10 11 13 12 11 7 4 3 20 17 16 18 18 18 17 17 16 17 18 22 17 18 24 28 27 26 35 40 42 44 44 45 46 48 46 43 42
32 32 31 30 25 13 12 9 10 9 10 10 8 5 5 0 3 14 16 15 14 16 18 19 17 13 15 16 18 21 23 26 32 37 38 42 44 46 46 47 48 47 47 48
31 32 31 29 19 16 11 7 8 9 8 9 9 6 6 4 1 2 8 12 13 14 17 17 16 13 10 9 10 13 16 21 28 41 44 42 41 44 46 48 50 49 51 54
32 32 34 28 15 17 14 10 8 9 9 8 9 10 9 6 3 2 3 6 8 9 12 14 13 12 13 14 17 19 20 21 20 26 46 47 45 46 47 49 51 50 54 57
31 34 31 25 16 15 15 13 12 10 8 8 10 10 12 12 10 8 6 8 11 15 17 18 19 18 17 16 20 24 23 25 24 23 25 43 52 49 52 54 55 53 55 57
29 31 26 25 18 16 16 16 15 13 11 8 8 10 10 11 12 13 13 14 14 15 19 21 23 23 22 21 24 25 27 28 28 28 25 24 34 55 58 59 61 59 59 60
27 27 22 21 20 18 18 18 16 16 13 12 13 11 10 10 9 10 11 13 16 16 18 22 26 28 27 25 26 26 26 29 31 32 34 34 37 37 45 68 66 67 66 64
23 23 21 18 17 18 17 17 18 16 14 12 13 13 13 13 12 11 9 12 14 13 15 18 23 24 25 23 25 28 29 30 34 35 35 35 39 41 43 41 72 71 75 72
20 21 19 17 16 17 17 16 16 15 13 14 15 14 13 15 16 11 8 8 7 6 8 9 11 15 16 19 20 21 20 23 26 29 32 35 31 35 40 43 45 73 77 78
17 17 18 17 16 15 16 16 16 15 14 14 14 14 15 15 16 15 11 8 7 4 2 2 4 7 11 11 12 13 16 18 23 26 29 32 31 32 37 41 40 50 73 81
14 15 16 15 15 14 13 14 16 17 16 14 14 14 15 12 12 12 12 13 13 11 9 7 5 6 7 8 10 12 13 14 13 16 24 27 25 28 35 37 35 33 47 72
15 14 15 15 14 13 12 12 12 14 14 14 12 11 12 11 7 7 7 8 10 9 8 5 3 3 3 4 4 5 6 6 8 11 16 16 16 21 28 31 34 38 39 47
14 15 14 14 15 15 16 16 15 15 17 16 16 15 14 14 16 12 12 8 9 9 10 8 5 4 4 4 3 5 7 9 11 11 13 14 14 15 19 27 31 31 34 41
13 15 15 14 15 15 15 16 16 15 16 19 18 20 18 19 15 15 15 16 15 15 13 14 12 12 11 10 8 7 8 11 11 14 18 19 18 19 21 22 22 26 31 32
11 14 15 15 16 16 16 15 17 18 17 16 18 18 17 19 22 20 19 21 22 24 21 17 17 17 15 16 14 14 11 10 11 13 18 22 22 23 23 25 26 25 25 28
9 11 13 14 16 17 19 18 18 18 16 14 16 19 21 22 24 25 25 25 20 22 22 20 19 20 18 19 18 17 15 13 17 20 22 26 28 27 25 26 26 27 24 26
7 8 10 12 14 17 19 19 16 26 21 13 16 18 20 20 19 24 21 19 23 31 17 19 21 22 20 18 16 17 18 17 19 21 24 29 31 32 28 26 26 26 25 22
6 7 7 10 13 15 15 16 19 21 21 26 24 19 18 14 20 20 15 22 22 22 18 13 18 21 18 15 16 13 14 16 19 23 27 31 32 31 29 25 24 23 24 23
5 6 6 8 12 15 16 18 26 23 22 27 29 18 25 23 24 25 23 20 19 20 22 27 25 27 22 19 14 13 14 18 21 22 25 31 30 26 26 24 22 22 22 21
7 7 7 9 11 15 15 20 25 20 26 29 28 29 28 28 25 28 23 22 24 24 20 20 21 27 22 19 11 11 16 20 22 23 26 29 27 19 20 23 23 21 22 21
8 9 8 10 13 16 17 18 23 28 28 28 31 29 31 27 27 30 24 22 19 19 21 15 13 14 12 11 12 19 23 22 25 25 26 26 26 22 23 23 25 22 20 22
8 9 10 12 14 15 19 20 28 18 19 23 30 30 31 27 28 29 24 21 19 19 18 15 15 14 13 14 21 24 20 21 20 19 21 23 25 23 23 24 24 21 18 19
9 9 11 13 16 17 21 22 21 18 24 23 26 29 31 30 25 29 24 23 21 17 16 16 16 16 17 18 18 19 18 19 19 21 21 23 25 24 23 24 26 22 21 20
14 15 15 17 18 19 20 23 23 25 26 26 25 26 30 31 30 29 25 24 21 18 17 19 20 19 22 22 18 19 20 17 22 25 24 22 23 24 23 23 26 26 22 22
15 15 15 15 16 18 23 22 20 22 24 23 25 27 30 28 28 27 25 24 22 21 22 23 23 24 25 22 22 26 24 27 32 33 25 20 19 21 18 18 21 23 23 21
14 14 15 14 16 15 18 18 19 21 22 25 28 28 31 28 26 29 24 22 23 23 24 24 23 24 25 27 27 27 24 30 36 36 26 17 18 19 23 24 23 23 24 21
13 13 15 15 17 19 24 19 21 23 25 25 30 30 31 28 25 29 28 27 27 25 25 26 25 25 25 27 28 29 26 30 37 34 29 24 18 17 27 26 25 26 26 18

GFSNW_500_spd_069.txt.gz
Wind_Speed
32 35 34 29 22 26 21 15 12 10 14 11 9 5 1 2 4 2 3 2 20 19 18 18 18 20 20 21 21 25 28 32 33 37 38 39 39 40 41 42 42 42 39 37
30 32 32 30 24 22 20 18 14 10 5 10 11 10 7 1 6 8 8 7 7 11 18 20 21 22 22 22 21 22 23 27 32 34 37 38 39 40 41 42 43 44 42 42
27 27 28 27 26 23 22 18 15 12 5 6 7 8 9 6 3 2 6 11 14 13 16 18 18 19 22 24 26 24 26 27 29 33 35 36 38 39 40 42 44 44 47 44
24 25 25 27 27 24 22 20 18 12 10 6 6 6 3 3 3 2 3 1 6 12 16 17 19 20 21 23 26 27 29 32 34 36 37 40 42 42 42 43 45 46 47 46
20 22 22 25 24 25 23 21 20 15 11 9 8 6 5 4 3 4 4 4 3 4 6 7 11 17 20 23 26 28 31 30 32 32 35 37 38 40 41 43 45 46 48 47
16 19 19 23 23 23 22 19 18 18 17 16 13 13 12 9 6 5 5 5 6 7 8 9 8 9 13 17 19 20 20 21 22 24 27 31 35 38 39 40 40 42 46 47
13 15 17 19 21 22 20 20 20 19 19 18 17 16 15 13 9 6 4 4 6 8 12 14 16 16 18 18 19 20 21 19 19 21 26 29 28 30 35 40 42 42 42 44
11 11 12 14 17 18 18 17 17 18 19 20 18 18 18 19 15 12 11 10 6 7 10 14 17 20 22 23 24 25 25 25 23 23 24 28 31 32 32 32 36 43 46 46
10 10 11 9 12 12 13 13 13 14 15 15 17 17 16 16 15 16 15 14 13 9 6 5 8 13 20 23 24 25 26 27 25 24 22 25 28 30 35 36 39 41 41 43
9 9 9 10 10 10 11 11 11 12 14 14 13 12 13 13 14 13 12 13 14 13 12 9 7 7 8 11 16 20 24 24 23 24 25 26 28 33 37 39 40 43 46 45
8 9 9 9 10 11 12 12 11 12 12 13 13 13 12 11 11 12 12 12 12 14 12 9 7 6 5 8 9 12 15 17 19 21 21 21 23 27 31 34 36 38 41 44
6 8 7 8 10 11 12 13 13 14 14 14 12 11 12 10 10 11 12 13 13 12 12 12 12 10 7 6 6 8 10 12 15 17 15 15 18 21 24 27 31 34 38 42
6 5 6 7 9 12 13 13 16 20 14 12 15 16 16 16 16 17 15 14 15 15 16 16 15 14 15 14 14 14 11 11 12 12 9 10 12 13 16 19 22 26 30 35
7 4 3 4 7 10 12 11 11 16 16 17 18 16 15 16 17 16 16 14 16 17 20 20 22 22 19 19 19 19 16 18 19 19 18 17 16 16 16 17 22 26 28 29
9 5 3 3 4 6 11 12 17 15 14 19 18 18 14 15 18 19 15 14 21 24 25 17 18 21 24 21 21 21 24 22 23 25 24 21 21 24 26 27 25 26 30 32
11 7 5 4 2 5 7 13 15 19 11 19 25 21 20 20 22 21 18 19 23 26 21 17 22 18 22 23 21 27 28 25 24 25 28 26 24 26 26 28 30 32 35 35
12 9 7 7 4 6 8 12 15 17 18 19 21 19 22 22 23 21 19 22 23 24 19 17 19 20 24 21 25 23 28 22 24 26 27 27 26 26 27 30 33 38 39 40
13 10 9 9 7 8 9 11 14 16 19 18 16 20 23 26 27 28 24 22 25 22 20 17 15 19 20 15 19 17 22 18 21 24 25 26 27 28 29 32 36 39 40 40
14 11 10 10 8 8 9 11 14 19 19 16 19 21 24 26 27 30 27 24 25 24 22 21 20 18 16 16 20 22 26 25 24 24 25 27 28 30 30 32 34 35 36 35
15 12 11 12 9 8 9 12 15 17 15 18 22 26 24 27 28 30 31 29 26 25 23 21 18 16 17 17 15 11 17 28 21 23 27 31 27 27 28 25 26 27 30 33
17 14 14 12 11 9 10 12 16 20 20 22 23 26 23 27 29 30 33 32 27 27 24 21 19 17 16 15 14 12 12 16 21 26 30 33 29 28 24 22 23 26 28 31
16 16 15 13 10 10 12 13 17 20 19 17 21 24 25 26 29 30 34 30 26 28 28 23 22 21 19 19 18 17 19 20 23 25 27 29 31 30 29 29 30 26 28 31
16 17 16 14 11 11 13 15 16 13 23 24 22 24 27 28 32 34 32 29 27 28 26 24 23 24 23 21 20 20 20 21 22 24 26 27 30 35 35 38 39 33 28 28
16 18 16 16 14 15 16 18 18 21 22 23 25 27 28 32 31 35 32 31 36 29 28 25 24 22 22 23 22 21 22 23 25 28 30 30 31 30 32 29 37 30 25 25
15 16 16 14 14 17 19 19 20 21 22 30 27 33 32 29 30 31 33 38 38 30 27 24 23 23 22 23 23 23 24 26 29 32 33 34 35 34 34 35 29 19 22 22
14 14 13 12 14 17 19 19 20 23 26 27 30 30 35 31 28 28 32 37 32 30 27 23 22 23 23 23 24 26 28 31 34 35 37 36 37 38 34 33 30 25 23 26
13 12 10 11 15 17 17 18 20 19 24 27 28 30 32 31 29 34 37 35 32 29 24 22 22 23 24 25 27 30 33 35 37 37 36 35 33 31 34 35 29 35 30 25

GFSNW_500_spd_072.txt.gz
Wind_Speed
24 26 29 27 23 20 19 16 14 10 6 12 11 9 6 3 6 7 18 15 11 10 23 18 25 22 22 25 32 36 35 38 38 43 42 42 42 45 43 40 38 35 28 37
22 23 25 25 25 19 18 15 13 8 7 6 9 10 7 6 4 3 4 5 9 15 13 18 16 14 21 17 21 27 39 38 36 38 39 41 43 43 42 43 39 30 30 38
19 20 23 22 24 20 19 18 13 12 5 6 6 6 4 4 1 1 2 5 6 7 14 19 19 18 18 16 15 16 19 30 38 26 33 39 42 42 43 43 41 28 34 43
16 17 19 21 21 21 21 21 19 14 11 9 8 8 6 4 2 1 1 4 13 16 14 13 15 16 16 20 21 22 22 22 24 37 39 39 40 41 42 44 45 44 39 45
12 14 15 18 19 19 22 23 20 19 17 15 13 11 10 7 4 3 3 4 5 10 16 19 19 23 25 26 27 28 28 27 29 30 30 35 39 40 43 44 45 46 52 46
10 10 12 14 15 15 18 20 20 20 19 18 18 18 18 14 7 4 2 2 4 6 8 11 12 16 23 26 30 31 32 31 30 31 30 32 34 37 39 43 44 48 48 49
8 8 9 10 11 12 13 14 15 16 18 17 16 16 18 19 12 7 5 2 2 4 6 9 11 12 12 16 22 25 26 27 28 29 26 31 35 35 37 40 40 44 46 47
9 7 7 8 9 9 10 11 12 12 12 13 12 11 14 16 17 13 10 9 5 4 5 8 12 15 18 20 19 21 21 22 23 24 24 28 28 29 34 37 41 43 44 45
8 6 7 7 9 8 11 11 11 11 11 11 10 10 9 10 11 12 12 12 11 9 3 2 4 9 15 20 24 27 28 28 29 29 29 28 32 30 33 34 37 38 42 46
7 6 7 6 7 7 9 10 11 11 11 11 12 10 9 7 7 7 7 8 8 9 8 7 4 3 6 9 13 20 27 31 32 33 32 31 25 23 30 36 41 39 40 41
7 5 4 3 5 6 7 8 9 10 9 10 10 10 10 10 9 9 9 6 6 7 7 7 7 6 5 6 9 11 15 20 24 27 28 29 29 29 30 32 35 39 42 45
10 5 4 2 2 5 6 8 13 13 12 12 11 10 11 13 12 11 11 10 9 9 9 10 10 10 11 9 8 8 10 14 18 21 23 27 28 27 27 28 31 37 39 44
13 9 5 2 3 3 6 3 9 11 10 13 14 12 9 10 13 14 12 11 10 11 11 14 16 18 17 16 16 15 14 11 11 14 16 19 20 20 22 24 26 28 30 34
15 12 7 5 3 2 5 8 10 9 9 15 14 14 13 13 18 19 19 14 12 15 20 23 25 20 22 23 23 22 19 18 18 17 17 17 16 16 17 19 21 23 24 24
17 15 10 7 6 4 1 5 9 10 7 10 15 14 15 17 18 20 17 16 16 18 21 23 18 16 20 20 19 21 23 24 23 23 25 26 26 25 25 24 24 26 29 28
18 16 13 10 8 6 3 4 7 10 9 10 13 9 14 16 19 22 22 20 19 19 21 18 16 17 20 16 16 18 22 24 29 29 29 30 29 28 29 31 30 29 29 32
17 17 14 13 11 8 5 5 6 6 10 11 12 11 15 18 19 21 22 22 21 21 21 18 16 17 18 18 22 23 26 27 26 30 30 28 29 30 32 34 34 34 34 34
17 18 14 14 13 10 8 8 9 10 11 12 11 14 16 16 19 21 21 21 23 21 22 21 20 19 20 19 19 20 23 27 25 27 25 25 29 29 32 33 33 35 35 36
16 18 14 13 12 9 9 10 10 11 12 12 15 16 17 16 18 20 20 25 23 20 21 22 23 22 20 19 19 18 19 23 22 26 25 28 30 31 32 31 33 36 37 38
17 18 15 12 13 10 9 10 10 12 15 17 17 17 17 18 21 20 21 23 22 23 24 26 23 21 22 21 21 19 17 14 17 23 26 28 30 32 32 32 34 34 37 36
16 17 15 13 11 12 12 11 12 14 16 13 16 17 18 19 20 23 29 30 23 22 24 27 23 20 21 21 21 20 18 16 16 14 18 24 27 29 33 35 36 37 35 33
14 15 15 13 11 11 12 12 14 14 13 20 19 19 20 22 23 24 27 25 25 30 30 25 23 20 20 20 19 19 18 19 21 21 24 27 29 30 32 33 34 36 36 39
13 14 15 14 12 11 12 14 15 15 18 21 21 27 21 27 26 23 22 24 26 32 27 25 21 20 21 20 18 17 17 17 19 22 22 25 25 28 30 32 35 36 34 37
12 13 14 14 13 13 15 15 15 15 18 20 21 20 27 25 25 24 20 22 29 31 28 24 23 19 20 20 18 17 18 19 21 23 25 28 30 30 32 35 36 36 36 35
11 13 13 13 13 14 16 15 14 15 19 21 21 22 23 21 25 26 20 22 28 33 25 26 22 22 18 18 18 20 22 23 25 27 29 31 31 31 34 35 38 38 38 36
11 12 11 11 14 14 13 12 15 17 18 19 23 26 26 26 32 22 21 30 37 30 28 21 20 19 20 21 22 23 25 27 29 30 32 35 36 37 35 35 33 37 40 37
11 10 10 12 13 12 12 15 16 18 21 21 23 24 31 31 29 23 27 29 27 30 22 20 22 21 22 22 24 26 28 30 32 34 37 38 37 35 34 34 33 40 37 36

GFSNW_500_spd_075.txt.gz
Wind_Speed
17 17 20 21 20 18 17 11 12 7 5 9 10 7 3 2 7 4 10 26 26 31 32 28 27 22 32 37 37 40 45 39 22 38 41 48 48 32 35 35 34 26 32 35
14 14 16 17 17 17 19 12 11 7 8 5 7 8 9 6 4 2 6 2 10 21 36 27 38 35 30 36 39 41 40 36 19 36 44 45 45 46 44 31 26 31 30 37
12 11 12 13 14 18 18 15 12 11 9 7 7 7 5 5 2 4 6 4 1 1 7 24 18 19 24 26 37 37 39 42 33 24 21 34 44 46 46 44 32 28 33 40
9 9 9 9 12 15 15 18 15 14 13 12 10 8 6 4 4 3 3 5 8 8 7 7 12 14 17 16 19 22 26 38 47 37 39 34 30 48 47 46 41 25 37 43
8 6 6 7 7 10 13 15 13 13 15 17 16 17 11 5 2 3 4 5 5 11 19 21 16 11 15 20 18 18 18 13 26 41 43 47 46 47 51 49 46 43 27 46
7 6 5 4 5 6 9 11 12 12 12 12 14 16 18 13 8 3 2 4 7 8 10 16 15 20 21 22 22 24 25 21 24 18 34 47 49 52 43 44 46 42 37 58
7 8 7 6 4 5 6 7 8 9 9 11 11 12 14 16 13 10 7 4 1 4 9 11 13 16 19 24 28 28 30 32 27 22 28 28 32 42 46 40 47 44 52 56
11 9 9 8 8 9 7 8 8 9 9 7 7 8 9 10 11 11 11 11 7 2 2 7 12 15 15 15 17 23 27 29 31 29 27 22 32 32 33 36 43 39 44 48
13 9 9 8 6 7 8 8 9 9 8 8 8 7 7 7 7 7 7 8 7 7 5 2 5 11 17 20 20 19 19 23 26 28 30 25 31 29 29 32 40 38 44 45
15 9 7 7 6 5 5 6 8 8 7 6 6 6 7 6 5 5 5 6 5 4 3 3 2 4 8 13 20 24 26 27 27 28 29 31 31 24 25 29 37 34 38 41
15 9 6 5 5 3 1 3 6 7 7 6 6 5 7 8 7 7 7 7 7 7 7 6 6 6 7 8 12 17 25 31 34 35 37 38 34 31 33 32 32 36 35 37
18 13 7 8 8 5 4 3 5 3 6 7 9 6 7 9 12 13 13 9 7 7 8 8 8 11 13 14 14 15 18 22 27 33 40 41 41 37 37 36 34 34 36 37
22 15 10 9 10 7 4 2 2 1 4 6 7 8 8 8 10 13 13 13 13 11 12 14 17 19 20 19 22 22 20 20 20 24 28 31 35 36 38 39 38 36 37 39
26 20 14 12 12 9 8 2 2 1 3 3 6 8 5 7 10 11 12 11 12 11 14 18 21 24 21 20 21 26 26 25 25 24 23 25 29 32 33 34 34 35 35 35
29 25 18 14 14 12 10 4 1 1 4 8 8 5 4 9 11 12 12 12 14 12 12 14 18 20 17 17 18 20 25 31 31 27 30 28 27 27 28 28 28 29 30 30
32 28 21 16 15 14 11 7 4 3 4 7 7 6 8 11 11 12 13 13 16 15 13 15 16 18 18 17 17 23 23 23 31 31 35 34 34 32 33 34 33 32 33 33
26 29 20 17 16 15 12 9 6 5 9 10 8 9 11 12 11 12 13 12 15 17 13 16 18 20 19 18 21 23 24 27 31 31 33 32 38 37 37 38 38 37 37 39
23 28 19 18 16 15 14 11 9 8 9 10 11 15 15 14 14 15 17 16 21 18 16 16 20 25 25 22 22 22 22 22 23 28 36 36 38 41 37 37 38 38 41 42
19 28 18 17 15 14 14 13 11 11 10 11 15 15 14 15 17 18 20 22 23 18 16 18 26 26 26 23 21 21 22 22 21 21 25 31 31 33 34 36 36 36 35 37
20 25 18 16 14 14 13 12 11 12 12 13 11 14 16 17 17 19 22 20 19 18 20 26 25 23 22 21 22 22 21 19 16 15 16 25 24 25 26 29 32 33 33 36
26 19 17 15 13 11 13 14 13 13 14 13 14 17 19 22 20 21 20 18 16 21 23 27 23 24 20 19 20 20 19 17 16 15 18 18 19 22 21 24 27 29 33 35
21 15 15 15 14 12 11 13 14 14 15 15 17 18 18 19 20 24 21 18 17 19 26 26 24 20 17 18 19 20 18 16 16 16 19 21 25 29 31 32 32 33 34 35
15 12 14 15 14 13 11 12 14 15 14 17 17 18 19 22 25 24 21 19 20 20 29 29 23 17 15 18 20 19 17 16 17 17 18 20 23 26 28 30 31 33 34 36
12 14 13 13 13 13 14 15 15 13 15 18 19 21 19 22 24 20 23 24 26 24 32 31 22 14 18 18 19 19 20 20 21 22 23 25 26 27 29 31 33 37 38 38
11 11 13 12 12 13 14 15 15 15 17 19 20 18 22 26 23 26 30 27 25 28 27 22 16 18 21 21 21 23 22 23 26 26 26 29 31 33 35 35 35 38 39 38
12 10 11 11 11 11 11 11 13 15 16 17 20 22 22 20 29 31 30 24 20 24 26 19 16 20 23 24 23 24 25 26 27 29 30 32 34 36 37 38 39 36 38 39
9 9 9 11 10 9 10 11 14 14 16 18 21 17 17 35 45 35 34 20 29 27 17 19 23 24 25 25 24 25 25 27 29 30 33 36 37 37 36 35 34 34 34 32

GFSNW_500_spd_078.txt.gz
Wind_Speed
11 12 11 12 13 16 15 10 10 6 2 5 1 6 11 8 4 12 12 27 33 21 25 25 36 32 27 35 34 31 37 36 17 20 36 43 45 38 36 41 34 29 36 40
7 9 9 9 10 12 13 9 9 8 7 10 6 8 7 7 5 3 13 22 33 32 30 28 23 27 26 21 35 37 47 40 22 15 21 41 52 53 40 34 31 39 34 40
6 8 6 6 7 8 11 8 9 7 5 4 7 8 7 5 5 5 6 7 7 25 36 35 31 36 30 34 34 38 40 41 21 30 27 23 41 47 47 46 39 24 38 41
9 7 6 3 3 5 7 8 9 9 10 9 8 8 6 5 4 4 4 6 7 11 25 9 36 28 38 35 29 39 43 47 25 30 30 32 27 38 45 50 48 31 34 45
8 8 8 3 2 3 5 7 8 7 8 8 10 12 9 5 2 3 4 3 6 10 7 15 14 16 17 22 27 34 44 42 51 51 33 35 35 23 33 44 48 23 45 39
12 10 10 7 3 1 2 4 5 6 7 8 10 10 11 10 7 4 1 4 4 6 9 13 12 11 15 16 18 23 32 39 37 47 40 40 45 48 46 50 47 32 30 36
13 15 13 11 7 5 4 6 6 6 6 6 7 8 9 11 12 10 7 3 2 4 6 7 14 20 20 19 20 22 23 30 26 13 23 54 45 47 54 55 27 36 49 34
13 19 14 13 10 9 7 8 7 7 6 5 5 5 6 7 7 8 8 8 5 3 5 8 10 11 11 14 19 24 24 25 24 26 23 20 35 47 50 40 33 44 52 57
15 21 14 13 10 8 6 6 6 5 6 4 4 4 4 5 5 6 6 6 5 5 4 2 5 9 12 16 15 16 20 23 30 31 32 26 30 27 33 46 52 50 43 49
17 23 15 12 10 8 5 3 2 1 1 1 0 2 4 4 5 5 5 6 5 4 3 2 1 3 6 10 14 20 21 20 22 26 29 28 28 28 32 32 35 36 45 53
14 23 14 12 10 9 6 5 5 4 1 2 2 3 4 5 6 8 7 6 6 6 5 5 5 5 6 7 9 13 18 24 27 26 26 28 39 42 35 34 32 32 32 35
10 23 14 12 11 10 8 8 5 4 1 2 4 3 2 4 6 10 11 11 8 6 7 7 6 9 11 12 14 15 18 21 23 29 34 37 40 38 35 33 33 34 35 35
16 24 16 12 13 13 11 11 5 6 4 1 1 0 2 2 5 7 7 8 9 8 9 10 12 13 16 18 20 22 23 25 25 26 28 34 42 44 40 40 41 40 42 38
17 28 17 14 15 15 12 11 7 7 7 6 6 7 6 6 9 10 10 8 9 9 10 11 13 15 16 18 17 18 22 28 28 29 30 31 31 36 35 38 41 39 40 41
17 30 23 17 15 16 16 11 8 7 6 6 7 6 7 9 11 11 11 10 9 11 13 13 13 13 15 18 18 15 21 25 30 30 34 35 34 33 32 33 35 37 38 39
14 29 33 22 16 17 18 15 10 7 4 4 9 10 9 11 14 13 12 11 11 11 17 16 15 14 18 19 19 23 26 28 30 28 29 37 39 37 34 30 31 33 34 35
15 19 38 23 18 18 18 17 13 10 8 6 7 8 11 13 14 12 13 14 15 17 14 15 18 17 22 22 25 26 27 28 29 29 30 31 34 43 38 38 38 36 35 35
20 24 35 26 19 18 18 18 15 12 11 10 11 12 12 12 12 15 15 16 19 13 13 15 16 22 27 26 26 26 24 24 26 27 30 28 32 38 39 41 44 42 42 43
16 22 36 28 20 18 18 18 16 15 13 12 12 14 12 13 18 15 17 17 15 15 14 15 20 24 28 28 26 24 20 21 22 24 26 28 28 33 38 40 41 45 47 44
19 18 34 28 19 18 17 17 16 15 14 13 13 15 16 19 17 24 16 19 20 19 17 16 20 25 29 28 27 20 17 16 18 19 20 20 21 27 25 28 35 40 42 43
12 17 36 29 19 15 15 16 15 15 14 13 15 15 18 19 21 20 21 22 22 21 19 21 22 26 27 27 27 19 18 18 17 16 16 19 23 24 28 25 26 25 30 30
11 18 28 26 16 13 12 12 14 16 16 14 15 15 19 21 22 21 23 22 22 24 23 26 26 26 27 28 23 21 22 19 18 16 16 17 21 26 27 27 28 29 29 30
8 14 15 20 15 14 16 14 15 15 14 14 16 19 21 22 23 20 21 21 25 29 24 24 29 28 25 20 21 23 20 19 19 19 18 18 20 23 26 29 32 33 33 33
9 13 14 15 17 17 16 15 14 14 15 16 20 23 24 21 21 20 25 28 32 29 19 25 23 23 16 22 23 26 24 25 25 25 25 24 28 28 28 29 30 31 35 36
12 14 15 14 14 15 15 15 16 15 13 23 21 16 24 22 23 23 33 38 34 21 26 24 17 22 20 23 30 29 28 26 26 28 29 30 30 33 35 36 37 37 38 40
12 13 14 13 15 14 12 10 13 15 12 16 20 20 17 17 21 25 28 26 21 25 21 20 14 19 24 26 26 27 28 28 29 29 31 33 35 35 37 39 41 42 42 44
11 12 11 13 13 11 10 10 11 10 12 14 14 14 15 17 17 23 25 25 25 24 18 19 22 23 22 24 24 26 27 28 29 31 32 34 37 39 40 41 41 42 44 44

GFSNW_500_spd_081.txt.gz
Wind_Speed
23 6 6 10 8 7 9 10 3 5 8 10 13 10 13 11 11 2 12 14 23 20 33 37 21 28 31 34 37 37 44 29 37 36 33 35 39 40 37 47 42 32 33 40
26 8 5 10 5 4 6 7 9 6 6 3 5 8 12 10 8 6 13 19 24 25 27 22 29 23 26 34 35 37 38 35 32 35 37 37 44 35 45 46 47 39 37 39
17 11 8 7 4 2 3 5 4 6 6 7 11 11 8 6 6 4 4 14 23 32 29 20 23 25 32 34 29 36 36 38 34 38 33 37 43 46 49 41 53 43 46 39
28 14 9 9 5 3 1 3 2 5 6 6 8 10 10 7 4 5 2 10 16 27 36 34 28 31 24 31 23 19 33 33 43 34 34 34 44 52 50 47 48 44 44 36
27 15 13 10 8 5 1 2 1 2 4 7 8 12 11 8 4 4 3 4 7 12 3 28 30 30 34 24 24 22 30 38 43 43 32 33 33 36 46 44 40 43 55 54
24 16 18 13 10 7 5 2 2 3 4 4 7 9 10 9 7 3 0 3 7 3 8 12 29 19 26 20 24 32 34 35 43 48 46 37 37 34 34 43 40 54 59 61
25 15 23 16 14 9 6 5 5 6 6 5 5 5 6 7 8 7 5 2 2 5 1 7 9 11 16 12 16 21 23 33 38 47 48 43 31 44 39 39 43 54 57 55
23 15 25 19 16 13 8 8 7 7 7 4 4 5 5 5 5 6 7 6 5 2 4 5 7 10 11 14 19 20 17 20 31 41 48 43 43 41 46 41 48 49 54 57
21 11 24 20 16 14 10 9 7 6 5 3 3 2 4 6 4 4 2 3 4 4 3 3 6 6 7 8 11 15 22 24 23 28 40 38 34 45 47 37 45 48 53 52
14 11 28 21 15 13 11 9 7 5 3 2 3 1 1 4 6 7 4 3 3 1 1 2 2 2 5 5 9 10 15 16 20 26 31 35 37 30 31 44 46 50 50 47
10 14 30 21 15 14 12 10 8 7 3 3 3 2 0 3 7 10 11 8 7 2 1 2 1 1 3 6 7 9 10 15 20 23 25 34 35 36 42 34 31 37 43 44
11 8 29 20 15 16 13 12 10 9 6 6 5 3 2 3 7 9 11 10 10 8 5 3 4 6 7 9 11 14 17 18 17 19 25 31 31 35 37 42 37 30 33 36
10 9 30 17 17 16 15 15 11 10 9 7 5 5 4 5 5 7 8 8 7 7 5 6 6 8 11 12 15 18 18 23 23 25 26 28 31 36 37 36 36 37 39 38
9 9 27 17 18 17 16 16 14 10 12 8 9 8 8 8 7 8 7 7 7 6 7 8 9 11 10 13 12 16 22 22 23 26 31 34 34 31 33 37 40 42 43 42
10 11 27 20 17 17 18 16 15 10 9 9 8 5 5 5 9 10 10 10 10 10 9 14 15 14 15 17 19 21 25 26 26 26 25 30 34 38 37 33 32 35 37 41
12 6 23 30 22 18 19 17 14 12 10 6 7 8 5 7 10 11 11 13 14 14 16 17 11 12 17 17 20 26 26 29 28 30 29 37 34 34 39 40 34 34 33 34
13 7 11 29 28 19 19 20 20 15 12 10 7 4 7 10 10 10 13 14 15 16 18 15 15 15 16 19 25 26 29 31 30 31 34 34 34 33 33 34 35 37 36 34
9 9 13 14 34 22 19 20 20 19 16 13 12 9 8 10 10 13 14 15 16 17 16 17 18 15 18 20 24 29 32 31 31 30 30 31 29 33 34 32 35 34 39 41
10 10 15 14 41 24 20 20 20 20 17 16 16 15 13 13 16 18 17 19 17 18 20 20 19 18 20 19 22 29 31 28 29 27 28 29 27 30 32 30 33 31 33 38
17 19 14 10 40 27 20 19 19 19 19 16 16 19 17 19 19 19 20 19 22 23 20 22 23 23 28 23 24 28 26 26 25 24 25 26 26 28 26 26 25 27 31 38
14 13 11 12 35 28 19 17 17 18 17 16 17 18 20 21 20 22 24 20 22 23 20 26 27 24 20 24 28 27 24 23 25 27 24 22 22 22 20 24 31 35 31 27
12 11 10 18 34 25 18 15 15 15 17 18 19 19 21 21 25 28 28 23 26 25 31 34 25 20 21 25 30 21 17 20 22 26 25 21 21 20 22 24 28 27 25 29
4 3 4 18 25 19 16 14 13 14 17 17 17 20 20 15 24 22 21 16 22 23 24 24 24 24 20 25 15 9 16 26 25 26 29 28 24 23 21 21 27 26 26 29
6 2 3 6 18 18 14 16 15 19 21 20 6 17 22 18 18 17 13 19 21 23 19 22 25 20 18 15 20 32 34 35 31 29 27 28 28 28 27 30 32 31 31 33
5 6 9 10 14 15 19 19 18 18 17 17 13 18 18 17 16 18 18 23 24 20 22 23 20 18 18 20 23 28 30 29 29 28 28 28 29 30 31 33 35 37 38 39
9 9 11 13 16 17 16 14 12 12 11 17 16 14 13 12 14 18 20 23 24 20 20 21 17 20 25 24 24 25 27 29 30 29 30 30 30 32 34 37 39 41 43 43
9 11 9 11 14 14 14 12 14 16 15 14 16 15 11 14 17 19 21 24 21 22 22 21 18 24 26 25 25 26 28 28 29 29 29 30 33 35 37 38 40 41 42 44

GFSNW_500_spd_084.txt.gz
Wind_Speed
29 26 10 8 9 10 5 6 9 9 7 4 4 5 9 10 5 3 20 18 16 22 26 29 31 25 20 22 36 35 36 37 42 42 39 32 35 44 47 46 39 41 44 48
29 29 10 10 9 8 4 4 5 4 6 10 11 10 11 10 6 2 10 21 18 17 19 24 27 25 26 30 28 31 36 34 36 36 33 34 41 48 53 54 48 46 46 44
32 27 13 12 9 7 5 4 2 4 4 5 9 13 12 5 6 4 5 11 19 21 18 21 34 22 29 28 31 28 30 33 32 41 41 41 48 49 58 57 53 51 49 48
28 23 17 14 10 7 5 4 2 5 3 5 8 11 10 9 4 4 6 7 10 16 21 20 18 21 26 25 27 29 31 34 40 40 48 42 47 50 49 55 55 57 53 49
26 19 11 19 12 9 6 3 1 4 6 9 5 8 13 12 6 2 6 4 3 11 11 17 28 25 27 26 17 17 37 34 37 50 43 50 49 54 51 44 52 49 53 55
22 18 11 22 15 12 10 6 5 5 7 8 8 8 10 11 9 4 2 2 4 8 14 8 16 25 24 24 25 20 28 30 39 43 47 37 38 45 45 50 48 54 44 48
22 15 12 25 18 14 12 10 7 7 5 6 6 7 5 6 7 7 5 3 5 6 6 8 12 22 23 21 15 17 27 25 27 34 45 40 40 37 37 37 46 51 56 54
20 12 9 25 23 17 13 12 9 8 3 5 4 7 6 5 5 5 6 6 6 5 6 5 9 13 10 16 15 18 23 32 33 34 38 40 40 39 41 41 40 43 46 51
19 7 7 21 26 18 16 13 11 8 3 5 3 5 4 6 6 6 4 3 5 6 5 5 7 10 10 9 13 16 18 20 24 30 36 40 37 42 51 29 43 55 52 53
13 4 6 28 28 18 17 14 10 6 4 4 2 2 3 6 8 8 7 6 4 3 3 3 3 7 6 10 11 14 13 14 20 23 25 31 35 35 43 49 40 41 44 47
10 10 15 34 26 18 16 13 11 8 4 6 5 3 0 5 7 9 8 8 6 3 2 2 3 3 3 4 5 6 9 13 16 19 23 27 27 32 37 33 36 44 49 44
13 15 11 35 23 17 17 15 12 11 9 6 7 3 1 1 4 7 8 6 5 4 3 1 1 3 5 6 7 8 8 10 13 16 20 24 27 29 32 39 40 39 39 46
14 12 8 33 20 17 18 15 15 13 11 10 8 7 5 6 3 3 4 5 4 3 2 2 6 7 8 8 9 11 13 12 13 17 18 22 26 29 32 32 33 37 43 45
10 8 14 30 20 18 18 17 17 13 12 12 10 9 8 10 9 4 6 5 5 5 5 4 5 8 12 12 12 14 18 17 16 16 21 23 25 28 31 32 34 37 41 42
9 10 5 30 20 19 20 18 17 16 13 13 12 10 5 5 6 9 8 10 10 9 11 13 14 14 16 16 15 17 20 22 23 23 24 28 29 30 31 33 36 37 40 44
12 10 7 31 27 22 19 21 18 18 14 11 11 11 9 9 7 10 12 12 12 12 13 14 15 16 16 17 18 19 20 22 27 28 30 32 30 33 35 34 33 37 41 41
11 12 13 18 36 33 19 21 21 19 16 13 11 10 9 8 8 9 11 12 14 15 15 16 15 14 17 20 25 22 23 21 24 31 32 31 29 30 36 36 35 37 38 40
13 11 11 10 28 32 27 21 20 20 19 15 12 10 10 12 12 10 12 15 15 18 20 19 20 19 21 24 28 25 27 25 27 32 31 29 29 27 30 33 31 32 34 35
13 10 11 7 9 23 31 23 20 20 20 18 15 15 16 14 16 16 19 19 18 18 18 23 25 24 25 30 30 33 34 32 31 30 26 27 27 26 28 30 31 32 34 35
9 11 16 14 10 18 37 23 20 19 19 18 16 19 17 17 17 18 20 20 22 21 17 22 20 22 30 33 31 32 28 32 30 27 27 26 26 26 27 28 29 28 31 35
14 16 14 13 13 17 39 22 19 16 17 18 20 20 18 16 18 20 21 24 25 26 22 22 24 23 26 19 23 27 33 36 28 23 26 25 29 29 24 24 25 28 27 34
10 13 15 16 16 22 34 22 17 16 17 19 18 19 20 19 20 20 21 20 14 14 14 18 22 17 23 23 25 26 29 18 18 23 30 37 30 28 27 26 24 26 30 27
8 8 8 7 13 26 25 18 15 14 14 15 14 17 22 21 21 21 22 20 14 16 18 20 18 19 23 23 24 23 20 19 29 34 34 31 28 27 27 26 24 26 18 21
2 1 5 6 11 19 14 17 21 18 15 14 16 19 21 22 20 21 21 18 18 21 23 20 19 21 23 21 21 21 25 30 30 27 28 28 29 29 29 28 28 31 34 32
1 1 2 3 9 21 22 19 19 20 18 19 20 17 16 20 15 10 13 19 20 23 23 20 21 23 22 18 24 26 26 27 27 28 28 29 30 30 31 32 32 34 35 37
4 7 10 12 15 15 16 18 20 19 15 9 13 14 11 6 10 12 17 19 19 19 19 22 23 24 19 22 28 27 26 26 26 27 28 29 29 31 32 34 36 39 40 42
9 11 9 13 16 17 19 19 17 12 15 14 11 12 11 12 13 15 17 16 16 18 21 23 23 22 21 23 25 25 25 25 26 28 28 29 30 31 33 32 30 32 35 38

GFSNW_500_spd_087.txt.gz
Wind_Speed
32 27 24 15 12 10 12 10 9 8 7 4 4 7 10 6 7 8 21 18 22 23 17 24 23 25 24 27 35 33 39 38 39 41 41 40 39 49 52 50 48 46 42 41
33 27 23 14 13 10 9 8 7 6 6 5 9 9 8 7 6 6 8 22 20 17 26 26 26 23 23 24 30 34 36 34 36 38 38 33 38 46 49 55 53 53 48 44
32 26 22 14 14 11 7 6 3 6 5 6 10 13 14 7 4 7 3 11 22 19 19 20 25 31 27 26 32 35 34 32 33 39 38 40 39 43 48 54 57 55 51 49
32 26 20 14 13 12 7 6 5 5 6 9 11 12 12 11 3 5 3 2 8 14 16 16 18 30 27 22 26 33 30 31 34 35 43 40 41 42 47 51 56 57 53 52
30 25 18 13 15 13 10 7 7 5 4 7 8 9 11 13 10 4 3 3 6 9 7 13 19 22 23 23 24 27 23 25 34 39 36 45 43 42 46 48 54 56 55 54
29 23 17 12 16 17 13 9 8 5 5 7 8 9 10 10 13 8 1 5 6 7 11 13 17 20 23 21 23 24 18 21 29 35 43 43 46 47 45 48 52 55 55 55
26 21 15 13 21 19 14 12 10 7 5 7 9 9 10 10 9 10 6 1 4 2 6 12 12 14 26 30 30 30 27 22 22 32 39 47 44 45 51 54 56 55 54 54
22 17 11 15 21 22 16 14 10 7 5 7 6 7 7 7 7 6 6 6 3 4 4 4 5 4 12 18 18 21 33 34 28 29 33 40 46 45 39 48 52 52 46 48
19 14 4 9 21 26 17 15 10 7 5 5 5 5 6 5 7 3 3 3 5 3 3 4 3 10 7 8 15 21 19 19 25 27 30 30 38 37 35 44 35 38 47 49
16 10 4 7 16 30 20 15 12 7 5 3 6 3 3 2 6 6 6 5 4 4 6 6 4 7 7 8 9 9 12 16 21 25 32 35 37 39 38 38 38 38 42 44
14 12 12 13 19 34 23 16 13 10 9 8 7 3 1 2 4 5 5 5 6 5 3 4 5 6 6 5 8 8 10 11 12 17 24 27 27 33 36 33 33 38 45 50
16 16 16 16 23 34 19 15 13 12 11 8 10 6 3 1 3 4 4 4 4 4 3 3 1 1 2 3 4 5 7 8 10 13 16 18 21 23 27 31 30 31 39 48
15 15 14 19 24 29 18 16 14 13 14 12 11 8 5 4 3 5 4 4 3 2 2 1 2 3 3 4 4 5 7 9 10 13 13 16 19 22 23 25 30 32 36 39
11 12 14 14 31 26 17 16 17 17 15 13 12 11 8 7 6 7 8 8 7 6 5 4 6 8 10 11 10 10 12 11 11 14 15 15 16 20 24 27 29 33 35 38
12 13 13 9 33 24 16 17 19 19 17 15 15 15 10 6 5 8 9 9 11 12 11 10 10 11 13 14 14 16 16 15 14 17 19 20 23 25 24 24 28 33 37 39
14 13 11 8 30 25 19 17 19 19 19 15 14 15 11 9 10 8 8 9 11 12 13 13 13 14 14 14 17 20 21 22 21 21 24 25 27 31 33 31 28 29 34 39
14 12 12 14 15 34 23 20 19 20 20 18 16 14 13 14 13 10 8 9 10 13 14 15 15 15 17 20 23 22 25 27 29 30 28 31 32 36 33 30 28 28 31 36
16 14 14 15 18 16 40 27 24 21 21 21 18 14 13 13 12 12 13 13 16 15 15 19 20 19 24 25 29 26 25 30 33 35 36 35 35 33 29 33 32 28 29 31
15 14 14 16 14 14 24 35 32 22 23 23 20 16 17 16 16 17 18 17 19 17 18 22 22 22 24 24 24 27 30 33 31 36 38 39 35 32 28 32 32 31 32 34
14 14 14 17 19 17 16 31 34 26 21 21 22 20 19 19 18 19 18 19 21 19 23 27 24 21 27 29 31 32 29 24 28 31 34 38 35 30 28 33 37 34 34 34
13 16 15 16 18 18 19 27 31 25 19 20 21 20 20 18 18 20 21 22 23 18 16 19 20 22 28 29 30 25 27 26 27 31 30 24 24 26 29 39 38 33 31 33
12 14 17 18 18 18 18 22 27 23 19 16 16 18 20 19 20 21 23 24 22 23 21 19 17 24 26 25 25 26 28 26 27 29 23 22 29 36 38 34 32 31 33 34
11 12 13 14 18 19 17 18 28 19 16 17 19 19 20 21 22 22 23 24 23 24 23 21 24 23 21 23 23 26 24 24 25 26 30 36 36 35 35 34 34 33 32 30
9 8 8 10 12 16 22 20 20 21 22 20 17 18 18 19 23 25 23 26 22 18 18 23 23 21 21 21 23 23 23 25 26 26 28 30 31 32 32 32 32 32 32 34
8 7 6 6 9 18 18 20 23 24 19 17 18 20 18 16 18 21 19 18 17 23 23 21 21 21 22 22 22 22 24 27 27 27 28 28 28 29 30 31 31 32 33 35
9 10 10 11 11 12 18 18 12 12 16 19 18 19 19 17 15 14 16 16 20 21 19 20 20 22 23 22 21 22 24 26 27 27 27 29 29 29 30 31 31 33 33 35
13 15 13 14 14 15 13 14 16 15 14 15 16 15 14 14 14 16 17 18 22 19 19 20 22 23 23 23 21 22 24 26 25 26 27 27 28 29 30 31 31 29 28 28

GFSNW_500_spd_093.txt.gz
Wind_Speed
33 33 31 28 24 18 10 6 7 6 7 5 6 8 11 13 11 14 10 9 13 11 9 13 25 22 23 29 31 33 37 36 39 41 39 37 40 42 41 41 43 40 37 33
31 30 30 28 22 15 7 6 5 3 4 3 5 8 11 13 12 7 8 8 12 11 9 16 18 23 21 24 24 27 32 32 34 38 38 36 38 41 43 42 41 40 37 33
28 28 29 26 19 11 5 6 3 1 3 3 6 7 10 12 14 5 5 8 14 19 16 18 21 17 22 19 22 27 29 30 32 35 40 39 39 39 41 42 40 41 38 36
26 27 28 23 15 9 5 6 3 4 4 4 6 8 9 11 13 4 4 7 11 18 23 11 13 19 21 22 21 27 30 32 31 34 36 37 37 36 37 40 41 40 40 38
26 26 26 20 14 8 6 8 5 5 2 4 5 8 9 7 8 5 3 5 6 14 21 18 11 10 16 14 21 16 30 29 36 29 33 36 37 36 37 37 36 37 39 39
25 25 23 18 13 7 7 10 7 5 2 3 5 7 8 7 7 6 1 4 3 6 11 18 18 17 13 11 20 20 16 37 24 42 30 34 36 38 39 39 37 36 35 35
24 23 21 16 12 6 9 13 9 6 2 3 5 6 7 7 6 5 3 1 2 3 8 12 16 18 17 14 19 23 17 17 30 28 36 33 34 37 34 36 37 36 36 34
23 22 18 14 6 4 11 16 10 7 3 2 4 6 5 8 7 3 4 4 2 2 5 14 11 15 18 17 15 26 23 20 19 22 24 30 38 35 33 35 34 34 35 36
21 21 15 7 9 6 10 18 12 9 6 4 2 5 4 5 6 5 4 5 5 4 5 6 10 13 11 16 22 25 24 24 22 21 19 18 27 32 37 36 36 36 41 41
19 19 15 8 8 7 8 20 14 11 9 7 3 3 2 4 4 5 5 5 4 5 5 5 6 7 7 6 11 22 19 22 24 25 25 28 30 28 29 31 36 37 34 35
17 16 14 11 9 7 6 20 20 13 12 10 7 5 1 2 4 5 6 5 5 5 4 5 6 7 7 7 6 8 10 13 17 20 20 22 23 26 28 29 30 31 35 36
16 16 13 11 11 10 11 8 27 19 15 15 11 9 6 3 1 3 5 6 5 5 5 4 4 6 6 6 6 7 9 10 11 11 12 13 16 19 20 22 26 26 26 29
15 15 14 12 10 10 13 13 27 24 19 18 15 14 11 8 4 2 1 1 2 3 4 4 4 3 2 3 3 4 5 6 7 8 10 11 13 14 15 18 20 21 23 24
16 15 13 12 13 14 17 17 27 27 22 19 18 17 15 12 8 6 7 5 3 3 2 2 2 2 3 4 5 6 7 7 7 7 8 8 9 10 11 13 15 18 20 22
18 15 12 13 15 16 19 17 32 28 23 18 20 19 15 12 10 8 9 11 7 5 6 6 6 6 7 7 9 11 7 9 10 11 9 11 12 13 13 14 15 15 15 16
18 15 11 11 12 13 16 25 31 22 21 20 19 19 16 16 14 11 10 10 8 6 6 6 7 9 10 10 11 10 9 10 12 12 14 15 15 17 18 21 24 25 24 24
16 14 12 9 9 8 15 26 22 18 20 21 21 20 18 18 18 16 16 14 10 8 8 10 12 12 12 14 17 16 16 17 19 22 23 23 24 25 26 26 28 32 33 34
16 13 12 10 8 7 15 27 22 19 19 22 22 20 20 19 18 18 19 17 14 11 12 15 14 16 17 17 17 18 19 20 21 19 20 23 26 30 33 34 33 32 35 37
18 16 13 14 13 14 18 22 27 28 25 21 20 21 24 22 20 18 16 16 15 14 16 17 17 20 21 17 17 17 19 19 19 23 25 29 32 31 29 30 33 35 36 37
17 15 14 15 15 18 19 25 23 19 21 28 24 23 24 23 23 20 18 17 16 17 18 17 18 18 22 20 22 22 16 17 23 28 29 28 27 29 30 31 30 32 34 32
14 13 14 14 15 18 19 21 19 18 19 21 27 27 22 23 23 21 19 20 19 18 17 20 19 20 24 22 21 21 23 27 26 26 27 28 30 30 28 30 31 31 31 32
12 13 12 11 14 17 18 19 20 21 21 20 27 25 20 20 23 24 24 23 22 21 20 21 21 22 22 20 22 25 26 25 26 27 27 28 29 29 29 30 30 32 34 35
11 11 11 14 14 17 20 20 19 19 15 21 23 24 22 20 21 21 21 21 20 20 21 22 22 18 18 22 23 23 24 27 27 27 28 28 28 28 29 31 33 35 35 36
13 11 11 14 15 16 18 19 18 16 14 19 23 22 19 18 17 15 17 17 17 18 16 17 15 18 21 20 20 24 26 26 27 27 26 25 26 30 32 33 33 34 36 37
12 11 11 11 10 12 13 14 15 16 18 18 20 17 16 14 14 15 14 15 17 17 13 15 19 21 22 20 23 25 24 24 23 23 23 25 28 30 31 32 33 33 35 36
11 10 8 8 8 7 9 10 12 15 19 17 15 14 14 15 14 14 18 15 14 13 16 17 19 22 21 21 23 22 23 23 24 23 23 26 27 29 29 30 33 35 37 38
11 9 8 8 7 5 7 12 16 17 19 18 18 17 18 16 15 13 13 13 13 16 15 17 19 19 20 22 22 24 24 24 23 23 24 25 25 27 31 34 36 39 41 40

GFSNW_500_spd_096.txt.gz
Wind_Speed
31 29 27 25 24 20 13 7 6 5 2 2 1 4 6 8 11 13 7 7 9 12 10 9 13 17 20 26 31 35 40 35 28 41 40 40 42 39 38 36 29 32 22 22
28 27 25 24 23 17 9 6 7 4 3 3 2 6 8 8 10 10 5 7 9 11 11 10 13 18 19 21 27 32 32 35 28 34 41 38 37 38 39 29 27 28 28 23
26 24 22 23 22 13 6 7 7 5 3 2 3 6 7 9 10 11 5 7 7 10 13 11 10 16 22 22 23 26 30 30 29 25 31 30 41 38 38 39 27 24 25 24
24 24 22 23 19 9 6 8 9 6 3 2 3 6 7 8 10 12 6 8 8 11 16 18 19 19 21 27 32 27 28 30 28 34 29 36 36 35 35 35 29 24 22 27
24 23 22 20 16 8 6 11 10 9 5 2 4 6 6 8 8 10 6 7 7 6 8 13 16 20 23 22 28 35 31 29 32 30 34 33 32 31 32 34 35 35 35 30
24 23 21 18 13 7 8 13 12 9 6 4 5 4 5 7 6 6 5 6 5 4 5 9 12 6 4 21 22 23 31 31 32 32 32 30 30 34 34 35 33 33 29 36
23 21 20 16 11 7 10 16 15 12 8 5 4 3 5 7 6 5 5 3 5 5 4 7 10 11 10 8 7 16 18 26 36 26 35 33 32 34 35 36 35 36 35 34
22 20 18 15 7 4 11 18 17 13 10 7 3 3 3 5 7 5 3 1 2 2 4 9 8 12 15 15 13 14 17 16 21 21 25 34 30 37 34 33 37 37 36 35
20 17 16 13 7 5 10 18 20 16 12 9 4 1 3 4 4 4 3 3 2 2 5 9 10 12 18 20 20 20 23 21 18 16 20 20 30 36 33 30 35 36 35 35
18 17 15 14 8 6 7 17 21 18 14 12 8 4 1 3 3 2 3 4 4 4 6 6 8 11 11 15 21 22 26 27 24 20 20 25 22 25 30 30 36 35 35 36
17 17 15 14 10 8 9 15 24 19 17 15 12 9 5 3 4 4 3 5 5 5 4 5 6 11 9 7 7 18 20 23 21 22 24 25 21 22 26 29 29 29 32 37
17 16 16 14 13 12 11 11 26 23 20 17 15 13 10 7 4 5 4 5 6 6 6 6 5 5 7 7 7 9 13 17 20 21 22 21 23 24 24 27 33 34 32 32
18 17 17 15 15 15 16 13 15 31 25 22 20 17 14 11 8 7 5 5 4 5 6 6 6 5 5 5 5 6 8 11 12 14 15 14 15 16 17 18 19 22 24 26
19 18 18 16 16 16 17 14 16 22 32 26 23 21 19 15 12 9 7 6 5 4 5 5 5 5 5 5 5 5 7 9 10 11 12 12 11 11 11 13 16 19 23 25
20 20 19 19 18 17 19 20 18 21 37 30 26 25 23 19 15 11 9 8 8 6 6 7 8 8 7 7 8 9 7 10 11 13 12 14 13 13 13 13 12 13 15 18
21 21 20 20 20 18 19 21 21 26 38 34 28 26 25 20 18 15 12 10 9 9 8 5 4 4 7 8 11 10 9 11 11 13 13 14 15 17 17 17 18 19 20 21
20 20 20 21 18 17 18 21 23 31 37 31 27 26 25 22 20 18 16 14 11 11 10 9 7 6 7 9 12 12 13 16 16 16 16 18 19 20 22 23 25 25 26 27
19 20 19 20 18 14 13 17 25 32 29 27 27 25 24 24 22 21 19 17 16 14 14 12 10 11 11 11 13 14 17 19 20 21 21 22 20 21 23 25 26 29 32 33
19 21 19 19 18 16 14 24 28 26 25 23 22 23 26 25 23 22 21 19 18 16 16 15 13 15 13 12 13 13 13 14 19 24 26 24 23 26 28 29 29 30 30 31
19 20 20 20 20 20 20 25 28 27 26 23 22 23 25 25 25 23 22 20 17 16 16 16 15 16 16 16 14 14 15 17 18 17 20 26 29 28 27 27 28 31 32 33
19 19 19 21 21 23 22 24 26 28 24 25 30 31 29 25 25 23 23 20 17 16 15 17 16 21 20 22 21 19 18 18 22 25 24 23 24 26 27 28 30 30 31 32
16 17 19 20 21 22 22 23 22 23 25 22 18 17 31 25 22 22 22 21 19 18 16 17 19 21 23 23 20 17 19 22 21 22 23 24 25 26 27 28 28 30 32 33
13 15 18 19 19 17 19 20 19 19 18 20 21 20 24 24 23 20 19 18 18 17 17 17 21 21 17 14 16 20 18 18 22 23 23 25 25 26 26 28 29 30 33 35
14 15 16 15 16 14 15 17 19 20 20 17 17 20 23 23 21 19 16 14 13 14 16 17 18 16 15 17 19 16 18 23 24 23 24 24 25 25 25 27 29 31 33 34
18 18 19 18 15 16 16 18 18 18 16 15 16 21 21 20 17 14 12 13 15 15 14 16 14 13 15 17 18 18 21 21 20 21 21 22 21 23 25 27 28 30 32 35
18 19 18 14 15 15 15 16 18 19 18 16 16 19 22 17 17 15 16 16 17 13 13 11 11 13 15 15 16 17 19 20 19 19 19 19 21 23 23 26 29 33 36 39
15 16 15 13 12 10 10 12 14 16 18 21 20 19 20 18 17 16 17 17 11 11 10 10 12 14 12 13 17 19 21 21 21 20 20 20 19 20 23 27 32 35 40 35

GFSNW_500_spd_102.txt.gz
Wind_Speed
24 25 26 25 26 23 23 19 16 9 5 7 5 10 9 13 17 14 12 11 15 13 25 21 20 30 30 29 38 30 36 20 15 22 19 24 24 20 18 20 29 22 18 21
23 23 26 26 24 22 21 16 13 8 6 8 9 16 16 14 16 14 12 11 9 18 19 21 16 20 34 27 30 33 34 39 30 10 16 15 24 25 21 18 22 25 21 30
21 23 24 26 25 21 18 13 10 4 8 10 6 10 12 11 11 12 11 12 9 8 9 17 25 22 31 25 31 39 32 42 39 19 23 20 20 24 20 21 18 18 15 28
25 24 26 26 24 21 17 11 8 10 6 11 11 15 14 14 10 14 12 6 6 10 17 16 12 24 24 23 15 23 31 28 35 22 22 31 20 17 24 18 22 13 21 26
28 25 27 27 25 20 17 15 17 15 12 18 13 11 13 11 11 10 6 7 7 7 6 21 20 14 4 14 17 25 27 31 40 43 18 26 23 17 20 18 21 19 28 34
30 29 27 25 25 23 21 19 14 16 21 13 9 8 17 11 9 10 9 7 7 7 7 13 11 15 22 22 11 20 27 36 42 40 23 18 12 28 24 24 33 27 33 26
32 30 29 29 27 22 21 16 15 17 15 12 8 18 14 12 8 9 6 5 8 8 8 10 10 9 7 12 16 20 25 22 41 39 27 27 28 31 31 31 20 29 34 35
34 33 31 28 28 22 21 21 17 22 21 15 19 16 12 9 7 8 6 5 7 7 6 6 9 7 2 4 15 14 22 25 32 36 46 37 34 35 29 33 38 29 32 49
37 35 32 30 28 23 21 20 16 23 24 18 25 18 11 8 6 7 6 4 5 4 2 6 7 9 11 8 15 15 11 18 34 29 18 17 28 30 32 35 42 38 22 56
38 36 34 31 31 23 20 20 21 27 31 29 22 18 16 11 8 7 5 3 4 3 1 4 10 11 18 15 10 12 10 13 16 26 20 33 33 46 36 39 36 18 26 31
37 39 36 32 31 23 20 22 22 28 31 33 24 23 16 10 8 9 5 4 4 4 4 1 11 8 4 7 12 10 8 16 14 16 14 16 16 8 20 39 46 33 34 38
32 38 39 35 35 25 23 25 24 26 33 36 23 24 19 14 8 8 8 5 4 0 6 4 3 3 2 4 5 7 14 20 25 23 26 21 19 11 17 19 18 30 34 33
27 30 37 38 35 27 26 24 25 27 33 33 29 27 23 21 17 13 11 9 7 6 5 3 6 7 5 6 7 9 6 8 17 16 26 28 20 12 17 20 23 22 23 26
26 27 32 34 32 29 29 25 27 25 30 33 31 30 28 24 23 18 17 11 10 8 7 7 6 7 8 8 5 7 7 7 9 12 18 17 20 20 19 21 24 25 26 27
23 24 30 32 29 31 33 24 28 29 28 30 35 35 31 30 27 24 20 17 15 13 13 12 11 12 10 11 10 10 9 9 12 16 16 15 20 17 17 19 20 19 20 22
22 22 24 23 25 35 31 27 29 30 29 31 33 37 35 31 31 28 25 22 19 17 18 17 18 10 14 14 15 14 13 14 15 17 15 15 16 13 17 17 17 17 18 18
25 24 24 25 29 34 31 26 23 26 31 29 33 28 32 35 33 29 28 25 22 19 17 17 16 14 15 14 13 11 12 17 18 18 18 20 22 21 21 22 23 23 26 24
26 25 25 29 32 36 31 27 27 28 30 33 34 36 35 25 34 30 27 27 24 20 19 17 17 14 16 14 14 12 11 13 16 19 20 21 22 22 23 25 26 27 30 32
27 26 24 27 34 37 26 30 31 31 32 32 32 32 33 27 30 31 30 27 26 26 23 21 21 18 17 18 13 14 13 13 14 15 19 21 23 25 27 29 30 32 33 33
26 24 24 28 34 33 33 30 28 29 30 30 31 33 26 30 31 29 29 30 28 28 26 25 21 21 20 21 16 16 17 15 18 18 20 20 24 23 24 25 27 26 30 33
18 19 23 27 32 30 25 23 25 24 25 27 28 35 34 22 27 29 28 28 31 29 25 24 21 20 20 18 19 18 19 20 22 22 19 21 23 25 26 28 29 30 32 34
5 10 17 24 24 24 18 21 21 19 14 18 26 29 29 21 26 29 28 27 29 26 28 27 21 20 17 17 17 17 17 19 16 15 18 21 25 26 29 31 32 32 32 33
17 15 22 14 20 21 19 18 18 15 13 20 25 27 31 26 23 26 24 22 33 30 31 23 19 21 17 17 17 19 18 15 16 17 17 20 25 30 31 30 29 30 30 30
17 19 16 15 15 18 14 15 15 18 20 23 24 27 26 26 34 33 33 35 37 33 23 17 22 18 19 18 18 15 13 15 14 16 18 23 28 28 28 28 28 28 28 27
14 18 12 8 12 13 14 12 14 16 15 18 26 28 29 28 20 18 22 25 22 16 13 18 13 18 19 17 13 12 12 12 14 18 21 23 23 23 25 26 24 24 24 23
15 15 14 17 13 12 10 10 9 10 11 17 18 20 19 18 18 19 18 19 13 17 20 14 13 16 15 14 14 12 11 13 15 17 20 23 22 21 20 21 21 19 21 23
20 15 13 10 11 11 9 11 15 14 15 14 16 16 17 15 26 22 19 18 18 20 15 10 13 14 15 14 14 13 14 13 15 17 20 23 21 19 18 18 19 17 20 23

GFSNW_500_spd_105.txt.gz
Wind_Speed
26 22 19 20 23 24 26 20 16 14 9 8 11 6 14 5 15 18 15 13 13 13 21 23 22 22 23 28 29 27 33 27 27 23 18 21 20 31 21 18 19 24 23 23
30 26 23 22 22 25 25 21 16 13 7 10 9 10 9 10 16 20 18 12 15 17 25 28 23 33 29 28 35 35 30 28 30 28 24 11 9 26 35 28 25 25 23 26
32 29 26 25 24 25 26 21 16 11 7 9 8 9 3 7 22 17 15 11 14 12 13 22 17 28 25 35 29 30 32 34 28 29 21 21 21 17 27 30 33 29 25 23
31 28 27 25 24 26 25 23 22 21 13 13 16 18 11 17 19 23 15 12 9 9 19 20 20 21 17 29 30 21 34 29 37 26 17 17 25 18 24 25 26 19 21 22
29 27 27 26 26 23 25 24 20 19 16 15 13 18 14 16 19 14 13 13 10 14 15 18 12 19 9 12 14 17 22 33 37 47 33 21 21 21 26 25 25 18 22 22
29 28 28 28 26 25 26 21 11 12 17 19 13 11 15 18 10 13 12 10 9 16 13 9 9 8 5 4 14 15 22 23 35 35 45 28 33 28 25 21 28 18 27 24
32 32 31 30 30 27 25 18 15 17 22 20 16 10 23 18 10 13 12 7 9 11 11 12 9 7 4 4 7 14 15 26 28 31 39 32 33 29 25 27 31 30 31 32
36 35 34 34 32 29 26 20 20 16 21 19 24 21 27 14 11 13 11 8 9 10 10 10 12 10 12 9 7 10 20 23 25 22 40 41 37 34 30 35 31 34 40 45
36 35 37 36 34 31 28 23 20 18 25 24 26 23 23 14 17 13 11 9 8 7 7 6 1 3 12 10 7 15 16 19 23 25 37 44 37 37 30 36 33 26 29 22
33 33 33 34 34 32 29 24 23 22 28 33 30 29 22 20 14 11 10 8 7 5 4 4 8 8 3 7 10 10 11 13 17 25 34 38 31 32 34 35 40 35 29 27
29 29 31 30 31 31 30 29 23 24 30 36 39 35 25 16 14 12 6 10 7 8 4 3 3 3 9 7 4 7 8 5 8 18 28 21 28 22 38 34 37 40 39 37
21 23 25 27 28 31 31 30 25 23 28 31 37 30 20 18 16 9 7 6 8 5 7 3 1 2 4 6 7 9 8 4 9 10 11 10 2 17 18 28 26 34 39 50
20 22 23 22 22 28 32 32 27 26 27 31 33 28 24 20 21 17 12 11 5 1 2 5 5 6 4 5 5 6 8 7 15 16 18 15 11 14 10 7 10 24 34 40
21 20 21 22 21 23 30 28 28 29 29 29 27 29 32 28 25 23 17 12 8 8 5 3 3 5 4 3 2 2 2 6 8 10 14 12 11 12 13 14 15 15 20 26
20 17 17 17 16 22 22 23 28 33 34 27 27 32 32 28 29 25 22 19 15 13 11 9 9 8 5 8 7 10 7 5 8 8 9 7 9 10 11 14 14 17 23 24
19 18 15 14 15 16 19 27 33 36 32 25 27 30 33 32 31 28 26 22 21 19 16 17 17 10 12 12 12 13 13 12 14 14 12 12 11 7 10 13 14 16 19 23
17 18 16 12 16 19 21 28 30 30 29 26 30 30 30 34 33 33 30 29 25 24 22 19 20 12 16 14 16 12 12 15 13 17 17 17 19 17 15 16 15 16 17 19
19 19 19 18 18 19 22 27 31 33 30 30 33 33 29 27 34 33 32 29 30 27 25 23 19 14 16 14 17 13 12 12 12 13 15 17 20 21 21 23 24 25 27 27
16 17 19 21 22 22 26 28 36 35 35 32 32 30 31 29 20 19 31 33 29 31 30 27 22 19 17 15 18 16 14 16 14 13 13 15 18 20 22 25 27 29 31 33
15 15 16 18 19 18 23 26 37 36 32 31 27 29 32 28 27 24 24 29 34 31 29 29 26 22 20 20 22 19 18 16 17 17 16 18 21 20 19 22 24 27 30 32
12 13 12 11 15 19 25 30 39 35 34 29 24 29 30 29 27 27 31 31 33 32 29 29 27 22 24 22 20 21 21 20 20 20 20 24 21 20 22 24 27 30 31 32
9 6 8 8 14 19 22 26 35 34 28 23 23 31 33 26 28 27 30 25 29 29 27 32 25 22 24 21 20 19 19 20 19 18 16 13 15 19 22 26 28 32 32 31
6 5 9 7 12 15 15 18 23 23 19 21 23 31 31 32 24 32 23 29 27 24 29 28 19 23 25 25 20 20 18 19 20 16 14 16 18 20 25 28 30 31 30 29
13 13 20 16 12 9 15 16 20 14 14 14 16 29 28 26 21 18 25 25 24 27 18 18 22 19 20 24 21 19 19 18 15 15 16 14 17 21 24 24 24 26 26 26
7 12 11 11 12 12 15 10 9 12 14 17 17 18 16 19 22 21 20 23 25 24 20 21 23 16 24 22 21 18 17 16 15 15 13 14 15 22 24 23 22 22 21 21
15 17 11 8 13 13 13 14 12 17 20 20 24 22 19 20 22 19 19 19 18 17 21 16 16 18 22 19 17 16 17 16 14 14 14 15 15 22 24 24 20 21 21 19
14 15 11 13 15 12 12 14 15 16 19 20 18 18 16 12 18 19 21 7 16 20 15 15 20 19 17 16 15 16 16 15 16 16 16 15 17 20 24 23 20 18 21 21

GFSNW_500_spd_108.txt.gz
Wind_Speed
27 27 27 26 25 24 22 23 22 20 16 15 12 16 13 12 15 8 8 7 13 21 26 25 19 24 19 20 23 28 33 28 30 24 20 21 19 21 18 17 12 16 16 16
34 35 34 29 25 24 23 23 24 19 16 16 10 17 18 17 14 13 12 12 17 20 24 24 25 23 27 29 27 29 34 29 26 28 21 21 23 30 27 25 21 16 18 18
38 34 32 26 24 23 22 22 23 19 15 13 12 14 17 17 15 14 9 13 13 21 23 20 16 12 17 36 30 36 30 30 31 30 31 29 26 31 37 30 25 23 20 20
36 32 28 24 23 22 22 21 18 15 12 13 18 16 18 18 13 19 18 15 11 16 15 13 12 13 11 22 33 30 32 32 37 34 34 27 27 31 33 37 34 32 25 26
32 30 26 24 24 23 22 21 18 15 14 15 14 19 17 15 20 20 19 17 15 16 13 12 8 6 3 4 19 17 24 36 39 32 37 33 31 33 37 39 37 35 32 29
29 28 28 26 25 25 25 22 21 18 20 16 15 24 20 19 16 11 15 13 18 13 11 8 9 4 7 3 10 18 18 23 38 42 35 19 20 35 32 32 28 33 33 31
33 32 30 29 29 29 29 24 23 20 19 18 22 25 21 19 11 12 19 9 14 15 14 13 11 8 9 13 15 16 16 21 20 35 31 37 21 22 25 28 23 32 33 33
33 33 33 32 31 31 32 28 23 20 21 22 28 27 23 23 13 13 15 16 14 14 13 12 13 5 8 11 11 12 14 17 23 27 34 32 41 34 28 28 29 34 38 30
34 35 36 35 33 33 34 29 25 21 24 28 28 30 28 29 23 16 15 17 13 13 9 9 8 5 2 9 6 7 11 20 23 28 32 37 36 41 35 29 34 32 28 31
32 33 34 33 31 33 32 30 28 25 29 30 31 33 31 24 18 19 10 16 15 13 9 5 8 5 9 4 9 2 10 12 18 19 25 35 45 40 39 31 34 34 36 36
28 28 29 29 29 30 30 28 28 26 27 31 34 37 33 27 17 14 9 9 14 11 7 3 3 6 7 11 9 7 11 12 12 21 24 29 40 44 40 43 35 45 39 36
26 25 24 21 23 24 28 26 26 28 25 33 36 37 35 31 25 15 7 6 7 6 9 7 5 7 7 6 4 11 6 9 2 6 9 17 24 23 34 29 28 35 37 33
22 22 21 19 19 21 23 25 26 27 21 33 35 35 32 33 29 20 18 10 4 4 3 7 6 5 5 6 6 5 6 4 3 4 5 6 11 8 8 10 22 35 39 39
19 18 21 19 19 21 21 22 27 28 25 33 33 40 38 31 27 25 21 12 7 8 6 5 6 7 7 7 4 2 1 2 3 5 7 12 15 14 15 13 10 11 22 23
18 20 18 18 18 18 21 20 27 24 26 34 35 37 31 27 27 30 25 18 14 12 10 9 9 6 3 4 7 6 3 3 3 4 5 9 9 9 14 18 18 19 19 19
16 17 17 17 16 15 19 21 17 21 26 37 33 34 34 34 32 33 28 25 20 19 15 14 12 9 7 8 8 9 8 6 6 3 2 3 2 4 9 11 13 15 17 20
17 17 17 17 15 17 17 18 20 23 30 33 34 32 31 33 36 33 29 28 26 23 21 18 16 14 14 14 12 10 11 9 8 9 5 3 5 7 9 11 10 10 12 16
18 18 19 18 17 17 16 19 21 26 31 33 34 33 28 29 38 33 31 31 29 27 25 22 21 16 14 14 13 10 8 10 12 10 10 7 6 7 9 12 14 16 16 15
19 18 18 19 19 22 20 18 20 26 32 33 36 32 28 29 28 35 33 32 32 31 30 27 24 18 13 14 15 14 13 14 15 15 14 13 11 10 9 11 15 19 20 20
18 17 18 18 18 21 19 19 22 26 30 33 35 32 31 28 26 23 28 32 32 34 31 32 28 22 19 18 19 19 18 17 17 14 16 17 17 16 17 15 15 17 18 20
16 17 15 15 14 15 17 19 21 25 25 32 33 32 31 26 24 24 24 26 28 35 36 35 31 25 20 22 23 22 19 19 20 19 17 17 17 20 17 13 14 17 21 25
16 15 14 14 12 13 12 10 17 19 24 30 33 31 31 31 30 28 27 25 25 26 30 38 34 24 24 25 22 23 21 19 19 18 15 15 14 14 11 12 14 17 21 25
14 14 11 11 9 6 5 6 7 10 22 27 30 30 30 28 28 26 27 25 25 26 26 26 20 24 24 23 22 19 21 19 17 14 15 17 14 10 10 12 17 22 24 24
16 14 11 9 5 2 5 9 14 15 18 24 29 31 29 26 30 28 25 26 18 22 24 11 19 20 18 19 22 22 21 19 17 16 18 17 13 10 9 14 19 22 24 21
15 12 12 14 9 6 9 6 10 13 16 18 19 23 26 26 26 30 22 25 23 18 14 17 20 19 23 20 19 19 20 18 18 18 16 15 14 12 12 16 19 22 25 24
14 12 10 12 11 10 14 17 15 13 12 14 14 14 16 14 20 24 19 16 15 16 22 22 24 25 21 23 21 20 20 19 19 18 17 16 14 13 15 18 19 22 24 24
15 17 13 10 11 15 19 21 20 12 11 15 15 16 18 18 19 19 17 13 17 21 16 16 17 17 20 19 18 20 21 20 20 19 17 16 16 17 17 20 24 25 24 25

GFSNW_500_spd_111.txt.gz
Wind_Speed
31 30 30 30 31 31 27 25 21 21 18 17 14 14 16 18 18 18 16 15 18 16 15 15 17 18 21 21 22 28 31 33 37 36 27 25 19 22 23 22 17 17 18 10
34 32 33 33 34 30 26 26 21 19 17 13 13 14 17 19 22 20 20 23 16 17 17 16 15 15 16 27 26 30 35 35 38 39 39 32 26 24 25 20 19 19 22 15
35 32 35 36 33 28 24 25 23 17 15 12 15 16 18 23 25 24 26 11 15 14 16 10 8 10 14 20 32 33 34 36 32 37 34 34 33 27 28 25 23 21 22 17
37 33 33 31 29 26 24 22 21 18 15 14 14 15 20 23 23 23 22 13 11 12 9 8 10 12 12 13 21 34 37 38 38 41 36 33 36 30 31 31 28 25 19 17
39 36 32 29 26 24 25 23 21 20 19 17 17 18 27 24 20 22 18 14 13 12 8 6 12 11 10 13 16 24 38 33 40 38 37 44 40 30 25 29 32 31 27 24
39 36 33 30 27 28 27 27 25 23 21 21 19 22 23 19 19 21 16 14 17 13 9 11 15 13 12 11 12 17 15 19 31 38 44 42 42 31 25 25 34 36 36 33
37 33 32 31 31 30 29 29 29 26 23 24 21 22 21 19 22 23 16 19 17 15 12 12 16 13 15 15 13 12 18 16 18 24 40 42 41 31 28 27 27 37 38 37
34 34 32 30 30 30 31 31 31 29 25 25 25 24 23 23 23 21 18 17 15 15 12 11 13 11 11 14 14 16 16 15 19 23 36 44 35 38 32 30 28 21 32 34
30 32 30 31 33 34 35 32 32 31 27 28 28 24 27 30 25 24 20 22 17 14 12 12 13 3 4 10 13 11 13 20 22 27 26 37 42 34 24 29 29 32 30 33
27 29 31 32 33 35 35 33 34 31 30 30 30 30 31 32 26 22 21 23 16 9 9 9 9 8 11 9 8 8 11 12 15 22 27 31 35 36 34 35 31 31 33 31
28 30 30 29 29 31 33 31 31 29 30 30 33 31 33 35 27 19 13 15 10 5 8 7 6 9 13 12 12 6 6 5 9 11 23 28 32 35 35 31 36 33 39 37
24 26 26 26 26 27 27 26 27 29 32 35 35 33 33 35 30 16 8 9 7 4 7 10 6 6 6 5 4 4 7 2 3 5 14 21 21 26 27 33 36 37 31 38
24 24 23 22 23 22 21 19 24 29 33 39 34 28 39 37 35 28 23 13 9 8 5 7 10 7 5 5 5 2 2 1 1 5 6 13 14 15 16 18 32 37 40 37
21 21 21 21 23 22 22 19 23 32 34 38 34 31 36 41 36 27 28 17 9 10 8 6 8 9 5 4 2 2 6 5 3 3 9 9 10 6 8 6 11 23 28 32
20 21 22 22 22 24 21 20 24 29 33 36 36 28 34 38 33 28 27 23 16 13 12 12 9 7 7 6 3 1 2 5 4 4 6 9 7 7 7 10 13 15 17 19
19 19 20 21 22 23 20 19 22 26 36 38 39 32 36 43 41 33 31 28 21 18 18 16 12 9 6 4 2 2 3 2 3 2 3 2 2 5 8 9 12 13 12 14
20 19 18 18 17 19 18 18 23 29 29 35 38 33 34 38 40 41 37 30 26 22 21 20 16 12 10 9 7 5 3 5 4 4 4 5 8 8 8 8 9 11 13 14
18 19 19 17 16 20 19 21 25 28 29 32 32 36 36 34 39 41 38 31 29 26 25 23 21 18 14 11 8 4 6 7 5 5 4 4 4 6 9 11 12 12 13 14
18 19 19 19 18 21 21 22 22 26 28 28 28 33 34 32 29 32 36 32 33 31 28 27 25 23 16 13 12 8 7 8 9 8 7 7 6 5 3 4 6 9 11 14
17 18 19 19 19 21 22 24 25 24 26 24 29 33 33 30 29 30 36 32 34 32 32 32 31 26 20 18 16 14 12 11 12 12 11 8 8 8 9 10 11 11 10 10
16 18 19 21 22 22 24 26 26 24 20 22 29 34 34 32 29 29 30 37 40 35 35 35 33 27 24 22 21 19 16 15 14 16 13 12 11 11 12 10 7 7 9 10
18 18 19 20 20 21 22 22 24 20 18 22 31 35 35 35 34 28 28 28 32 37 37 35 34 30 27 26 26 23 19 17 16 15 15 15 13 11 9 8 6 8 10 13
17 17 17 17 17 15 13 11 11 15 18 24 26 30 32 35 37 34 33 34 27 28 30 34 26 30 32 33 30 25 21 17 16 16 16 16 13 13 11 7 9 10 14 16
17 17 14 13 12 12 11 14 17 19 16 16 20 27 31 32 35 36 34 29 27 26 24 13 18 25 32 31 28 24 20 20 18 19 18 18 17 14 11 11 6 9 15 17
15 16 15 14 14 10 8 12 9 9 11 13 17 20 23 28 29 30 32 27 24 17 13 20 22 20 24 22 24 23 20 20 21 20 19 18 17 15 16 14 11 14 15 16
18 17 13 14 17 11 14 13 7 9 11 12 14 13 17 25 29 25 27 26 22 18 13 17 22 23 18 24 25 23 19 19 23 21 19 19 17 19 19 16 16 16 17 19
18 16 15 13 16 14 17 18 17 14 15 16 14 13 16 15 20 28 27 22 17 19 19 22 22 21 20 22 24 23 22 22 22 21 21 19 19 21 21 19 19 17 19 22

GFSNW_500_spd_114.txt.gz
Wind_Speed
40 37 35 33 32 33 31 31 30 24 21 18 17 20 17 16 16 18 20 19 15 17 20 16 15 17 18 19 19 23 28 30 30 28 30 30 27 29 28 24 18 16 21 14
41 38 36 33 32 33 34 33 29 25 20 19 18 19 20 19 19 20 20 19 17 19 16 13 13 15 16 19 26 24 27 32 36 34 36 34 29 29 31 30 24 21 20 14
39 37 36 34 33 31 35 32 26 24 21 22 19 18 18 19 22 18 19 17 15 20 16 9 9 12 14 18 21 27 32 36 36 40 36 34 31 30 27 29 27 22 22 20
38 37 36 35 34 32 31 29 24 22 22 22 19 17 18 21 22 16 19 14 18 18 14 9 11 12 12 14 14 15 28 30 40 39 38 40 28 34 32 28 28 25 21 20
39 38 36 35 33 32 31 28 23 22 24 24 22 19 20 21 20 16 19 18 19 18 13 10 13 12 12 14 14 20 21 25 39 36 49 45 35 38 35 29 28 28 26 20
40 37 36 35 33 32 30 28 26 26 26 26 25 21 21 21 19 17 19 18 18 17 13 11 13 17 17 18 15 18 21 17 30 47 48 52 47 42 39 33 25 31 29 25
40 38 36 35 32 32 32 31 29 29 28 27 26 24 21 22 20 21 23 19 19 15 13 13 14 16 18 16 15 17 19 17 13 32 36 39 40 44 40 35 27 29 31 29
40 35 33 33 32 32 32 32 31 31 29 29 29 26 24 24 23 24 22 19 16 11 13 12 12 14 16 15 14 15 18 11 12 15 35 42 37 35 42 38 34 27 27 31
34 28 28 31 32 31 32 32 31 31 31 30 33 28 27 28 26 23 25 20 14 13 18 12 10 11 5 5 7 13 14 13 15 20 21 31 37 42 41 39 35 30 29 30
22 23 25 27 30 32 33 33 33 32 30 33 34 32 30 30 27 23 28 15 12 14 13 10 9 9 10 9 7 11 14 16 13 15 20 21 23 31 38 45 26 30 26 24
20 22 26 28 30 31 32 30 31 32 32 37 38 34 33 32 27 26 24 13 9 12 12 11 8 7 8 8 6 5 7 6 8 10 16 22 22 21 21 26 25 29 26 25
20 23 24 25 28 30 28 27 30 31 33 36 37 36 33 31 29 27 19 10 9 12 14 12 9 4 5 2 4 2 4 3 5 7 13 13 20 14 15 23 26 28 31 35
29 23 25 24 25 26 26 24 23 26 32 37 38 34 35 30 29 26 21 12 8 10 12 11 10 5 3 4 5 3 4 6 4 5 3 10 13 15 19 22 24 28 32 33
21 22 23 22 22 23 23 21 20 24 31 35 36 36 32 34 27 24 28 25 18 13 14 9 10 9 7 7 7 5 4 3 3 3 5 3 7 11 10 11 17 23 26 30
23 23 22 22 20 20 21 20 21 23 27 33 37 34 35 34 34 33 31 24 21 14 15 12 8 10 10 9 9 8 5 3 0 2 7 6 5 6 12 7 7 9 16 20
19 20 19 19 18 19 21 22 22 24 27 32 34 35 36 35 29 30 29 33 27 28 22 18 14 13 13 12 10 9 8 5 3 2 3 6 8 9 9 8 9 9 9 9
18 20 20 19 18 16 17 20 22 24 26 32 34 35 38 35 30 28 35 31 23 30 29 23 19 17 14 13 12 9 7 6 5 3 2 3 5 6 7 7 7 7 8 9
22 21 20 20 17 15 14 20 22 24 28 28 36 38 38 37 31 29 33 31 27 30 32 27 25 22 18 14 11 10 10 9 7 7 5 4 3 3 3 4 7 7 8 8
26 22 21 20 17 14 17 20 20 22 22 26 27 36 38 37 35 30 38 35 35 32 36 33 30 26 22 14 15 13 10 8 7 8 8 8 7 5 4 3 3 6 10 12
22 21 20 18 17 17 17 18 20 21 19 19 27 34 38 36 36 34 32 39 43 39 39 38 34 28 24 20 18 14 12 10 9 9 10 9 10 10 9 10 9 10 10 11
17 17 17 17 18 18 18 18 20 20 19 19 25 31 31 33 31 30 29 29 33 35 41 40 35 28 24 23 21 19 17 14 14 13 12 14 13 12 10 10 12 10 9 8
16 16 17 16 17 17 18 18 18 17 22 24 27 26 33 32 29 25 24 26 28 34 37 41 38 24 28 27 26 25 23 19 18 16 14 15 15 15 12 10 9 9 7 4
15 15 16 16 16 15 12 11 14 17 21 24 25 24 29 30 30 33 35 33 28 24 25 32 28 31 33 32 30 29 26 23 21 19 17 16 15 14 14 11 11 10 5 3
15 12 12 14 12 11 12 13 14 14 20 21 24 27 29 30 31 31 34 32 26 37 23 17 27 36 34 32 34 34 30 25 23 21 20 18 17 17 15 13 15 11 7 6
16 16 18 13 13 13 13 13 13 13 14 13 14 16 23 28 32 32 34 35 26 26 23 23 25 25 30 32 34 32 32 27 24 24 23 22 21 19 18 18 19 16 11 10
15 14 16 17 16 15 11 10 12 15 13 14 14 11 14 16 22 24 27 30 25 22 21 26 25 23 20 22 24 24 26 27 25 23 25 26 23 22 21 24 23 19 16 15
12 17 18 16 15 15 13 15 12 11 12 13 13 12 11 8 13 14 18 17 21 28 23 24 24 26 24 21 19 25 25 25 20 21 26 26 23 22 23 25 24 20 17 18

GFSNW_500_spd_117.txt.gz
Wind_Speed
48 45 42 39 36 33 32 30 28 28 26 26 23 22 18 15 17 18 17 13 11 13 12 17 20 18 19 20 22 22 21 26 26 27 30 31 29 26 26 28 23 20 18 11
48 46 43 40 37 34 33 30 29 27 27 26 23 24 20 17 16 17 15 13 12 17 14 13 17 20 20 16 18 19 24 27 31 31 32 32 34 33 30 29 26 19 21 15
47 45 41 39 36 33 33 31 29 27 26 26 25 24 21 19 18 17 14 12 12 15 15 18 18 18 13 12 15 17 22 29 32 36 34 35 38 36 33 33 29 28 25 21
39 38 39 36 36 34 34 32 29 28 25 25 25 24 21 21 21 17 14 10 12 14 18 18 18 16 13 13 14 17 21 19 31 38 41 41 40 37 36 33 28 26 27 26
35 33 32 36 34 35 33 31 28 28 27 26 26 25 22 22 23 17 12 13 15 16 19 17 16 16 15 14 16 17 19 19 23 28 38 42 45 39 37 38 31 25 25 26
34 35 31 31 32 35 40 39 31 29 29 28 28 26 26 25 23 18 14 16 16 17 16 15 14 16 17 16 17 18 17 17 18 23 31 46 45 45 41 39 31 28 26 27
29 34 36 35 32 33 33 33 35 32 30 29 29 28 27 26 24 19 17 17 19 18 16 13 14 14 16 16 16 19 15 11 18 21 27 38 41 40 39 28 30 30 30 25
29 28 30 33 38 35 36 35 35 33 31 30 31 31 29 27 25 21 21 20 21 17 11 13 13 13 14 15 13 14 8 9 12 18 15 20 34 34 39 36 33 36 35 29
24 24 26 30 37 37 37 35 35 32 32 30 31 31 29 28 26 25 24 22 22 15 16 16 13 12 10 6 5 8 9 6 9 10 14 16 24 34 35 36 43 37 37 33
18 23 26 26 28 30 28 31 30 26 26 29 30 32 31 30 29 27 26 25 23 17 17 15 12 12 11 11 10 9 8 8 8 8 11 18 16 27 31 28 32 38 33 35
17 16 16 16 18 19 19 20 22 27 29 31 30 31 32 33 30 28 27 26 19 16 15 11 11 10 9 9 12 10 7 7 4 4 7 13 16 18 20 20 28 33 31 26
18 18 16 16 18 20 22 24 26 26 28 32 32 33 31 33 28 28 27 21 17 14 16 12 11 13 8 7 5 5 4 2 4 5 8 12 12 15 13 15 22 31 28 24
24 24 26 20 20 20 23 25 26 27 28 36 31 36 36 30 31 31 30 23 17 15 11 9 10 13 9 12 8 6 8 5 4 6 5 4 8 13 15 16 17 23 32 29
21 23 22 22 24 22 23 23 23 25 26 27 33 36 38 34 30 31 31 32 24 17 11 10 10 11 10 10 11 9 6 3 3 4 4 0 4 10 13 15 16 17 18 21
21 21 21 20 18 21 21 21 20 23 24 24 28 33 34 31 31 33 34 31 29 20 17 14 12 11 12 13 12 10 7 4 1 2 2 2 2 2 10 11 9 15 19 21
23 21 20 18 19 19 19 19 18 23 21 21 23 28 31 32 33 33 31 31 27 23 22 19 16 14 15 16 15 13 11 7 5 4 4 5 5 3 7 5 8 8 6 12
26 23 18 16 17 17 16 18 21 22 23 20 22 26 30 31 31 31 31 31 36 34 27 25 21 19 18 17 15 15 13 10 8 7 7 7 5 5 9 7 7 7 9 8
24 28 21 16 17 17 16 16 17 20 20 22 24 25 28 30 30 29 31 30 25 29 29 32 29 25 22 19 17 14 13 11 11 10 8 7 7 7 7 8 8 9 11 10
22 24 23 17 17 17 17 15 14 15 17 19 23 23 29 28 29 29 27 21 28 28 27 36 34 30 25 21 21 17 16 15 13 12 11 9 8 7 6 5 5 7 9 11
22 24 22 19 18 18 17 15 12 13 16 16 22 25 25 27 27 28 30 28 34 32 34 34 36 32 26 24 24 22 19 16 14 11 12 11 11 11 10 9 8 7 6 7
12 15 21 21 19 17 17 15 12 12 15 17 20 23 28 27 26 29 31 33 33 38 38 40 37 34 29 30 28 25 21 18 16 14 11 12 13 12 12 12 11 11 11 9
13 13 14 15 16 15 16 14 14 14 17 19 20 18 23 27 29 30 29 30 32 33 34 43 36 28 35 34 33 30 27 23 20 17 15 15 16 17 15 15 13 10 9 9
14 14 14 13 14 12 13 15 16 17 19 22 27 26 22 22 25 25 25 26 21 19 21 18 22 33 41 38 36 33 31 28 26 22 19 18 18 20 18 18 15 12 13 12
13 11 11 13 11 11 13 14 12 12 15 18 21 24 23 22 24 24 25 28 27 30 16 12 13 31 37 42 32 32 32 31 28 26 24 23 20 23 21 20 17 18 17 15
14 13 12 9 7 9 11 12 12 11 10 7 9 13 17 18 21 27 29 28 29 27 23 26 28 18 23 30 36 32 32 32 31 30 29 26 24 24 25 23 21 22 21 18
13 17 14 18 15 14 13 10 9 11 12 12 10 8 9 14 16 23 24 26 24 25 29 24 25 25 23 24 26 31 34 34 35 35 33 30 27 26 28 27 25 26 25 23
11 14 15 16 17 17 12 9 10 10 9 10 11 11 10 10 11 10 11 12 21 27 31 25 25 25 21 20 18 22 27 25 27 32 32 29 27 28 28 27 27 27 27 25

GFSNW_500_spd_123.txt.gz
Wind_Speed
45 44 45 44 43 46 46 45 45 39 39 36 32 30 27 28 23 22 21 19 20 18 18 16 15 11 17 11 14 13 19 15 13 13 12 13 19 16 18 22 20 21 18 25
39 39 37 39 40 40 43 45 45 41 43 38 36 33 33 31 26 24 24 20 22 25 21 18 17 19 19 17 18 21 18 16 14 13 13 20 20 23 18 20 27 28 23 27
33 34 34 34 36 37 37 41 44 43 43 40 41 38 36 32 29 27 27 22 23 25 22 19 16 16 21 18 20 15 17 17 19 17 17 27 35 27 30 32 27 18 24 23
36 32 29 30 31 36 36 37 43 46 44 42 40 39 37 34 31 28 29 25 24 21 21 13 13 18 22 17 19 16 16 16 19 21 24 26 28 38 39 34 20 28 24 27
31 30 27 27 28 29 34 36 38 44 51 43 42 41 39 34 30 29 31 25 21 23 19 14 12 17 19 16 19 16 17 18 21 23 22 23 29 32 35 31 23 31 36 24
28 28 25 25 26 25 30 33 30 31 47 44 42 39 37 36 33 29 30 24 23 20 20 17 20 22 20 19 18 18 20 20 16 14 14 22 22 22 36 37 35 24 34 40
26 27 24 22 21 23 23 28 27 23 42 47 42 39 39 38 36 36 29 28 28 24 24 26 21 20 21 17 17 18 21 21 19 17 17 25 30 25 40 32 30 46 21 40
24 25 24 21 20 23 24 21 25 22 32 47 44 43 43 41 40 42 38 30 29 30 27 23 23 19 19 17 18 17 19 16 15 14 14 22 21 23 24 27 35 37 39 18
23 23 24 21 17 18 20 17 18 20 21 36 46 46 46 42 40 35 35 36 30 28 23 20 19 14 14 17 16 16 13 13 14 15 19 18 18 23 17 18 24 33 40 30
23 22 23 21 17 16 17 16 14 15 17 25 34 47 53 45 40 27 34 30 33 30 25 18 15 15 25 17 17 18 16 14 14 13 18 11 20 19 11 13 18 19 24 31
22 21 21 21 17 14 12 10 11 13 16 19 21 30 46 52 42 41 35 33 34 31 29 20 23 24 25 17 19 20 16 15 13 16 17 16 13 15 15 14 14 4 24 28
22 21 19 21 18 15 13 10 11 11 11 15 20 25 36 49 42 40 39 36 33 33 27 22 22 22 17 16 13 18 16 15 7 18 13 13 13 16 11 12 16 18 15 21
22 21 18 19 19 16 15 15 14 13 12 12 14 24 30 45 46 44 38 34 41 34 33 23 21 23 15 11 16 18 14 14 12 13 12 16 14 13 12 10 12 12 13 15
23 21 19 18 18 20 19 21 19 16 16 15 13 12 19 35 45 42 40 35 32 25 28 26 21 17 18 17 24 19 14 11 12 13 13 14 13 10 11 13 11 9 15 13
22 21 20 18 20 19 18 17 17 18 18 15 16 17 20 17 28 40 37 34 31 28 27 25 18 13 22 22 20 15 17 15 13 8 8 11 5 9 9 12 14 15 13 13
20 21 21 19 19 19 17 15 15 19 16 15 17 17 21 26 28 29 30 32 37 32 32 27 22 23 17 13 17 17 17 15 10 7 7 8 10 8 9 9 9 8 8 10
20 21 20 20 19 21 18 15 15 16 19 18 18 19 21 24 29 33 38 29 30 37 31 28 24 27 23 21 15 20 18 15 11 9 8 7 6 4 5 6 6 6 8 7
21 22 21 21 21 22 19 16 16 15 15 18 17 19 19 22 25 30 36 29 26 28 33 32 34 24 27 24 25 21 20 17 14 12 9 8 7 6 5 6 5 6 5 7
20 21 20 20 21 21 22 18 17 16 16 16 18 19 19 21 23 30 32 32 33 31 33 28 27 33 26 21 25 25 23 20 17 14 12 10 9 5 6 5 5 5 6 4
18 18 16 16 18 20 23 18 16 16 16 15 18 23 24 21 23 26 29 31 32 34 31 33 34 28 29 20 26 28 27 23 19 17 16 15 12 9 7 6 6 5 3 3
16 15 13 15 16 18 21 19 17 16 15 15 17 21 24 24 25 30 30 28 30 33 34 34 32 29 24 27 30 30 30 27 23 20 21 18 14 11 10 9 8 8 8 8
17 15 12 11 13 16 20 18 14 14 14 13 17 19 24 24 23 32 32 35 33 31 28 31 32 31 27 29 31 33 32 31 27 24 24 23 19 15 12 12 11 10 11 10
17 13 11 11 12 19 17 16 12 14 15 12 14 18 18 24 25 27 29 22 32 30 29 31 30 30 32 35 35 35 38 35 32 28 27 28 24 20 15 13 12 12 12 12
15 12 10 11 11 13 14 15 16 15 12 14 11 14 17 22 28 26 29 34 29 30 33 31 32 32 38 40 43 36 35 37 36 32 29 29 27 24 20 17 14 12 14 13
16 16 14 12 14 14 14 14 12 12 12 12 11 12 19 20 23 31 21 17 19 20 23 28 29 30 33 36 36 36 33 38 39 38 33 32 31 28 24 21 19 16 14 15
18 16 14 11 11 10 9 9 11 14 15 15 13 14 19 18 24 22 23 24 22 21 24 22 21 30 28 25 26 31 37 37 39 39 36 36 35 32 28 26 24 21 19 18
20 17 13 12 13 13 11 12 11 12 13 15 14 11 14 14 16 17 21 24 27 31 28 25 27 30 28 25 21 22 30 37 43 44 40 39 37 36 33 29 27 26 24 23

GFSNW_500_spd_129.txt.gz
Wind_Speed
38 37 38 38 37 38 35 27 27 36 35 38 41 40 35 33 32 36 35 29 27 20 19 14 18 17 20 22 22 17 22 24 27 23 14 9 11 11 19 20 25 26 29 35
37 36 38 38 37 34 31 28 29 31 29 32 37 37 38 36 37 38 37 26 29 28 21 30 29 29 27 30 21 14 17 17 25 24 19 14 11 12 16 20 22 25 30 31
37 38 39 38 36 32 26 26 26 31 29 30 36 37 39 40 35 38 38 33 23 35 24 31 35 33 37 34 27 22 21 21 21 22 26 27 26 26 27 29 28 32 37 36
38 38 39 36 35 31 28 26 26 26 26 26 32 37 40 42 38 40 34 31 24 34 28 33 35 34 37 31 25 26 23 19 20 15 22 33 34 32 31 36 35 37 31 43
38 37 35 32 33 31 27 24 22 24 22 25 26 28 36 42 37 44 43 34 27 29 29 29 26 23 23 27 26 20 21 20 19 17 21 29 34 34 36 34 36 44 38 39
36 35 33 31 30 29 27 23 24 20 23 27 30 29 35 46 46 51 50 41 28 23 28 28 24 26 19 22 25 27 19 20 19 17 23 30 31 33 36 39 42 43 41 33
35 33 31 30 29 29 26 24 22 20 19 24 30 37 33 41 55 51 48 43 39 33 32 28 26 20 24 21 28 27 21 21 18 15 21 24 22 27 30 31 28 33 38 38
34 32 30 29 29 27 26 24 21 19 19 23 26 36 38 34 39 51 46 47 48 41 39 40 37 32 35 24 36 28 24 23 20 20 22 19 22 27 30 26 26 33 33 33
33 31 28 28 29 26 25 24 21 19 18 23 25 29 33 35 39 50 50 48 51 45 49 39 39 41 38 34 29 28 27 20 22 21 20 19 19 28 25 24 24 22 27 33
32 30 27 26 28 26 25 24 20 18 16 23 20 23 30 34 38 55 54 55 41 44 48 42 35 37 34 35 28 26 23 19 19 21 20 21 22 28 22 22 21 27 32 34
29 26 26 25 26 26 25 23 19 15 15 21 17 21 22 45 44 51 56 49 44 37 46 38 39 33 33 35 30 32 25 25 19 21 25 23 20 21 21 18 17 21 24 29
28 25 24 24 25 26 25 22 19 14 13 14 15 19 20 40 41 42 55 48 49 51 47 42 42 40 36 27 26 26 28 27 28 25 22 16 18 21 22 21 23 26 28 23
27 26 24 24 25 25 24 22 18 16 14 14 13 17 16 42 38 50 45 55 51 50 47 39 43 37 29 29 23 22 19 24 26 21 16 18 17 19 31 24 25 27 26 23
26 26 26 25 26 26 24 22 18 17 16 17 11 13 14 24 45 39 36 48 54 48 51 54 52 47 41 31 34 29 22 18 21 20 20 13 18 28 31 25 18 21 16 12
26 26 26 24 24 25 23 21 17 18 17 16 12 13 16 13 28 43 51 47 46 48 52 57 53 52 35 40 25 22 23 25 23 16 17 13 14 24 18 14 18 10 9 13
25 24 24 22 22 22 21 19 19 17 13 12 14 15 13 14 15 25 36 57 42 55 51 51 52 41 35 25 26 23 26 26 27 19 10 10 11 17 18 17 9 1 8 7
21 22 21 19 19 19 20 18 17 16 12 12 12 13 13 13 13 12 23 43 50 38 36 37 33 36 32 30 21 16 19 22 15 8 10 11 10 14 10 12 11 4 5 2
20 20 19 19 19 19 18 18 18 16 13 11 11 14 11 11 11 12 13 28 48 51 37 33 38 41 34 26 28 24 21 19 18 22 16 12 8 11 10 10 7 4 3 2
18 18 18 18 19 19 17 17 17 15 13 11 12 12 11 14 13 10 12 11 28 39 50 37 35 39 47 34 35 27 26 22 16 14 15 10 9 10 11 4 6 4 2 2
16 16 17 18 17 17 17 17 17 16 13 11 14 11 12 12 14 19 17 17 15 20 31 50 43 35 37 41 31 31 30 26 22 14 17 14 11 11 6 5 6 7 4 3
13 13 14 13 14 14 13 13 14 14 13 12 12 12 15 14 17 19 19 16 19 13 22 37 44 36 38 36 32 28 23 23 31 24 22 19 17 12 9 9 7 6 4 6
14 14 13 12 11 10 9 8 7 12 11 10 11 13 14 19 19 13 25 20 28 26 18 25 36 33 39 39 37 26 18 24 28 26 24 22 21 17 15 12 11 8 6 6
14 13 13 12 10 8 8 10 8 8 8 10 11 11 14 16 20 15 16 20 17 19 22 22 17 33 43 37 21 25 20 27 25 24 26 27 25 23 19 18 15 11 9 8
13 14 14 15 10 10 12 11 10 11 8 8 11 11 13 11 19 11 5 20 22 20 18 17 20 22 28 32 26 27 24 23 22 23 26 28 29 27 27 24 22 17 14 11
12 13 15 14 13 13 17 1 8 11 3 15 14 10 13 15 22 16 14 13 17 18 9 9 19 19 21 27 26 27 32 27 27 22 23 26 29 31 31 31 28 24 20 17
14 16 17 16 16 16 16 18 15 8 16 16 12 13 11 13 14 13 15 18 19 19 20 14 10 15 23 27 28 27 30 30 29 29 29 29 32 34 34 34 32 27 27 24
17 21 20 17 15 14 13 14 14 14 15 15 13 14 17 12 12 15 18 17 20 13 12 12 17 20 20 26 25 26 26 26 30 32 33 32 32 37 36 37 35 31 30 28

GFSNW_500_spd_132.txt.gz
Wind_Speed
38 38 36 33 34 35 34 34 34 32 29 28 31 34 34 34 35 45 40 32 30 22 20 23 18 26 20 19 21 16 15 23 24 21 12 11 11 4 12 20 17 23 24 29
39 38 37 35 35 35 35 33 35 33 25 26 29 32 34 37 42 51 47 42 35 31 27 27 19 28 23 24 24 16 18 16 26 25 23 21 17 18 18 21 23 23 29 32
40 39 39 37 36 34 32 32 32 29 28 28 24 29 32 36 43 52 54 50 45 38 34 32 29 29 28 29 30 25 18 19 24 31 30 27 28 26 24 25 26 28 29 31
39 40 39 36 35 33 31 30 29 26 28 26 22 21 29 37 41 44 59 54 49 44 41 38 39 35 40 39 38 29 23 23 25 23 27 31 32 34 32 31 33 33 31 32
40 40 37 34 34 33 29 28 25 26 24 24 21 22 24 32 42 44 57 59 50 44 49 42 43 45 44 42 36 31 27 26 24 25 27 31 30 33 39 36 37 39 41 41
39 37 34 33 34 32 29 26 26 23 25 23 21 25 28 33 40 45 55 51 47 43 47 46 44 32 41 37 33 29 25 24 21 23 26 29 31 34 35 39 41 42 43 44
36 35 34 32 32 31 29 27 25 22 22 22 22 25 30 33 36 44 55 53 48 43 45 46 46 38 33 33 31 27 23 21 22 23 24 27 26 28 30 34 39 41 41 37
35 33 34 32 29 29 28 26 23 21 20 23 25 23 27 32 28 44 58 56 52 47 45 46 39 37 33 32 31 30 29 21 22 22 21 22 22 24 27 34 34 30 30 32
35 34 32 31 29 27 27 25 23 20 20 26 23 22 27 31 35 31 55 59 56 53 49 47 41 39 39 37 30 30 28 23 22 23 22 23 18 24 28 26 27 24 29 34
35 33 30 29 27 25 25 23 22 19 19 28 19 22 21 27 33 35 53 55 56 54 52 51 48 45 41 38 35 35 30 28 24 21 21 19 23 23 22 24 22 20 24 30
34 30 27 26 24 25 24 21 21 19 19 24 19 19 21 25 29 38 44 60 61 54 57 53 49 46 41 37 36 32 31 28 25 24 24 23 20 23 20 21 19 19 23 28
30 27 24 23 23 25 24 21 21 18 18 24 18 15 14 17 23 35 43 59 57 61 58 56 54 53 48 43 39 32 35 31 30 27 24 28 26 21 19 18 19 25 27 32
26 24 22 22 23 25 25 22 19 18 17 21 17 14 14 18 20 31 33 57 61 57 54 54 65 54 48 38 34 34 35 33 27 23 24 26 22 23 20 16 24 24 21 17
24 23 23 22 23 26 25 23 20 17 16 18 16 15 16 16 15 34 35 46 58 56 50 55 44 45 39 34 34 36 31 26 21 23 24 19 21 21 18 16 19 16 16 16
23 22 22 22 24 23 22 21 19 16 15 16 16 14 14 16 15 31 37 42 45 55 54 54 52 38 36 40 37 38 30 32 29 26 22 18 17 17 16 15 12 11 6 8
22 22 20 20 20 20 20 18 17 15 14 15 17 14 15 12 12 15 44 39 44 43 48 56 58 48 44 38 39 42 37 34 30 28 23 22 18 17 13 12 11 10 9 8
20 19 18 19 17 17 16 14 14 14 13 15 15 13 13 14 12 12 20 42 38 44 51 45 52 50 47 50 47 46 38 32 28 17 20 23 17 10 9 9 5 4 5 4
18 17 18 17 15 16 13 12 13 14 13 14 13 9 12 10 10 13 13 20 45 50 49 47 52 46 36 33 42 36 31 30 25 19 16 13 12 10 7 5 2 3 2 2
16 16 17 16 14 14 13 13 14 13 13 13 12 10 14 10 9 12 13 9 21 38 51 50 42 43 36 28 36 41 31 22 16 18 20 20 13 9 5 5 4 5 3 1
14 15 14 13 13 14 14 14 14 13 12 14 14 11 12 13 11 11 8 6 7 14 43 45 49 37 32 38 39 34 34 26 19 18 16 19 15 13 9 6 5 4 2 2
14 12 10 10 10 11 12 12 12 11 14 14 11 13 13 12 12 14 13 14 13 11 25 51 50 36 27 39 35 31 29 27 23 18 16 17 18 14 11 8 4 2 3 2
14 11 10 9 9 7 7 7 9 12 13 12 11 12 11 13 12 13 16 14 14 9 14 15 31 40 35 33 33 40 36 23 23 28 27 23 22 18 15 11 7 7 7 4
14 13 11 9 7 7 8 12 11 11 10 7 2 5 9 12 16 17 13 12 19 13 20 9 7 28 44 50 36 36 34 28 24 31 26 24 26 23 18 15 12 13 12 7
11 10 10 10 9 10 11 13 12 12 11 11 11 8 5 9 11 15 11 6 14 16 7 7 12 18 34 37 36 35 33 30 29 26 24 23 27 28 23 20 20 18 16 14
8 8 10 13 15 18 18 10 7 11 9 14 14 12 11 7 7 16 10 4 3 11 14 6 8 16 27 32 37 39 40 33 33 25 23 26 29 29 28 26 23 22 22 22
7 8 11 17 22 22 14 14 3 14 7 10 14 10 8 14 12 19 15 7 4 6 7 8 3 12 15 17 21 39 34 27 31 30 30 26 24 25 27 28 28 26 25 25
9 14 17 21 21 20 10 11 10 11 9 14 12 11 11 9 9 11 11 7 6 9 9 12 10 7 14 12 13 23 31 29 30 32 29 28 27 27 27 26 23 27 28 28

GFSNW_500_spd_138.txt.gz
Wind_Speed
36 36 37 36 38 38 39 38 36 34 33 32 30 28 29 32 36 36 35 38 37 35 37 35 31 25 21 13 13 16 16 21 24 18 15 15 17 22 22 22 19 18 20 20
37 37 36 35 35 36 37 38 37 35 34 32 30 28 27 31 34 33 32 40 42 41 40 36 32 27 25 19 17 12 14 20 22 20 20 20 18 14 15 19 19 21 19 17
36 36 37 38 37 38 42 43 40 36 33 31 30 27 27 30 33 34 31 37 44 46 41 38 35 31 27 28 24 17 18 23 21 17 17 22 22 21 17 16 16 16 16 16
38 40 39 40 42 43 43 41 39 37 33 30 29 29 29 30 32 34 34 36 44 51 44 40 37 35 28 27 25 25 23 25 20 16 12 16 22 24 25 22 21 20 20 19
41 41 42 43 42 43 40 37 35 36 36 35 30 27 28 30 31 32 34 39 44 51 46 42 39 38 31 28 24 23 20 23 21 21 19 21 28 31 28 27 26 23 24 26
41 42 42 42 41 41 38 37 35 34 33 34 32 30 26 26 30 31 33 38 45 48 49 49 41 39 38 35 24 24 28 29 28 24 20 23 29 32 29 27 27 27 29 31
43 43 43 42 40 37 37 35 34 32 30 32 32 30 26 26 28 26 32 34 42 43 48 57 41 35 35 36 33 32 31 31 31 27 25 25 25 29 30 28 26 27 30 31
44 44 41 40 39 37 35 34 32 29 28 30 33 28 26 24 26 24 29 34 38 47 47 55 52 44 38 41 40 40 35 33 35 30 27 25 23 24 26 27 27 28 28 26
43 41 40 41 38 36 33 32 29 28 27 28 29 26 25 23 24 23 26 35 36 44 45 54 57 51 44 44 46 46 40 34 28 30 26 25 23 24 25 25 25 27 26 27
40 40 38 34 32 32 31 27 27 26 23 26 24 25 24 21 23 20 26 36 38 45 44 50 55 53 49 44 47 49 39 34 29 30 23 20 20 19 22 23 24 25 26 27
38 34 31 29 29 28 28 26 26 24 21 25 22 22 21 20 21 21 25 33 38 45 48 51 54 54 50 54 46 41 37 40 34 29 25 24 21 19 19 23 23 22 23 24
35 31 29 27 26 25 24 24 24 23 21 23 22 21 20 21 23 20 26 32 38 48 51 53 52 45 50 45 40 39 40 42 37 34 29 25 21 19 21 23 23 22 21 22
28 28 29 29 27 25 25 26 23 25 23 23 24 19 19 23 21 17 19 29 36 39 52 54 57 56 46 47 43 47 50 40 32 27 23 22 22 22 19 18 20 18 20 20
30 31 31 30 28 26 24 26 25 24 23 21 25 18 20 20 18 18 20 20 28 36 40 51 57 56 58 43 40 42 44 37 39 32 24 22 22 19 14 13 13 16 19 14
31 31 30 28 26 25 24 24 25 25 21 18 20 18 18 19 19 17 17 20 26 32 38 42 50 53 51 54 46 44 42 42 42 40 20 21 18 15 18 14 12 13 16 18
28 26 24 23 22 22 23 23 23 20 18 17 18 15 15 17 17 15 14 17 21 29 32 36 44 43 57 41 42 50 50 46 43 31 27 25 20 21 18 15 13 15 15 15
22 20 19 19 19 19 19 18 18 16 16 16 15 14 15 15 16 14 12 10 15 31 38 31 40 43 45 53 52 33 32 41 44 29 26 24 18 20 14 13 9 10 13 13
18 18 17 17 16 15 14 15 14 13 14 14 13 13 13 11 10 12 11 7 11 28 32 25 32 38 46 45 37 42 43 29 33 35 24 21 16 14 15 13 14 13 12 13
16 16 15 14 13 12 12 12 13 15 15 14 13 11 11 9 5 3 7 10 7 19 36 32 26 29 29 28 29 35 34 32 33 25 23 22 22 19 14 11 15 15 16 14
15 14 14 11 11 11 11 12 12 13 14 15 13 10 10 13 11 6 4 5 1 8 28 37 38 22 24 25 21 22 25 30 29 24 18 17 18 18 16 11 14 14 14 12
12 11 10 9 9 9 11 11 11 11 11 12 9 11 9 13 15 12 9 8 6 5 7 24 35 39 32 23 17 17 20 22 24 23 19 17 19 15 17 16 16 15 12 11
11 12 11 9 8 8 9 10 10 10 9 8 8 6 9 10 11 11 8 10 8 3 9 8 16 36 41 35 24 17 21 25 26 28 22 23 20 15 14 18 19 16 12 11
13 13 13 11 9 8 8 7 9 11 17 9 7 8 8 8 7 7 7 8 6 5 6 6 10 15 29 39 37 33 28 24 21 19 24 21 20 16 19 20 22 19 16 13
13 12 10 10 8 7 6 9 8 7 16 15 13 9 8 4 7 7 8 10 5 3 3 1 3 2 9 30 36 37 29 26 26 23 26 31 20 22 24 23 23 22 19 18
12 10 8 7 8 8 11 14 8 4 9 15 14 4 8 5 3 6 12 8 3 3 7 3 2 3 3 13 30 33 35 31 29 26 27 27 21 22 31 27 26 26 26 23
12 9 6 8 10 12 20 12 9 7 8 12 12 10 7 7 5 7 13 8 8 4 4 2 6 4 8 7 16 30 38 30 34 29 31 34 30 28 27 30 31 30 32 28
14 12 8 8 10 15 19 13 8 7 9 7 12 10 7 8 9 8 13 9 8 10 6 6 4 1 3 9 13 15 24 41 37 33 29 25 34 32 25 23 28 28 30 31